[[[{"header":{"parameterUnit":"kt","parameterCategory":2,"dx":1,"dy":1,"la1":29.285339999999998,"la2":30.599998999999997,"lo1":-89.70041500000002,"lo2":-87.6738589999976,"nx":112,"ny":82,"refTime":"2022-10-06T12:00:00:Z","depth":0,"parameterNumber":1,"parameterNumberName":"U-component_of_WINDS"},"data":[11.4265,11.9259,12.3473,12.0264,12.1976,12.2906,11.7005,11.6741,11.7613,0.0,0.0,0.0,0.0,0.0,0.0,0.0,0.0,0.0,0.0,11.1887,0.0,0.0,0.0,0.0,0.0,0.0,0.0,0.0,0.0,0.0,0.0,13.7797,13.7797,13.7797,13.7797,13.7797,13.7797,13.7797,13.7797,13.7797,13.7797,13.7797,13.7797,13.7797,13.7797,13.7797,13.7797,13.7797,13.7797,13.7797,13.7797,13.7797,13.7797,13.7797,13.7797,13.7797,13.7797,13.7797,13.7797,13.7797,13.7797,13.7797,13.7797,13.7797,13.7797,13.7797,13.7797,13.7797,13.7797,13.7797,13.7797,13.7797,13.7797,13.7797,13.7797,13.7797,13.7797,13.7797,13.7797,13.7797,13.7797,13.7681,13.7273,13.7215,13.7215,13.7215,13.7215,13.675,13.5559,13.5354,13.5094,13.4249,13.4132,13.4132,13.4132,13.4889,13.5354,13.5354,13.611,13.6517,13.6517,13.6517,13.675,13.7157,13.7215,13.739,13.7797,13.7797,13.7797,13.7797,13.7797,13.7797,10.9406,11.3843,11.7663,11.5423,11.7729,11.9156,11.4071,0.0,0.0,0.0,0.0,0.0,0.0,0.0,0.0,0.0,0.0,0.0,0.0,0.0,11.3251,0.0,0.0,0.0,0.0,0.0,12.8607,13.2534,13.1603,0.0,13.7564,13.7797,13.7797,13.7797,13.7797,13.7797,13.7797,13.7797,13.7797,13.7797,13.7797,13.7797,13.7797,13.7797,13.7797,13.7797,13.7797,13.7797,13.7797,13.7797,13.7797,13.7797,13.7797,13.7797,13.7797,13.7797,13.7797,13.7797,13.7797,13.7797,13.7797,13.7797,13.7797,13.7797,13.7797,13.7797,13.7797,13.7797,13.7797,13.7797,13.7797,13.7797,13.7797,13.7797,13.7797,13.7797,13.7797,13.7797,13.7797,13.7797,13.7797,13.7797,13.7797,13.7797,13.7797,13.7797,13.7797,13.7564,13.6781,13.6665,13.6285,13.547,13.5354,13.5354,13.5354,13.6168,13.6665,13.6665,13.739,13.7797,13.7797,13.7797,13.7797,13.7797,13.7797,13.7797,13.7797,13.7797,13.7797,13.7797,13.7797,13.7797,10.362,10.4902,10.7482,11.0194,11.1952,0.0,0.0,0.0,11.433,0.0,0.0,0.0,0.0,0.0,0.0,0.0,0.0,0.0,0.0,11.5926,11.6159,11.8749,12.2325,12.6047,12.9974,12.6862,12.7327,13.3783,13.0642,13.1136,13.7506,13.7797,13.7797,13.7797,13.7797,13.7797,13.7797,13.7797,13.7797,13.7797,13.7797,13.7797,13.7797,13.7797,13.7797,13.7797,13.7797,13.7797,13.7797,13.7797,13.7797,13.7797,13.7797,13.7797,13.7797,13.7797,13.7797,13.7797,13.7797,13.7797,13.7797,13.7797,13.7797,13.7797,13.7797,13.7797,13.7797,13.7797,13.7797,13.7797,13.7797,13.7797,13.7797,13.7797,13.7797,13.7797,13.7797,13.7797,13.7797,13.7797,13.7797,13.7797,13.7797,13.7797,13.7797,13.7797,13.7797,13.7797,13.7797,13.7797,13.7797,13.7797,13.7797,13.7797,13.7797,13.7797,13.7797,13.7797,13.7797,13.7797,13.7797,13.7797,13.7797,13.7797,13.7797,13.7797,13.7797,13.7797,13.7797,13.7797,13.7797,13.7797,9.721,0.0,0.0,0.0,0.0,0.0,0.0,0.0,0.0,0.0,0.0,0.0,0.0,0.0,0.0,0.0,0.0,11.8893,11.8311,12.0289,12.279,12.5379,12.66,12.8781,13.2678,13.1254,13.1952,13.6459,13.329,13.3058,13.7564,13.7797,13.7797,13.7797,13.7797,13.7797,13.7797,13.7797,13.7797,13.7797,13.7797,13.7797,13.7797,13.7797,13.7797,13.7797,13.7797,13.7797,13.7797,13.7797,13.7797,13.7797,13.7797,13.7797,13.7797,13.7797,13.7797,13.7797,13.7797,13.7797,13.7797,13.7797,13.7797,13.7797,13.7797,13.7797,13.7797,13.7797,13.7797,13.7797,13.7797,13.7797,13.7797,13.7797,13.7797,13.7797,13.7797,13.7797,13.7797,13.7797,13.7797,13.7797,13.7797,13.7797,13.7797,13.7797,13.7797,13.7797,13.7797,13.7797,13.7797,13.7797,13.7797,13.7797,13.7797,13.7797,13.7797,13.7797,13.7797,13.7797,13.7797,13.7797,13.7797,13.7797,13.7797,13.7797,13.7797,13.7797,13.7797,13.7797,13.7797,13.7797,0.0,0.0,0.0,0.0,0.0,0.0,11.3483,0.0,11.1706,0.0,0.0,0.0,0.0,0.0,0.0,0.0,11.7295,12.0638,12.0405,12.3662,12.6803,12.8839,13.0991,13.2795,13.4016,13.3465,13.4338,13.7564,13.4861,13.4396,13.7622,13.7797,13.7797,13.7797,13.7797,13.7797,13.7797,13.7797,13.7797,13.7797,13.7797,13.7797,13.7797,13.7797,13.7797,13.7797,13.7797,13.7797,13.7797,13.7797,13.7797,13.7797,13.7797,13.7797,13.7797,13.7797,13.7797,13.7797,13.7797,13.7797,13.7797,13.7797,13.7797,13.7797,13.7797,13.7797,13.7797,13.7797,13.7797,13.7797,13.7797,13.7797,13.7797,13.7797,13.7797,13.7797,13.7797,13.7797,13.7797,13.7797,13.7797,13.7506,13.6459,13.7157,13.7622,13.7157,13.7506,13.7797,13.7797,13.7797,13.7797,13.7797,13.7797,13.7797,13.7797,13.7797,13.7797,13.7797,13.7797,13.7797,13.7797,13.7797,13.7797,13.7797,13.7797,13.7797,13.7797,13.7797,13.7797,13.7797,13.7797,13.7797,0.0,0.0,0.0,0.0,11.1417,0.0,0.0,0.0,11.4414,11.2843,0.0,11.3748,11.2727,0.0,0.0,11.4245,11.8691,12.2353,12.3342,12.6862,12.9828,13.0933,13.5063,13.6983,13.4772,13.454,13.547,13.7681,13.5761,13.5528,13.7681,13.7797,13.7797,13.7797,13.7797,13.7797,13.7797,13.7797,13.7797,13.7797,13.7797,13.7797,13.7797,13.7797,13.7797,13.7797,13.7797,13.7797,13.7797,13.7797,13.7797,13.7797,13.7797,13.7797,13.7797,13.7797,13.7797,13.7797,13.7797,13.7797,13.7797,13.7797,13.7797,13.7797,13.7797,13.7797,13.7797,13.7797,13.7739,13.7622,13.7797,13.7739,13.7681,13.7797,13.7797,13.7797,13.7797,13.7739,13.7622,13.7622,13.7622,13.6866,13.454,13.6168,13.739,13.6025,13.6983,13.7797,13.7622,13.7739,13.7797,13.7797,13.7797,13.7797,13.7797,13.7797,13.7797,13.7797,13.7797,13.7797,13.7797,13.7797,13.7797,13.7797,13.7797,13.7797,13.7797,13.7797,13.7797,13.7797,13.7797,13.7797,0.0,0.0,0.0,0.0,0.0,11.0018,0.0,0.0,0.0,12.087,12.1305,12.1014,12.1713,12.1801,12.2266,12.3548,12.7269,12.9683,12.8869,13.2911,13.611,13.6343,13.7215,13.7622,13.7157,13.7099,13.7332,13.7797,13.739,13.7332,13.7797,13.7797,13.7797,13.7797,13.7797,13.7797,13.7797,13.7797,13.7797,13.7797,13.7797,13.7797,13.7797,13.7797,13.7797,13.7797,13.7797,13.7797,13.7797,13.7797,13.7797,13.7797,13.7797,13.7797,13.7797,13.7797,13.7797,13.7797,13.7797,13.7797,13.7797,13.7797,13.7797,13.7797,13.7797,13.7797,13.7797,13.7797,13.7157,13.6607,13.7564,13.7099,13.6665,13.7564,13.7797,13.7797,13.7797,13.7041,13.6374,13.6374,13.6374,13.5909,13.4365,13.6168,13.7041,13.483,13.6401,13.7448,13.6549,13.7215,13.7797,13.7797,13.7797,13.7797,13.7797,13.7797,13.7797,13.7797,13.7797,13.7797,13.7797,13.7797,13.7797,13.7797,13.7797,13.7797,13.7797,13.7797,13.7797,13.7797,13.7797,13.7797,0.0,0.0,0.0,10.3167,0.0,0.0,0.0,11.3483,11.5376,12.0494,12.1627,12.2469,12.4914,12.5379,12.5611,12.6222,12.9654,13.2592,13.3842,13.6226,13.7797,13.7797,13.7797,13.7797,13.7797,13.7797,13.7797,13.7797,13.7797,13.7797,13.7797,13.7797,13.7797,13.7797,13.7797,13.7797,13.7797,13.7797,13.7797,13.7797,13.7797,13.7797,13.7797,13.7797,13.7797,13.7797,13.7797,13.7797,13.7797,13.7797,13.7797,13.7797,13.7797,13.7797,13.7797,13.7797,13.7797,13.7797,13.7797,13.7797,13.7797,13.7797,13.7797,13.7797,13.7797,13.7797,13.7681,13.7099,13.6924,13.6924,13.6924,13.6924,13.7099,13.7681,13.739,13.7099,13.7681,13.6401,13.5327,13.5909,13.5036,13.3698,13.2387,13.4307,13.5296,13.3407,13.4772,13.5761,13.521,13.5587,13.6226,13.6777,13.6924,13.7157,13.7797,13.7797,13.7797,13.7797,13.7797,13.7797,13.7797,13.7797,13.7797,13.7797,13.7797,13.7797,13.7797,13.7797,13.7797,13.7797,13.7797,13.7797,0.0,0.0,0.0,0.0,0.0,0.0,11.1545,11.3367,11.6132,12.0785,12.279,12.4709,12.7996,12.8606,12.8606,12.8606,13.1224,13.4338,13.739,13.7797,13.7797,13.7797,13.7797,13.7797,13.7797,13.7797,13.7797,13.7797,13.7797,13.7797,13.7797,13.7797,13.7797,13.7797,13.7797,13.7797,13.7797,13.7797,13.7797,13.7797,13.7797,13.7797,13.7797,13.7797,13.7797,13.7797,13.7797,13.7797,13.7797,13.7797,13.7797,13.7797,13.7797,13.7797,13.7797,13.7797,13.7797,13.7797,13.7797,13.7797,13.7797,13.7797,13.7797,13.7797,13.7797,13.7797,13.7622,13.6665,13.6924,13.7273,13.6316,13.6575,13.7099,13.7099,13.6343,13.5967,13.6866,13.5354,13.4016,13.5094,13.3612,13.1808,13.0498,13.2387,13.3609,13.2041,13.3174,13.4016,13.3783,13.3958,13.4481,13.5439,13.5645,13.6083,13.7041,13.7332,13.7448,13.7448,13.7681,13.7797,13.7797,13.7797,13.7797,13.7797,13.7797,13.7797,13.7797,13.7797,13.7797,13.7797,13.7797,13.7797,9.3617,0.0,0.0,10.4389,10.5869,0.0,11.8749,12.1364,12.3633,13.0933,13.3346,13.4683,13.6285,13.6544,13.6544,13.6544,13.6924,13.7332,13.7739,13.7797,13.7797,13.7797,13.7797,13.7797,13.7797,13.7797,13.7797,13.7797,13.7797,13.7797,13.7797,13.7797,13.7797,13.7797,13.7797,13.7797,13.7797,13.7797,13.7797,13.7797,13.7797,13.7797,13.7797,13.7797,13.7797,13.7797,13.7797,13.7797,13.7797,13.7797,13.7797,13.7797,13.7797,13.7797,13.7797,13.7797,13.7797,13.7797,13.7797,13.7797,13.7797,13.7797,13.7797,13.7797,13.7797,13.7797,13.7797,13.7681,13.6924,13.6258,13.6083,13.5327,13.454,13.454,13.4423,13.4365,13.4481,13.3407,13.2448,13.2623,13.239,13.1808,13.0498,13.2387,13.326,13.0847,13.2562,13.3667,13.2564,13.3407,13.4191,13.4307,13.4365,13.4365,13.454,13.5618,13.6258,13.6258,13.7215,13.7797,13.7797,13.7797,13.7797,13.7797,13.7797,13.7797,13.7797,13.7797,13.7797,13.7797,13.7797,13.7797,9.1443,9.3004,9.5259,9.9345,0.0,0.0,11.5104,11.9125,12.3516,13.041,13.2271,13.3667,13.7157,13.7797,13.7797,13.7797,13.7797,13.7797,13.7797,13.7797,13.7797,13.7797,13.7797,13.7797,13.7797,13.7797,13.7797,13.7797,13.7797,13.7797,13.7797,13.7797,13.7797,13.7797,13.7797,13.7797,13.7797,13.7797,13.7797,13.7797,13.7797,13.7797,13.7797,13.7797,13.7797,13.7797,13.7797,13.7797,13.7797,13.7797,13.7797,13.7797,13.7797,13.7797,13.7797,13.7797,13.7797,13.7797,13.7797,13.7797,13.7797,13.7797,13.7797,13.7797,13.7797,13.7797,13.7797,13.7797,13.6401,13.4745,13.3989,13.3989,13.4132,13.4132,13.3581,13.3174,13.3958,13.2534,13.1021,13.1021,13.1021,13.0847,13.0323,13.1108,13.1457,13.0381,13.1196,13.1631,13.1138,13.1545,13.2155,13.2941,13.3,13.329,13.4074,13.5327,13.6083,13.6083,13.6549,13.6839,13.6839,13.6839,13.6839,13.6839,13.7448,13.7797,13.7797,13.6343,13.5645,13.5703,13.6459,13.7157,8.9972,0.0,0.0,0.0,0.0,0.0,11.4117,11.8857,12.3895,12.9625,13.108,13.2592,13.6575,13.7622,13.7797,13.7797,13.7797,13.7797,13.7797,13.7797,13.7797,13.7797,13.7797,13.7797,13.7797,13.7797,13.7797,13.7797,13.7797,13.7797,13.7797,13.7797,13.7797,13.7797,13.7797,13.7797,13.7797,13.7797,13.7797,13.7797,13.7797,13.7797,13.7797,13.7797,13.7797,13.7797,13.7797,13.7797,13.7797,13.7797,13.7797,13.7797,13.7797,13.7797,13.7797,13.7797,13.7797,13.7797,13.7797,13.7797,13.7797,13.7797,13.7797,13.7797,13.7797,13.7797,13.7739,13.7448,13.6052,13.4365,13.3058,13.3174,13.3523,13.3144,13.236,13.1894,13.2853,13.1573,13.0265,13.0265,13.0265,13.0265,13.0265,13.0265,13.0265,13.0265,13.0265,13.0265,13.0265,13.0265,13.0614,13.1545,13.1603,13.201,13.2969,13.4221,13.4978,13.4978,13.5327,13.5559,13.5559,13.5559,13.5559,13.5559,13.6343,13.6808,13.6808,13.5354,13.4481,13.4132,13.5443,13.6692,0.0,0.0,0.0,10.0944,10.541,11.0491,12.0478,12.4509,12.7298,13.1312,13.3116,13.4423,13.585,13.7041,13.7797,13.7797,13.7797,13.7797,13.7797,13.7797,13.7797,13.7797,13.7797,13.7797,13.7797,13.7797,13.7797,13.7797,13.7797,13.7797,13.7797,13.7797,13.7797,13.7797,13.7797,13.7797,13.7797,13.7797,13.7797,13.7797,13.7797,13.7797,13.7797,13.7797,13.7797,13.7797,13.7797,13.7797,13.7797,13.7797,13.7797,13.7797,13.7797,13.7797,13.7797,13.7797,13.7797,13.7797,13.7797,13.7797,13.7797,13.7797,13.7797,13.7797,13.7797,13.7797,13.7564,13.6432,13.6083,13.5734,13.4365,13.3174,13.1924,13.0672,13.0293,13.0293,13.0352,13.0323,13.0265,13.0265,13.0265,13.0265,13.0265,13.0265,13.0265,13.0265,13.0265,13.0265,13.0265,13.0265,13.0265,13.0323,13.0323,13.0323,13.0381,13.1545,13.2273,13.2273,13.3465,13.4191,13.4191,13.4191,13.4191,13.4191,13.4249,13.4249,13.4249,13.5443,13.5385,13.4132,13.5443,13.6692,9.171,9.2881,9.4896,9.9643,10.674,11.365,11.7863,12.4068,12.9537,13.172,13.2564,13.3523,13.5676,13.6374,13.6665,13.6665,13.7332,13.7797,13.7797,13.7797,13.7797,13.7797,13.7797,13.7797,13.7797,13.7797,13.7797,13.7797,13.7797,13.7797,13.7797,13.7797,13.7797,13.7797,13.7797,13.7797,13.7797,13.7797,13.7797,13.7797,13.7797,13.7797,13.7797,13.7797,13.7797,13.7797,13.7797,13.7797,13.7797,13.7797,13.7797,13.7797,13.7797,13.7797,13.7797,13.7797,13.7797,13.7797,13.7797,13.7797,13.7797,13.7797,13.7797,13.7797,13.7797,13.7797,13.7564,13.6374,13.5443,13.4512,13.3174,13.1894,13.0789,13.0323,13.0265,13.0265,13.0265,13.0265,13.0265,13.0265,13.0265,13.0265,13.0265,13.0265,13.0265,13.0265,13.0265,13.0265,13.0265,13.0265,13.0265,13.0265,13.0265,13.0265,13.0265,13.1429,13.2157,13.2157,13.2592,13.2825,13.2825,13.2825,13.2825,13.2825,13.4481,13.3171,12.8984,12.9391,12.9391,12.8984,13.0293,13.1108,9.2539,9.3985,9.5792,9.9844,10.6963,11.3851,11.6994,12.3275,12.8942,13.1014,13.1836,13.2681,13.4338,13.393,13.3581,13.4512,13.5327,13.611,13.7041,13.7157,13.7332,13.7797,13.7797,13.7797,13.7797,13.7797,13.7797,13.7797,13.7797,13.7797,13.7797,13.7797,13.7797,13.7797,13.7797,13.7797,13.7797,13.7797,13.7797,13.7797,13.7797,13.7797,13.7797,13.7797,13.7797,13.7797,13.7797,13.7797,13.7797,13.7797,13.7797,13.7797,13.7797,13.7797,13.7797,13.7797,13.7797,13.7797,13.7797,13.7797,13.7797,13.7797,13.7797,13.7797,13.7797,13.7797,13.7448,13.585,13.4772,13.3725,13.1952,13.0847,13.0265,13.0265,13.0265,13.0265,13.0265,13.0265,13.0265,13.0265,13.0265,13.0265,13.0265,13.0265,13.0265,13.0265,13.0265,13.0265,13.0265,12.9828,12.9537,12.9537,12.913,12.8839,12.8839,12.9595,13.0091,13.0091,13.0091,13.0091,13.0091,13.0091,13.0091,13.0091,13.1659,13.0466,12.6338,12.6804,12.6804,12.6397,12.7705,12.8286,9.2656,9.4229,9.6426,10.1633,10.632,11.1435,11.8158,12.2388,12.5947,12.9462,13.1138,13.1982,13.1924,12.9886,12.913,13.1575,13.2041,13.2941,13.5501,13.5909,13.6432,13.7564,13.7797,13.7797,13.7797,13.7797,13.7797,13.7797,13.7797,13.7797,13.7797,13.7797,13.7797,13.7797,13.7797,13.7797,13.7797,13.7797,13.7797,13.7797,13.7797,13.7797,13.7797,13.7797,13.7797,13.7797,13.7739,13.7739,13.7797,13.7739,13.7739,13.7797,13.7797,13.7797,13.7797,13.7797,13.7797,13.7797,13.7797,13.7797,13.7797,13.7797,13.7797,13.7797,13.7739,13.7739,13.7215,13.4714,13.4016,13.3434,13.0875,13.0265,13.0265,13.0265,13.0265,13.0265,13.0265,13.0265,13.0265,13.0265,13.0265,13.0265,13.0265,13.0177,13.0149,13.0149,13.0091,13.0032,13.0032,12.8956,12.817,12.817,12.7123,12.6338,12.6338,12.6338,12.6338,12.6338,12.6338,12.6338,12.6338,12.6338,12.6338,12.6338,12.6222,12.6164,12.6164,12.7414,12.7356,12.6164,12.7414,12.8025,9.454,9.7567,10.0349,10.3277,10.7506,11.2265,11.7401,12.1283,12.5085,12.9348,12.9712,12.9014,12.7996,12.8054,12.8519,12.9188,13.0091,13.1312,13.2941,13.3989,13.5094,13.6374,13.7273,13.7797,13.7797,13.7797,13.7797,13.7797,13.7797,13.7797,13.7797,13.7797,13.7797,13.7797,13.7797,13.7797,13.7797,13.7797,13.7797,13.7797,13.7797,13.7797,13.7797,13.7797,13.7797,13.7797,13.6866,13.6983,13.7739,13.6866,13.7041,13.7797,13.7797,13.7797,13.7797,13.7797,13.7797,13.7797,13.7797,13.7797,13.7797,13.7797,13.7797,13.7681,13.666,13.6459,13.5967,13.3407,13.265,13.2301,13.0672,13.0265,13.0265,13.0265,13.0265,13.0265,13.0265,13.0265,13.0265,13.0265,13.0265,13.0265,13.0265,12.9421,12.8781,12.8781,12.7937,12.7356,12.7356,12.7036,12.6804,12.6804,12.6513,12.6338,12.6338,12.6338,12.6338,12.6338,12.6338,12.6338,12.6338,12.6338,12.6338,12.6338,12.4535,12.3574,12.3574,12.3923,12.3923,12.3633,12.3923,12.4098,9.4296,9.7713,10.1178,10.3765,10.6366,10.9893,11.5947,11.9294,12.2544,12.7516,12.7501,12.6571,12.6397,12.6077,12.5989,12.6513,12.7211,12.8345,13.0207,13.1603,13.2941,13.4221,13.5443,13.6226,13.6226,13.6692,13.7041,13.7041,13.7506,13.7797,13.7797,13.7797,13.7797,13.7797,13.7797,13.7797,13.7797,13.7797,13.7797,13.7797,13.7797,13.7797,13.7797,13.7797,13.7564,13.6983,13.5792,13.6226,13.7681,13.5936,13.6226,13.7797,13.7273,13.739,13.7797,13.7797,13.7797,13.7797,13.7797,13.7797,13.7797,13.7797,13.7448,13.6983,13.6777,13.6401,13.5618,13.3581,13.3465,13.329,13.0905,13.0672,13.0963,13.0381,13.0265,13.0265,13.0265,13.0265,13.0265,13.0265,12.977,12.9363,12.9363,12.8286,12.7472,12.7472,12.6804,12.6338,12.6338,12.5815,12.5495,12.5495,12.503,12.4709,12.4709,12.4709,12.4709,12.4709,12.4709,12.4709,12.4709,12.4709,12.4709,12.4709,12.3342,12.2672,12.2672,12.2672,12.2672,12.2672,12.2672,12.2672,9.3583,9.6542,10.0235,10.3375,10.4204,10.6238,11.4234,11.6875,11.9377,12.5373,12.5437,12.4709,12.5669,12.407,12.2993,12.4011,12.4186,12.5,12.7443,12.8897,13.0265,13.175,13.3058,13.39,13.4132,13.5152,13.5734,13.5559,13.649,13.7157,13.7332,13.7157,13.7215,13.7564,13.739,13.7332,13.7332,13.7332,13.739,13.7564,13.739,13.7332,13.7332,13.7681,13.7273,13.6199,13.4772,13.547,13.739,13.4889,13.5354,13.7506,13.649,13.6781,13.7797,13.7797,13.7797,13.7797,13.7797,13.7797,13.7797,13.7797,13.7157,13.6432,13.7099,13.6692,13.5734,13.4249,13.4803,13.4978,13.1429,13.1312,13.1866,13.0556,13.0381,13.0498,13.0498,13.0381,13.0177,13.0003,12.9072,12.8228,12.8054,12.6949,12.6106,12.6106,12.5931,12.5844,12.5844,12.4855,12.4186,12.4186,12.3283,12.2672,12.2672,12.2672,12.2672,12.2672,12.2672,12.2672,12.2672,12.2672,12.2672,12.2672,12.2672,12.2672,12.2672,12.2672,12.2672,12.2672,12.2672,12.2672,9.6169,9.7681,9.9047,10.2316,10.3097,10.5178,11.3142,11.5141,11.7691,12.6238,12.6047,12.4186,12.3458,12.2934,12.2702,12.2962,12.2934,12.3458,12.4884,12.6193,12.7879,13.0323,13.172,13.2941,13.4016,13.4307,13.4047,13.2972,13.303,13.364,13.4714,13.3756,13.4105,13.6316,13.5296,13.4772,13.4772,13.4772,13.5296,13.6374,13.5296,13.4772,13.483,13.6924,13.7681,13.739,13.5121,13.4947,13.6141,13.3581,13.4047,13.6374,13.6141,13.6781,13.7797,13.7797,13.7797,13.7797,13.7797,13.7797,13.7797,13.7797,13.7681,13.7157,13.5354,13.5354,13.5559,13.3174,13.3465,13.4016,13.2301,13.2041,13.1866,13.0556,13.108,13.1866,13.1866,13.0963,12.9886,12.8839,12.8432,12.7937,12.6891,12.5611,12.4739,12.4739,12.3895,12.3283,12.3283,12.3109,12.2934,12.2934,12.276,12.2672,12.2672,12.2672,12.2672,12.2672,12.2672,12.2672,12.2672,12.2672,12.2672,12.2672,12.2672,12.2672,12.2672,12.2672,12.2672,12.2672,12.2672,12.2672,9.3729,9.6298,9.9128,10.0072,10.1585,10.4747,11.2018,11.4196,11.6676,12.3877,12.4389,12.3342,12.276,12.2672,12.2439,12.1771,12.2178,12.2818,12.34,12.4535,12.5815,12.7036,12.8985,13.041,13.105,13.236,13.2592,13.1254,13.1808,13.2157,13.2097,13.1487,13.172,13.3,13.3058,13.3116,13.3116,13.3783,13.4772,13.6083,13.5443,13.5501,13.5994,13.454,13.4279,13.4803,13.2911,13.3202,13.4861,13.2243,13.2709,13.4978,13.4279,13.4803,13.5877,13.5877,13.5877,13.5877,13.5877,13.5877,13.5877,13.5877,13.5412,13.4919,13.5094,13.5094,13.4978,13.4338,13.5094,13.547,13.2855,13.3205,13.3728,13.172,13.175,13.1982,13.1312,13.0672,12.9654,12.7647,12.7298,12.6891,12.5553,12.4826,12.4186,12.3574,12.3021,12.2672,12.2672,12.2672,12.2672,12.2672,12.2672,12.2672,12.2672,12.2672,12.2672,12.2672,12.2672,12.2672,12.2672,12.2672,12.2672,12.2672,12.2672,12.2672,12.2672,12.2672,12.2672,12.2672,12.2672,12.2672,9.127,9.4589,9.8672,9.8689,10.0267,10.3621,11.0728,11.3167,11.5583,12.1429,12.2178,12.1887,12.2178,12.1771,12.1247,12.0754,12.1596,12.2353,12.2613,12.3458,12.4244,12.4768,12.66,12.7996,12.8286,13.0149,13.0672,12.9101,13.0207,13.0498,12.9479,12.9421,12.9537,12.977,13.0556,13.0905,13.0905,13.1922,13.326,13.4803,13.4512,13.521,13.6459,13.2185,13.0963,13.2157,13.108,13.1836,13.3493,13.1166,13.1631,13.3609,13.2623,13.3,13.4132,13.4132,13.4132,13.4132,13.4132,13.4132,13.4132,13.4132,13.3434,13.2941,13.4687,13.4919,13.4598,13.5094,13.6316,13.6692,13.3465,13.3872,13.4629,13.2332,13.2435,13.268,13.1067,13.1183,13.0679,12.746,12.679,12.6239,12.4358,12.4011,12.3749,12.2788,12.2672,12.2672,12.2672,12.2672,12.2672,12.2672,12.2672,12.2672,12.2672,12.2672,12.2672,12.2672,12.2672,12.2672,12.2672,12.212,12.1829,12.1829,12.1829,12.1945,12.2236,12.2236,12.2236,12.2236,12.2527,12.2469,9.2363,9.4034,9.6214,10.0007,9.9682,10.0591,10.9047,11.1249,11.3645,12.1112,12.0754,11.9474,12.0638,11.8978,11.8105,12.0347,12.0812,12.1305,12.2469,12.2788,12.3633,12.5902,12.6397,12.7007,12.817,12.8519,12.7618,12.5117,12.6135,12.6804,12.6687,12.6687,12.724,12.8403,12.7472,12.6862,12.6862,12.6978,12.8286,13.0789,12.9595,13.0293,13.2623,13.0963,13.0963,13.2157,13.2041,13.2157,13.2243,13.0847,13.108,13.239,13.2215,13.3,13.4132,13.4132,13.4132,13.4132,13.4132,13.4132,13.4132,13.4132,13.4016,13.3783,13.2825,13.4136,13.5443,13.3205,13.4338,13.5909,13.4307,13.3232,13.2215,13.0731,13.333,13.5386,13.2748,13.4242,13.4515,12.933,12.8307,12.7159,12.3469,12.2846,12.276,12.2672,12.2672,12.2672,12.2672,12.2672,12.2672,12.2672,12.2672,12.2672,12.2672,12.2672,12.2672,12.2672,12.2672,12.2672,12.2672,12.0405,11.9098,11.9098,11.9098,11.968,12.087,12.087,12.087,12.0956,12.212,12.2004,8.5651,8.9045,9.3175,9.4616,9.7227,10.0401,10.382,10.7665,11.2348,11.8969,12.0114,11.9882,11.9563,11.9358,11.9036,11.8455,11.9009,11.9707,12.0231,12.1014,12.1859,12.282,12.4274,12.5379,12.5931,12.6658,12.6716,12.5669,12.5321,12.5204,12.5204,12.4535,12.4389,12.4884,12.5117,12.5204,12.5204,12.5931,12.7298,12.9072,12.8548,12.8432,12.8635,12.8112,12.817,12.8665,12.8665,12.8665,12.8635,12.8112,12.8665,12.9828,12.9828,13.0642,13.1748,13.1748,13.1748,13.1748,13.1748,13.1748,13.1748,13.1748,13.1748,13.1836,13.2099,13.2914,13.364,13.3407,13.4105,13.4629,13.329,13.3174,13.3485,13.3861,13.5184,13.6069,13.5161,13.5088,13.4171,13.0473,12.9801,12.9282,12.7704,12.7486,12.7486,12.7486,12.7486,12.713,12.6264,12.6203,12.525,12.2791,12.2545,12.1936,12.0426,12.0289,12.0289,12.0289,12.0289,12.0289,12.0289,11.9331,11.8749,11.8749,11.8749,11.904,11.9505,11.9505,11.9505,11.9505,12.0056,12.0056,8.231,8.6255,9.1248,9.2948,9.6683,10.058,10.3249,10.6919,11.1108,11.5835,11.7945,11.8835,11.8311,11.8311,11.8078,11.7,11.7613,11.8342,11.8691,11.9591,12.0289,12.0638,12.2615,12.3865,12.3865,12.503,12.5611,12.5262,12.4768,12.4244,12.3895,12.3458,12.2993,12.2672,12.3458,12.3865,12.3865,12.4826,12.5902,12.7152,12.7152,12.6513,12.5262,12.5262,12.5437,12.5786,12.5786,12.6018,12.6338,12.6338,12.6891,12.7705,12.7705,12.8286,12.913,12.9537,12.9654,12.9654,12.9654,12.9886,13.0207,12.98,12.9654,12.9916,13.1196,13.1603,13.172,13.2213,13.2678,13.2678,13.137,13.2595,13.45,13.5669,13.6429,13.6921,13.6661,13.6425,13.5336,13.2391,13.1766,13.1521,13.073,13.0606,13.0606,13.0606,13.027,12.9661,12.8654,12.807,12.6712,12.3896,12.3547,12.2871,12.1074,12.0294,11.9873,11.9873,11.9152,11.9097,11.9855,11.9874,11.9874,11.9874,11.9874,11.9692,11.9285,11.9285,11.8917,11.8195,11.9295,11.9638,8.5026,8.7435,9.0922,9.7726,9.8919,10.0733,10.9788,11.0504,10.9787,11.1789,11.3681,11.5345,11.6593,11.4763,11.3864,11.6418,11.6825,11.7264,11.8575,11.8807,11.93,12.058,12.1887,12.2672,12.2672,12.3749,12.3953,12.276,12.3749,12.3895,12.2702,12.3749,12.3865,12.2702,12.2672,12.2672,12.2672,12.2672,12.3283,12.4419,12.4419,12.3837,12.2702,12.2702,12.3342,12.4419,12.4419,12.5146,12.6338,12.6338,12.6338,12.6397,12.6397,12.6397,12.6513,12.7821,12.8286,12.8286,12.8286,12.913,13.0032,12.8723,12.8286,12.8519,12.9858,13.0265,13.0003,12.8723,12.9305,12.9944,12.8665,13.1289,13.4414,13.4646,13.6675,13.8245,13.6917,13.8791,13.944,13.5311,13.4501,13.366,13.1053,13.0606,13.0606,13.0606,12.9412,12.853,12.8468,12.7151,12.6147,12.6123,12.6123,12.6123,12.6074,12.385,12.2409,12.2409,12.0108,11.9874,12.2313,12.24,12.24,12.24,12.24,12.1799,12.051,12.051,11.9216,11.6964,12.0655,12.1748,8.2166,8.6442,9.1727,9.5912,9.7815,10.0336,10.6909,11.0145,11.1921,11.2536,11.3815,11.5286,11.6593,11.6127,11.5868,11.6709,11.6069,11.5635,11.6016,11.6857,11.7555,11.7989,11.9184,11.9998,11.9998,12.0319,12.1161,12.2555,12.2178,12.2441,12.3779,12.3458,12.3079,12.2672,12.2672,12.2672,12.2672,12.2672,12.2818,12.3225,12.3225,12.2993,12.2672,12.2672,12.2818,12.3225,12.3225,12.3458,12.3837,12.3837,12.3837,12.3895,12.4709,12.5553,12.6397,12.6804,12.7007,12.7007,12.7007,12.724,12.753,12.7094,12.7007,12.7065,12.7472,12.7589,12.7909,12.9323,13.0064,13.03,12.9966,13.2173,13.4983,13.7097,13.8896,14.047,14.2016,14.1521,14.037,13.9042,13.7949,13.705,13.624,13.6103,13.5715,13.4767,13.4227,13.3558,13.263,13.1121,13.0129,13.0129,12.7729,12.5506,12.3785,12.2906,12.2449,12.2449,12.1734,12.1659,12.2424,12.075,11.9807,11.9807,11.8125,11.7057,11.6686,11.6686,11.6243,11.5546,11.6706,11.7065,8.4581,8.8665,9.2965,9.5673,9.734,9.967,10.4999,10.7453,10.9038,11.0491,11.1447,11.2553,11.4324,11.5836,11.6825,11.6825,11.6127,11.5635,11.5635,11.6302,11.6825,11.6825,11.7962,11.8575,11.8078,11.8458,11.9447,12.1073,12.087,12.1394,12.2906,12.276,12.2672,12.2672,12.2672,12.2672,12.2672,12.2672,12.2411,12.1945,12.2876,12.3342,12.3283,12.2818,12.2876,12.3283,12.2818,12.2672,12.2672,12.2672,12.2672,12.273,12.3458,12.4244,12.4972,12.5437,12.5611,12.5611,12.5611,12.596,12.628,12.5786,12.5611,12.5728,12.6164,12.6736,12.7508,12.9218,13.0433,13.1733,13.3855,13.5662,13.7573,14.0555,14.1432,14.217,14.4514,14.3156,14.1512,14.1512,14.0394,13.9386,13.9386,13.8465,13.7501,13.6602,13.5484,13.441,13.3555,13.2109,13.1188,13.1188,12.8975,12.6898,12.5366,12.4402,12.384,12.384,12.4741,12.5233,12.5233,12.3726,12.2835,12.2835,12.1347,11.9623,11.7758,11.8723,11.8175,11.6316,11.8275,11.9157,9.0728,9.3087,9.4627,9.6714,9.7678,9.9351,10.3972,10.3394,10.2897,10.6387,10.7168,10.7841,11.0168,11.38,11.6476,11.6651,11.6767,11.6767,11.6709,11.6825,11.6942,11.6942,11.7962,11.811,11.6942,11.7846,11.8575,11.8749,11.9882,12.0638,12.084,12.1887,12.2555,12.2555,12.2439,12.2381,12.2381,12.2555,12.2004,12.0754,12.3023,12.4128,12.4128,12.3225,12.3342,12.4244,12.3225,12.2702,12.2672,12.2672,12.2672,12.2672,12.2672,12.2672,12.2788,12.3865,12.4302,12.4302,12.4302,12.5088,12.5873,12.4651,12.4386,12.479,12.5985,12.7401,12.8701,12.8854,13.0907,13.4171,13.9296,14.0591,14.1315,14.4185,14.3814,14.331,14.4843,14.4011,14.3047,14.3047,14.1863,14.0854,14.0591,13.8356,13.647,13.6207,13.3774,13.1977,13.1846,13.0641,12.9852,12.9852,12.9852,12.9852,12.9852,12.7713,12.6314,12.6122,12.8277,12.9524,12.9524,12.936,12.9278,12.9278,12.9114,12.6727,12.2159,12.4532,12.3308,11.8828,12.3663,12.5875,9.058,9.3607,9.6842,9.7351,10.0525,10.3279,10.2287,10.4076,10.5922,10.5805,10.5781,10.598,10.6537,10.9761,11.3044,11.4996,11.6186,11.6476,11.5461,11.709,11.8311,11.8311,11.7729,11.7148,11.6884,11.6217,11.6598,11.8633,11.904,12.0114,12.2062,12.1538,12.1161,12.1161,12.0231,11.9707,11.9707,12.1654,12.2004,12.0696,12.1278,12.1568,12.1627,12.3255,12.3633,12.3109,12.3749,12.3516,12.2672,12.2672,12.2672,12.2672,12.2672,12.2672,12.2702,12.2934,12.3051,12.3051,12.3051,12.3283,12.3458,12.3167,12.4467,12.6122,12.6394,12.818,13.0551,13.2538,13.506,13.7481,13.8771,13.9123,13.9846,14.2696,14.3113,14.3573,14.6115,14.5523,14.4514,14.4514,14.3353,14.1666,13.9452,13.8531,13.6953,13.3555,13.2437,13.1583,13.051,13.005,12.9852,12.9852,12.9852,12.9852,12.9852,12.9314,12.8043,12.5821,12.6239,12.6585,12.6585,12.4745,12.3721,12.3721,12.1772,12.0184,11.9031,12.0859,12.1106,11.997,12.2236,12.329,9.4401,9.6406,9.8199,9.7058,9.9268,10.1371,9.9838,10.1196,10.2815,10.2699,10.2699,10.3222,10.5025,10.7027,10.9644,11.3399,11.4562,11.4996,11.4937,11.6074,11.7206,11.7788,11.7291,11.6825,11.6825,11.6159,11.6333,11.7788,11.9009,12.0289,12.1713,12.1654,12.1596,12.1596,12.0929,12.058,12.058,12.1945,12.2004,12.0754,12.1859,12.2383,12.2441,12.3225,12.3225,12.2672,12.2674,12.2325,12.1771,12.1771,12.212,12.2672,12.2672,12.2672,12.2672,12.2672,12.2672,12.2672,12.2672,12.2672,12.2672,12.2672,12.3613,12.5002,12.62,12.8463,13.1152,13.3778,13.649,13.8728,13.9386,14.0065,14.1117,14.3353,14.4362,14.5283,14.6838,14.6575,14.5786,14.5172,14.3814,14.2192,13.9934,13.8487,13.658,13.3555,13.2437,13.1451,13.005,12.9852,12.9852,12.9852,12.9852,12.9589,12.8952,12.8886,12.79,12.573,12.5599,12.5599,12.5599,12.4306,12.3587,12.3587,12.2164,12.0906,11.9794,12.1733,12.2136,12.106,12.3007,12.3912,9.8628,9.9361,9.9035,9.695,9.7138,9.7885,9.7885,9.7885,9.8176,9.9303,9.9536,10.0547,10.3862,10.4967,10.677,11.1048,11.2268,11.3108,11.4388,11.4937,11.5577,11.6709,11.6825,11.6825,11.6825,11.6825,11.6884,11.7116,11.9358,12.0812,12.0987,12.1887,12.2353,12.2353,12.2178,12.2236,12.2672,12.2469,12.1829,12.0754,12.2848,12.3837,12.3837,12.3225,12.2818,12.2613,12.148,12.087,12.0696,12.0521,12.1073,12.2062,12.2062,12.2206,12.2353,12.2353,12.2469,12.2672,12.2672,12.2672,12.2728,12.3116,12.353,12.438,12.6987,12.9652,13.2316,13.4524,13.6783,13.886,14.0131,14.1315,14.2587,14.3988,14.5458,14.651,14.6773,14.6838,14.6444,14.5237,14.3814,14.2324,14.0723,13.8421,13.6186,13.4542,13.3161,13.1911,13.0707,13.051,13.051,13.051,13.0115,12.9326,12.8118,12.7657,12.6802,12.5335,12.5007,12.4941,12.4941,12.4941,12.4941,12.4941,12.4941,12.3896,12.1819,12.4092,12.4162,12.2182,12.4458,12.5599,9.7501,9.8664,9.942,9.9035,9.9093,9.9245,9.9245,9.9245,9.9303,9.95,9.9536,9.971,10.0315,10.3106,10.5607,10.6363,10.9237,11.1738,11.305,11.5112,11.6593,11.6825,11.6825,11.6825,11.6825,11.6825,11.7291,11.8342,11.9882,12.1189,12.2322,12.148,12.0987,12.0987,11.994,12.0405,12.2672,12.1596,12.087,12.0696,12.1103,12.1278,12.1336,12.3255,12.3574,12.2643,12.2439,12.1713,12.0665,11.9533,11.9156,11.9358,11.9358,12.0056,12.0987,12.0987,12.1713,12.2672,12.2672,12.2672,12.3005,12.5213,12.7538,12.9854,13.2495,13.5193,13.7473,13.7894,13.8247,13.8663,13.886,13.9057,13.9583,14.1052,14.2498,14.3902,14.504,14.5369,14.5237,14.504,14.3814,14.206,13.9386,13.8531,13.7348,13.4739,13.4147,13.3884,13.3687,13.3621,13.3621,13.3621,13.1365,12.9787,12.9524,12.7308,12.527,12.385,12.2639,12.1935,12.1935,12.1935,12.1935,12.1935,12.1935,12.1762,12.1368,12.2991,12.3562,12.3228,12.4849,12.5599,9.742,9.8002,9.8467,9.8467,9.9013,9.9536,9.9536,9.9536,9.9536,9.9536,9.9536,9.971,10.0431,10.1478,10.3339,10.6877,10.8913,11.0717,11.2701,11.3981,11.4705,11.4705,11.5345,11.6069,11.6767,11.6825,11.7058,11.7671,11.9591,12.0987,12.1596,12.1713,12.1771,12.1771,12.1189,12.148,12.2643,12.2062,12.1771,12.1771,12.1771,12.1771,12.1829,12.2934,12.276,12.1596,12.1596,12.0898,11.9622,11.904,11.8749,11.8749,11.8749,11.9156,11.9622,11.9622,12.0056,12.0638,12.1364,12.1596,12.1935,12.3815,12.6253,12.8951,13.1595,13.5286,13.8597,13.8597,13.8005,13.7435,13.7435,13.8005,13.8794,13.9386,14.1249,14.3047,14.3705,14.3814,14.3616,14.2893,14.217,14.1052,13.8991,13.8597,13.7874,13.5812,13.5484,13.5199,13.441,13.3555,13.3029,13.3029,13.1102,12.9524,12.8755,12.6782,12.4987,12.3521,12.2817,12.2113,12.1343,12.1278,12.1278,12.1278,12.1278,12.1278,12.1278,12.1982,12.2245,12.2311,12.2968,12.3231,9.742,0.0,9.8954,9.8954,9.9478,9.9966,0.0,9.971,9.9536,9.9536,9.9536,9.9849,10.0838,10.0431,10.1734,10.7018,10.8414,10.9553,11.1771,11.2294,11.2701,11.3341,11.4271,11.5403,11.6709,11.6825,11.6825,11.6825,11.8951,12.0231,12.0231,12.148,12.2178,12.2178,12.3042,12.3189,12.265,12.2623,12.232,12.1771,12.2062,12.2178,12.2178,12.2555,12.212,12.1189,12.084,11.9998,11.8749,11.8458,11.811,11.7877,11.7877,11.8051,11.8284,11.8284,11.8517,11.8924,11.994,12.0231,12.0463,12.1771,12.4629,12.8128,13.151,13.4858,13.7611,13.7611,13.704,13.6404,13.6076,13.704,13.8005,13.7676,13.9802,14.1863,14.1863,14.2126,14.206,14.092,14.046,13.9846,13.8794,13.8597,13.8202,13.7106,13.6996,13.647,13.5002,13.3753,13.2898,13.2569,13.0904,12.9392,12.8295,12.6914,12.5599,12.4527,12.4132,12.3146,12.1343,12.1278,12.0949,12.0291,12.0225,12.0225,12.0225,12.062,12.0949,12.1278,12.1278,12.1278,0.0,10.0198,10.2979,10.2979,10.2164,10.1326,10.1326,10.0373,0.0,9.9536,9.9536,9.9536,9.9652,10.0547,10.185,10.356,10.5888,10.7924,10.9287,11.0426,11.2029,11.4446,11.4795,11.5403,11.6709,11.6825,11.6825,11.6825,11.8137,11.8924,11.8924,12.0172,12.087,12.087,12.4161,12.4821,12.2478,12.2452,12.1292,11.904,12.0289,12.087,12.087,12.212,12.2585,12.2411,12.1247,11.9998,11.8691,11.7439,11.6217,11.517,11.517,11.5868,11.6942,11.6942,11.7729,11.8807,11.8866,11.8924,11.9098,12.0405,12.5126,13.1338,13.6444,13.6431,13.4607,13.4607,13.5528,13.6141,13.4805,13.5549,13.6273,13.4936,13.6822,13.8926,13.8926,13.9912,14.0854,14.0789,13.9649,13.8728,13.8597,13.8597,13.8597,13.8465,13.8465,13.7961,13.647,13.6207,13.5615,13.4279,13.1562,12.9787,12.9721,12.8381,12.7526,12.7394,12.6125,12.4152,12.1409,12.1278,12.0028,11.7181,11.7116,11.7116,11.7181,11.8628,12.0009,12.1278,12.1278,12.1278,9.623,9.9313,10.2048,10.121,10.121,10.1443,10.1443,10.0431,9.9536,9.9536,9.9536,9.9536,9.9536,9.9966,10.1501,10.5248,10.6644,10.8306,11.1157,11.1887,11.2585,11.3574,11.4388,11.5054,11.5577,11.5635,11.5635,11.5635,11.6799,11.7555,11.7555,12.0241,12.0755,11.8392,12.0402,12.1823,12.2435,12.2435,12.2768,12.3345,12.389,12.4072,12.4133,12.4618,12.4473,12.3695,12.3219,12.1838,0.0,11.9416,11.7962,11.6101,11.6101,11.5868,11.5635,11.5635,11.5926,11.6423,11.7264,11.856,12.0071,12.1404,12.4513,12.8503,13.2283,13.384,13.4344,13.4344,13.4016,13.3555,13.2963,13.3292,13.3753,13.4213,13.5857,13.7501,13.84,13.9057,13.9386,13.9386,13.8991,13.8597,13.8597,13.8597,13.8597,13.8597,13.783,13.704,13.6536,13.4826,13.3424,13.2898,13.1036,12.9852,12.9852,12.8492,12.7328,12.6388,12.5053,12.3363,12.1343,12.1278,12.0357,11.8299,11.8299,11.7773,11.6853,11.7444,11.7971,11.8562,11.9483,11.9943,9.6986,9.9488,10.185,10.0977,10.1443,10.1966,10.1559,10.078,10.0024,9.9594,9.9536,9.9536,9.9536,9.9536,10.0954,10.5364,10.6062,10.7259,11.0666,11.148,11.1796,11.1796,11.3225,11.4271,11.4271,11.4647,11.4879,11.4879,11.5694,11.6217,11.6217,11.9068,11.9677,11.7471,11.9789,12.1562,12.2482,12.324,12.4122,12.4977,12.5388,12.5574,12.5574,12.5985,12.5725,12.4934,12.4934,12.3318,12.0659,12.107,11.9529,11.6825,11.6825,11.6302,11.5461,11.5054,11.4879,11.4996,11.5868,11.7854,12.0079,12.1438,12.4124,12.727,12.9515,13.1472,13.2877,13.2877,13.2437,13.1911,13.1451,13.1977,13.2832,13.3424,13.5089,13.6733,13.7698,13.8268,13.8597,13.8597,13.8597,13.8597,13.8597,13.8597,13.8465,13.8005,13.7106,13.6076,13.5155,13.3226,13.178,13.1385,13.0444,12.9655,12.9195,12.8249,12.7131,12.5664,12.4658,12.3297,12.1343,12.1278,12.0357,11.8431,11.8431,11.7623,11.6111,11.659,11.659,11.6177,11.7708,11.8431,9.9536,10.1443,10.341,10.341,10.341,10.306,10.1734,10.1443,10.1094,9.9791,9.9536,9.9536,9.9536,9.9536,10.0373,10.2979,10.341,10.4317,10.6935,10.8414,10.9229,10.9229,11.1447,11.2908,11.2908,11.4097,11.4821,11.4879,11.4879,11.4879,11.4879,11.6122,11.7412,11.8564,12.348,12.4965,12.254,12.4943,12.4965,12.2564,12.3862,12.4461,12.4523,12.5671,12.622,12.6195,12.6195,12.4014,12.0706,12.1945,12.0275,11.6906,11.6906,11.6879,11.6704,11.5397,11.4906,11.4879,11.4906,11.6513,11.8819,12.0154,12.4065,12.8531,12.9827,13.0046,12.9852,12.9852,13.0904,13.1648,13.0247,13.2022,13.3884,13.2372,13.43,13.647,13.647,13.7567,13.8597,13.8597,13.8597,13.8597,13.8597,13.8575,13.8071,13.6667,13.6404,13.5352,13.2372,13.1977,13.1451,12.9984,12.9832,12.9281,12.7854,12.7677,12.7065,12.5664,12.5533,12.4218,12.1409,12.1278,11.9896,11.6918,11.6853,11.6111,11.4712,11.6111,11.6045,11.473,11.6129,11.6787,9.9035,10.0722,10.2048,10.2048,10.2048,10.1908,10.1559,10.0722,9.9966,9.9617,9.9536,9.9536,9.9536,9.9536,10.0082,10.1734,10.2048,10.2955,10.5573,10.7027,10.8215,10.9112,11.06,11.1564,11.1564,11.1913,11.2553,11.3457,11.433,11.4879,11.4879,11.7695,11.991,12.1276,12.2758,12.4022,12.5054,12.5787,12.666,12.7693,12.8038,12.8233,12.8276,12.8621,12.8328,12.7493,12.7493,12.6352,12.4493,12.4924,12.3891,12.2173,12.2173,12.0015,11.6891,11.7318,11.5777,11.3917,11.6575,11.9182,12.1646,12.3774,12.6691,12.9447,12.9817,12.9886,12.9852,12.9852,13.0181,13.0378,12.9984,13.051,13.1562,13.3226,13.4279,13.5528,13.7567,13.8268,13.8597,13.8597,13.8597,13.8597,13.8597,13.7742,13.6931,13.6536,13.4694,13.2963,13.2109,13.1122,13.0313,12.9918,12.8952,12.8183,12.7723,12.5862,12.4527,12.4067,12.31,12.2198,12.1343,12.1278,12.0404,11.8497,11.8497,11.7229,11.4712,11.5125,11.4599,11.317,11.3648,11.4354,9.8221,9.9303,10.0024,10.0547,10.1094,10.121,10.014,10.0082,10.0024,9.8954,9.9129,9.9536,9.9536,9.9536,9.9966,10.1268,10.1443,10.2199,10.4293,10.5689,10.6794,10.7633,10.8797,10.9728,11.0251,11.0309,11.0833,11.2062,11.3768,11.4706,11.4706,11.6773,11.8811,12.0652,12.1661,12.2938,12.445,12.5995,12.7524,12.9018,12.9589,12.9852,12.9852,12.9852,12.946,12.8815,12.8815,12.7798,12.6177,12.6696,12.5967,12.4389,12.4389,12.2515,11.9805,11.9403,11.7837,11.6108,11.7765,12.0404,12.3333,12.4803,12.661,12.8274,12.8821,12.9018,12.9129,12.9721,12.9852,12.9984,13.0576,13.0247,13.0641,13.3621,13.5178,13.6493,13.8202,13.8597,13.8597,13.8597,13.8597,13.84,13.783,13.704,13.6076,13.4892,13.3161,13.178,13.1188,13.0378,12.9852,12.9852,12.8558,12.7263,12.6125,12.4395,12.3212,12.2639,12.1785,12.1278,12.1278,12.1278,12.0883,12.0028,12.0009,11.8825,11.6506,11.6506,11.5388,11.3433,11.3433,11.3565,9.7094,9.7479,9.7885,9.9071,10.0315,10.0605,9.8118,9.942,10.0431,9.806,9.8525,9.9361,9.9478,9.9536,9.9908,10.1094,10.1385,10.1908,10.3235,10.4526,10.5374,10.549,10.6561,10.7749,10.8938,10.9054,10.9578,11.0775,11.278,11.4048,11.4144,11.4659,11.6112,11.8578,12.0991,12.2186,12.2186,12.5728,12.7526,12.7526,12.88,12.9458,12.9458,12.9458,12.9458,12.9458,12.9589,12.8408,12.6379,12.7702,12.6914,12.4888,12.4888,12.4684,12.4122,12.1707,12.0595,12.0022,11.8931,12.0852,12.3831,12.411,12.481,12.5796,12.7131,12.7526,12.7789,12.9063,12.9458,12.9721,13.1056,13.0465,13.0181,13.3029,13.5901,13.8005,13.8202,13.8202,13.8202,13.8202,13.8202,13.7808,13.647,13.6141,13.5089,13.2372,13.1846,13.132,13.005,12.9852,12.9787,12.9655,12.836,12.6408,12.3653,12.3343,12.2686,12.1343,12.1278,12.1278,12.1278,12.1278,12.1278,12.1278,12.1278,12.062,11.9154,11.9154,11.7689,11.4862,11.4712,11.4007,9.5844,9.6884,9.7631,9.7944,9.8954,9.9536,9.7944,9.8002,9.8234,9.7711,9.7827,9.8315,9.9303,9.9536,9.9594,9.9908,10.078,10.1908,10.3235,10.4526,10.5723,10.6736,10.7085,10.74,10.7691,10.7691,10.824,10.952,11.0077,11.0755,11.1569,11.6148,12.0379,12.385,12.4508,12.475,12.475,12.5623,12.6059,12.6059,12.6322,12.6519,12.6519,12.6519,12.6519,12.6565,12.7637,12.7855,12.7472,12.8914,12.9144,12.8657,12.8657,12.6856,12.4286,12.473,12.2284,11.9197,12.1843,12.2569,12.2635,12.4574,12.5418,12.5664,12.5927,12.6059,12.6125,12.6388,12.6519,12.6585,12.6848,12.6716,12.6914,12.8709,13.134,13.3753,13.4981,13.5244,13.5244,13.5244,13.5244,13.5133,13.4805,13.3753,13.27,13.2109,13.1056,13.0181,12.9918,12.9852,12.9392,12.8315,12.6914,12.5335,12.3606,12.2376,12.1606,12.1343,12.1278,12.1278,12.1278,12.1278,12.1278,12.1278,12.1278,12.062,11.9154,11.9154,11.8234,11.6327,11.5191,11.4515,9.4564,9.5335,9.5953,9.6615,9.7675,9.8257,9.7,9.764,9.8199,9.7,9.7675,9.8547,9.8606,9.9129,9.9536,9.9536,10.0605,10.1908,10.3235,10.4526,10.5863,10.7143,10.7284,10.7284,10.7284,10.7284,10.7575,10.8273,10.8331,10.8514,10.9103,11.426,11.9137,12.3416,12.3494,12.3494,12.3494,12.4218,12.4527,12.4527,12.527,12.5599,12.5599,12.5599,12.5599,12.5599,12.6408,12.6671,12.6736,12.7506,12.8209,12.8821,12.8821,12.8036,12.6929,12.6887,12.5178,12.2978,12.3536,12.3734,12.3724,12.4349,12.5007,12.5467,12.4724,12.5053,12.573,12.6408,12.6125,12.5862,12.7242,12.6585,12.6125,12.8229,12.9873,13.1365,13.2898,13.3818,13.4344,13.4344,13.4344,13.4081,13.3358,13.2503,13.178,13.1056,13.0313,12.9852,12.9852,12.9281,12.8591,12.7965,12.5904,12.4258,12.3636,12.2224,12.1278,12.1278,12.1278,12.1278,12.1278,12.1278,12.1278,12.1278,12.1278,12.0949,12.0206,12.0206,11.9417,11.7905,11.7163,11.6045,9.3183,9.3728,9.4135,9.5226,9.6382,9.7,9.6019,9.7393,9.836,9.6521,9.7778,9.8896,9.806,9.878,9.9536,9.9536,10.0605,10.1908,10.3235,10.4526,10.5863,10.7143,10.7284,10.7284,10.7284,10.7284,10.7284,10.7284,10.7284,10.7284,10.7284,11.1382,11.5659,11.9947,12.05,12.0913,12.1278,12.2442,12.308,12.308,12.4283,12.4809,12.4809,12.4809,12.4809,12.4875,12.5072,12.5184,12.5204,12.5467,12.6256,12.7328,12.7328,12.8032,12.8998,12.8052,12.7526,12.7065,12.4941,12.479,12.5335,12.3935,12.4067,12.4678,12.4001,12.4461,12.5467,12.6934,12.6322,12.5776,12.8406,12.7157,12.5842,12.8472,12.9326,12.9787,13.0991,13.2437,13.3555,13.3555,13.3555,13.3161,13.1846,13.1648,13.1188,13.005,12.9852,12.9852,12.9852,12.886,12.801,12.7725,12.5663,12.4173,12.3854,12.252,12.1591,12.1297,12.1278,12.1278,12.1278,12.1278,12.1278,12.1278,12.1278,12.1278,12.1278,12.1278,12.0686,11.9549,11.9286,11.782,9.1824,9.3009,9.3903,9.4077,9.5146,9.6019,9.5866,9.6077,9.6521,9.721,9.7595,9.8118,9.9071,9.942,9.9536,9.9536,10.0605,10.1908,10.3235,10.4526,10.5863,10.7143,10.7284,10.7284,10.7284,10.7284,10.7284,10.7284,10.7284,10.7284,10.7284,10.9814,11.2504,11.5146,11.7214,11.925,12.1258,12.1475,12.1606,12.1606,12.1804,12.1869,12.1869,12.1869,12.1869,12.1935,12.3146,12.3738,12.3804,12.5053,12.5664,12.5862,12.5862,12.5993,12.6256,12.7328,12.6934,12.5993,12.6868,12.6453,12.5335,12.3935,12.2686,12.2264,12.4612,12.4527,12.4001,12.5467,12.479,12.4132,12.573,12.4921,12.4132,12.573,12.7111,12.8052,12.8249,12.9413,13.0444,13.0444,13.0444,13.0378,13.0181,13.0115,13.005,12.9832,12.9852,12.9852,12.9852,12.9849,12.8958,12.6513,12.7226,12.6735,12.4083,12.3595,12.2819,12.1392,12.1278,12.1278,12.1278,12.1278,12.1278,12.1278,12.1278,12.1278,12.1278,12.1278,12.1212,12.1014,11.9746,11.8938,9.0487,9.1845,9.2776,9.2776,9.3786,9.4739,9.4739,9.5342,9.5961,9.6521,9.7094,9.7769,9.8292,9.8431,9.8431,9.8431,10.014,10.1675,10.228,10.47,10.6678,10.7226,10.7284,10.7284,10.7284,10.7284,10.7284,10.7284,10.7284,10.7861,10.921,11.1459,11.3862,11.6168,11.8524,12.0221,12.1258,12.1278,12.1278,12.1278,12.1278,12.1278,12.1278,12.1278,12.1278,12.1343,12.1982,12.2245,12.2311,12.2902,12.3626,12.4395,12.4395,12.4875,12.5664,12.6256,12.6125,12.5533,12.5401,12.5401,12.5335,12.3935,12.3541,12.3757,12.4198,12.4527,12.4921,12.6408,12.573,12.4987,12.6408,12.573,12.479,12.5401,12.6651,12.7723,12.7723,12.8821,12.9852,12.9852,12.9852,12.9852,12.9852,12.9852,12.9852,12.9852,12.9852,12.993,13.0049,12.9501,12.8991,12.8911,12.7927,12.7154,12.6758,12.4966,12.3489,12.2777,12.1836,12.1278,12.1278,12.1278,12.0949,12.0075,12.0075,11.9699,11.8778,11.8778,11.8778,11.8778,11.9023,11.8694,8.9149,9.0429,9.1475,9.1475,9.2427,9.3495,9.3786,9.4622,9.5342,9.5342,9.6266,9.7036,9.6687,9.692,9.7152,9.7152,9.9035,10.0605,10.0896,10.3769,10.6038,10.6736,10.6794,10.691,10.7259,10.7284,10.7168,10.6852,10.7109,10.8079,10.9814,11.212,11.4497,11.686,11.919,12.0674,12.1278,12.1278,12.1278,12.1278,12.1278,12.1278,12.1278,12.1278,12.1278,12.1278,12.1278,12.1278,12.1278,12.1278,12.1916,12.2883,12.2883,12.356,12.4546,12.4875,12.5053,12.479,12.3409,12.3606,12.4349,12.3672,12.3869,12.4415,12.4067,12.4461,12.5335,12.6736,12.6125,12.5467,12.7263,12.6671,12.5664,12.6059,12.7177,12.8183,12.7789,12.8821,12.9852,12.9852,12.9852,12.9852,12.9852,12.9852,12.9852,12.9852,12.9852,12.9789,12.9696,12.9194,12.9357,13.049,12.8856,12.8038,12.902,12.6694,12.4983,12.4505,12.2855,12.1788,12.139,12.0969,12.0075,11.8628,11.8562,11.7971,11.6853,11.6853,11.6853,11.6853,11.8036,11.7905,8.7774,8.9091,9.0117,9.0117,9.1068,9.2369,9.3612,9.3982,9.3961,9.3961,9.503,9.5553,9.431,9.5088,9.5925,9.5925,9.6942,9.8176,9.942,10.0861,10.2722,10.5141,10.5432,10.5922,10.7168,10.7284,10.6794,10.5548,10.662,10.7333,10.748,10.9696,11.2052,11.4409,11.6777,11.907,12.1258,12.1278,12.1278,12.1278,12.1278,12.1278,12.1278,12.1278,12.1278,12.1278,12.1278,12.1278,12.1278,12.1278,12.1343,12.1409,12.1409,12.1475,12.1672,12.3015,12.3541,12.3343,12.1916,12.1475,12.1738,12.3015,12.2574,12.2001,12.4678,12.4593,12.3869,12.527,12.4658,12.4198,12.6999,12.6671,12.5927,12.7263,12.8689,12.9326,12.7986,12.8821,12.9852,12.9852,12.9852,12.9852,12.9852,12.9852,12.9852,12.9852,12.9852,12.9459,12.8372,12.9868,13.0565,12.933,13.0452,13.0712,12.9209,12.8932,12.8047,12.6316,12.466,12.3114,12.1686,12.0106,11.8562,11.6984,11.6918,11.6918,11.6853,11.6853,11.6853,11.6853,11.6918,11.6918,8.6474,8.7774,8.8762,8.8762,8.9731,9.0815,9.1301,9.2078,9.2913,9.3728,9.3612,9.367,9.4913,9.4135,9.3612,9.4448,9.6302,9.7769,9.8176,10.0861,10.3095,10.4026,10.4142,10.4317,10.4724,10.4782,10.4608,10.4142,10.534,10.6704,10.821,11.133,11.4147,11.6441,11.8786,12.0461,12.1278,12.1278,12.1278,12.1278,12.1278,12.1278,12.1278,12.1278,12.1278,12.1278,12.1278,12.1278,12.1278,12.1278,12.1278,12.1278,12.1278,12.1278,12.1343,12.185,12.2048,12.1982,12.1475,12.1278,12.1343,12.1916,12.1719,12.1672,12.3606,12.3869,12.3738,12.5184,12.5184,12.5072,12.6059,12.5927,12.573,12.619,12.6716,12.6959,12.6453,12.6716,12.7374,12.8295,12.8492,12.8755,12.9721,12.9852,12.9852,12.9852,12.9948,13.0068,13.0088,13.0771,13.107,13.0717,13.1226,13.1318,13.0725,12.9654,12.8774,12.8123,12.6449,12.4303,12.1758,12.1112,11.9086,11.5556,11.5454,11.4993,11.4109,11.4109,11.4109,11.4109,11.5011,11.5454,8.535,8.6416,8.7425,8.7425,8.8393,8.9419,8.9885,9.064,9.1438,9.1866,9.1613,9.1554,9.239,9.1845,9.1708,9.3009,9.5313,9.7152,9.7537,10.0198,10.228,10.2688,10.2746,10.292,10.3351,10.3037,10.2746,10.2746,10.4642,10.652,10.8041,11.2372,11.5473,11.7024,11.9804,12.1278,12.1278,12.1278,12.1278,12.1278,12.1278,12.1278,12.1278,12.1278,12.1278,12.1278,12.1278,12.1278,12.1278,12.1278,12.1278,12.1278,12.1278,12.1278,12.1278,12.1278,12.1278,12.1278,12.1278,12.1278,12.1278,12.1278,12.1278,12.1475,12.2442,12.2686,12.2883,12.3889,12.4152,12.4218,12.4744,12.4856,12.4987,12.5467,12.5599,12.5599,12.5599,12.5599,12.5862,12.6782,12.6999,12.7308,12.8274,12.8406,12.8537,12.9084,12.9377,12.9912,13.1078,13.1284,13.1389,13.1566,13.1599,13.1599,13.1599,13.0576,12.9936,12.9936,12.7685,12.503,12.1925,12.0748,11.8256,11.4061,11.4467,11.4007,11.253,11.3056,11.2991,11.2596,11.3499,11.3959,8.44,8.5001,8.6009,8.6067,8.6997,8.8355,8.9652,9.0001,8.9673,8.8355,8.9091,8.9187,8.6707,8.8257,9.035,9.165,9.4077,9.6172,9.7362,9.8664,9.9966,10.1268,10.1443,10.1931,10.3177,10.2164,10.1408,10.1477,10.4751,10.6672,10.6761,11.2389,11.5592,11.5592,11.9217,12.1212,12.1212,12.1278,12.1278,12.1278,12.1278,12.1278,12.1278,12.1278,12.1278,12.1278,12.1278,12.1278,12.1278,12.1278,12.1278,12.1278,12.1278,12.1278,12.1278,12.1278,12.1278,12.1278,12.1278,12.1278,12.1278,12.1278,12.1278,12.1278,12.1278,12.1278,12.1278,12.1278,12.1278,12.1606,12.3015,12.339,12.3738,12.5119,12.5467,12.5467,12.5467,12.5467,12.5467,12.5467,12.5533,12.5533,12.5599,12.5599,12.6079,12.7474,12.795,12.8913,13.0953,13.1442,13.1599,13.1599,13.1599,13.1599,13.1599,13.1599,13.1599,13.1599,12.8494,12.5275,12.2283,11.9035,11.5832,11.2672,11.3977,11.4007,11.253,11.4007,11.3941,11.253,11.253,11.253,8.1317,8.2441,8.3624,8.4478,8.5698,8.6997,8.8297,8.9303,8.9885,8.9536,8.9033,8.8684,8.8896,8.8742,8.9053,9.035,9.2718,9.4855,9.6113,9.8163,9.9675,10.0024,10.0082,10.0198,10.0547,10.0256,10.0753,10.2319,10.422,10.6018,10.7613,11.1705,11.3956,11.3956,11.7745,11.9746,11.9746,12.0751,12.1278,12.1278,12.1278,12.1278,12.1278,12.1278,12.1278,12.1278,12.1278,12.1278,12.1278,12.1278,12.1278,12.1278,12.1278,12.1278,12.1278,12.1278,12.1278,12.1278,12.1278,12.1278,12.1278,12.1278,12.1278,12.1278,12.1278,12.1278,12.1278,12.1278,12.1278,12.1409,12.1785,12.185,12.1982,12.2396,12.2461,12.2461,12.2461,12.2461,12.2771,12.3804,12.3981,12.433,12.5401,12.5599,12.6156,12.7758,12.8474,12.9395,13.0975,13.1442,13.1599,13.1599,13.1599,13.1599,13.1599,13.1599,13.1599,13.1599,12.9651,12.712,12.3924,12.0719,11.7503,11.4327,11.4551,11.4007,11.253,11.4007,11.3941,11.253,11.253,11.253,8.0772,8.1431,8.178,8.248,8.3178,8.4225,8.6106,8.7056,8.7733,8.8257,8.8219,8.8123,8.8315,8.8626,8.9265,9.0603,9.2543,9.431,9.5633,9.7044,9.8185,9.8664,9.8279,9.7953,9.7953,9.8431,9.9249,10.0527,10.3597,10.5903,10.7191,11.1443,11.3889,11.3889,11.668,11.8168,11.8168,11.9023,11.9436,11.9436,11.9436,11.9436,11.9436,11.9436,11.9436,11.9436,11.9436,11.9831,12.0423,12.1014,12.0949,12.0535,12.1719,12.1804,12.1212,12.062,12.0817,12.1278,12.1278,12.1278,12.1278,12.1278,12.1278,12.1278,12.1278,12.1278,12.1278,12.1278,12.1278,12.1278,12.1278,12.1278,12.1278,12.1278,12.1278,12.1278,12.1278,12.1278,12.1541,12.2376,12.2554,12.2837,12.3626,12.4387,12.5392,12.7082,12.768,12.8772,13.1094,13.1483,13.1599,13.1599,13.1599,13.1599,13.1599,13.1599,13.1599,13.1599,12.9517,12.7127,12.4518,12.1431,11.8183,11.4935,11.5459,11.4427,11.1675,11.3104,11.2776,11.0737,11.0737,11.0737,8.1489,8.1121,8.0132,8.0423,8.0481,8.1121,0.0,8.4032,8.4361,8.564,8.6939,8.7541,8.6532,8.8315,9.035,9.1533,9.2834,9.4135,9.5437,9.575,9.6172,9.7036,9.6208,9.5692,9.5808,9.7011,9.7793,9.8058,10.3154,10.6326,10.6586,11.1633,11.4467,11.4467,11.5848,11.659,11.659,11.6721,11.6853,11.6853,11.6853,11.6853,11.6853,11.6853,11.6853,11.6853,11.6853,11.7642,11.9023,12.0272,12.0028,11.9154,12.17,12.1916,12.062,11.9351,11.968,12.0817,12.0817,12.0883,12.108,12.108,12.1146,12.1278,12.1278,12.1278,12.1278,12.1278,12.1278,12.1278,12.1278,12.1278,12.1278,12.1278,12.1278,12.1278,12.1278,12.1278,12.1278,12.1278,12.1278,12.1278,12.1278,12.252,12.416,12.6057,12.6683,12.8068,13.1199,13.1599,13.1599,13.1599,13.1599,13.1599,13.1599,13.1599,13.1528,13.1385,12.8576,12.6185,12.4529,12.1415,11.8284,11.5227,11.6332,11.4778,11.0408,11.1675,11.0934,10.827,10.827,10.8204,0.0,0.0,0.0,0.0,0.0,0.0,0.0,8.277,8.31,8.4303,8.5582,8.6707,8.7541,8.8975,9.0059,9.035,9.1475,9.2776,9.4077,9.5146,9.5495,9.4695,9.4426,9.4681,9.575,9.7446,9.9237,10.1013,10.4763,10.7707,10.9468,11.1728,11.2973,11.2973,11.4336,11.5107,11.5107,11.6243,11.6853,11.6853,11.6853,11.6853,11.6853,11.6853,11.6853,11.6853,11.6853,11.6984,11.7313,11.7576,11.751,11.7313,11.7905,11.7905,11.7642,11.7379,11.7444,11.7708,11.7708,11.8497,11.9549,11.9549,12.0338,12.1278,12.1278,12.1278,12.1278,12.1278,12.1278,12.1278,12.1278,12.1278,12.1278,12.1278,12.1278,12.1278,12.1278,12.1278,12.1278,12.1278,12.1278,12.1278,12.1278,12.1601,12.2801,12.5878,12.8777,13.0834,13.1521,13.1599,13.1599,13.1599,13.1599,13.1599,13.1599,13.1599,13.1015,12.9802,12.7993,12.6239,12.4658,12.1445,11.8851,11.695,11.5851,11.3692,11.0408,11.0671,10.9931,10.827,10.827,10.763,0.0,0.0,0.0,0.0,0.0,0.0,0.0,0.0,0.0,0.0,0.0,8.4652,8.5893,0.0,8.8489,8.9768,9.0524,9.1417,9.2739,9.3495,9.367,9.303,9.2892,9.3571,9.5194,9.681,9.8663,10.0838,10.4114,10.6545,10.7622,11.0097,11.1478,11.1478,11.2841,11.3631,11.3631,11.4354,11.4701,11.4701,11.4701,11.4701,11.4701,11.4701,11.4701,11.4701,11.5454,11.534,11.4766,11.5472,11.5782,11.5651,11.4946,11.5143,11.5782,11.5782,11.6177,11.6853,11.6853,11.7313,11.7971,11.7971,11.8497,11.9239,12.0009,12.0206,12.0357,12.108,12.1278,12.1278,12.1278,12.1278,12.1278,12.1278,12.1278,12.1278,12.1278,12.1278,12.1278,12.1278,12.1278,12.1278,12.1278,12.1976,12.34,12.596,12.8615,13.0644,13.1508,13.1599,13.1015,12.9433,12.929,12.929,12.929,12.929,12.9575,13.0373,12.822,12.6209,12.4677,12.2234,11.9465,11.6389,11.5482,11.2811,10.8238,10.8238,10.7515,10.6117,10.6117,10.5723,0.0,0.0,0.0,0.0,0.0,0.0,0.0,0.0,0.0,0.0,0.0,0.0,0.0,0.0,0.0,8.8896,8.9478,9.0059,9.1359,9.138,9.141,9.2059,9.2121,9.3045,9.5235,9.6757,9.829,9.9941,10.3254,10.5193,10.5193,10.8259,11.0014,11.0014,11.1412,11.2136,11.2136,11.2399,11.253,11.253,11.253,0.0,11.253,11.253,11.253,11.2596,11.3762,11.3631,11.2662,11.381,11.427,11.4139,11.2991,11.3236,11.427,11.427,11.4993,11.5998,11.5998,11.6195,11.6392,11.6392,11.659,11.705,11.8299,11.8694,0.0,12.0488,12.0883,12.0949,12.1212,12.1278,12.1278,12.1278,12.1278,12.1278,12.1278,12.1278,12.1278,12.1278,12.1278,12.1278,12.1278,12.2964,12.4678,12.5779,12.7974,12.9978,13.1014,13.1385,13.0587,12.8064,12.785,12.785,12.785,12.6709,12.7493,13.0957,12.7065,12.3926,12.2381,12.1001,11.8398,11.4422,11.3764,11.1194,10.6566,10.5988,10.5148,10.3964,10.2149,10.1947,0.0,0.0,0.0,0.0,0.0,0.0,0.0,0.0,0.0,0.0,0.0,0.0,0.0,0.0,0.0,0.0,8.7521,8.8762,9.0059,8.9207,8.9548,9.2484,9.28,9.4062,9.7295,9.9308,10.0517,10.073,10.4027,10.6029,10.6029,10.7576,0.0,0.0,0.0,11.0671,11.0671,11.1938,11.253,11.253,11.253,11.253,11.253,11.253,11.253,11.253,11.2728,11.2728,11.2548,11.2728,11.2793,11.2793,11.2596,11.2662,11.2793,11.2793,11.2925,11.3056,11.3056,0.0,0.0,11.4909,11.5782,11.6853,11.705,11.7116,11.7444,11.8957,11.9417,11.968,12.0949,12.1278,12.1278,12.1278,12.1278,12.1278,12.1278,12.1278,12.1278,12.1278,12.1278,12.1278,12.1278,12.3933,12.5625,12.4448,12.8269,13.0917,12.9705,13.073,13.1457,13.1087,13.11,0.0,13.11,12.5865,12.464,12.9219,12.1274,11.571,11.4175,11.3878,11.2901,11.0962,10.8336,10.7352,10.8013,10.5487,10.4161,10.3783,9.5614,9.4631,0.0,0.0,0.0,0.0,0.0,0.0,0.0,0.0,0.0,0.0,0.0,0.0,0.0,0.0,0.0,0.0,8.5408,8.6401,8.8057,8.8448,8.9673,9.289,9.3236,9.4296,9.6904,9.8677,10.0124,10.1254,10.3552,10.4885,10.4885,10.6266,10.7055,10.7055,10.8419,10.9142,10.9142,11.0606,11.1329,11.1346,11.2136,11.253,11.253,11.253,11.253,11.253,11.253,11.253,11.253,11.253,11.253,11.2399,0.0,0.0,0.0,0.0,11.1807,11.253,11.253,11.2925,11.3433,11.3433,11.3828,11.4485,11.5322,11.5585,11.5914,11.7379,11.7773,11.7905,11.8562,11.8713,11.891,11.9812,12.0075,12.0272,12.1146,12.1278,12.1278,12.1278,12.1278,0.0,12.2594,12.4746,12.6477,12.6869,12.9625,13.1385,13.073,13.1171,13.0873,12.9076,12.8933,12.8933,12.8933,12.6423,0.0,0.0,0.0,11.9871,11.8219,11.6435,0.0,0.0,0.0,10.5853,10.2843,9.8919,0.0,0.0,9.4949,9.4156,0.0,0.0,0.0,0.0,0.0,0.0,0.0,0.0,0.0,0.0,0.0,0.0,0.0,0.0,0.0,0.0,8.3198,8.4193,8.5758,8.7053,8.9016,9.2238,9.3347,9.4633,9.6653,9.8157,9.9691,10.1501,10.2698,10.3569,10.3964,10.5016,10.5559,10.5559,10.6923,10.7695,10.7695,10.9076,10.9799,10.9799,11.0869,11.1412,11.1412,11.1412,11.1412,11.1412,11.1412,11.1412,11.1412,11.1412,11.1412,11.1132,10.9076,10.827,10.8401,10.947,11.0474,11.1412,11.1412,11.1412,11.146,11.1807,11.1938,11.2267,11.3678,11.4073,11.4402,11.5848,11.6243,11.6308,11.6721,11.6853,11.7116,11.8234,11.8497,11.8825,11.9831,12.0423,12.0751,12.0751,12.0357,12.0611,12.2224,12.432,12.6226,12.7465,12.9905,13.1457,13.1028,13.1314,13.073,12.8434,12.8207,12.8207,12.8207,12.6637,12.6495,12.8492,12.4022,12.1168,12.0775,11.6934,11.3821,11.1618,10.8976,10.4939,0.0,0.0,0.0,0.0,0.0,0.0,0.0,0.0,0.0,0.0,0.0,0.0,0.0,0.0,0.0,0.0,0.0,0.0,0.0,0.0,0.0,0.0,0.0,0.0,8.3047,8.4336,8.6541,9.0077,9.2936,9.5335,9.7173,9.8676,10.0137,10.1531,10.1728,10.2386,10.3882,10.4013,10.4079,10.4079,10.5493,10.6217,10.6217,10.763,10.8336,10.8336,10.8401,10.8401,10.8401,10.8401,10.8401,10.8401,10.8401,10.8401,10.8401,10.8401,10.8401,10.8401,10.8336,10.827,10.827,10.8336,10.8401,10.8401,10.8401,10.8401,10.8664,10.9996,11.0474,11.0737,11.2201,11.2596,11.2925,11.4336,11.4712,11.5059,11.644,11.6853,11.6853,11.6918,11.6918,11.6918,11.6984,11.8168,11.922,11.922,11.7971,11.7463,11.9032,12.2083,12.4262,12.4199,12.8385,0.0,12.9504,13.0659,13.1528,13.1457,13.1457,13.1457,13.1457,12.5794,12.3557,12.6767,11.8302,11.4449,11.7434,11.1606,10.8312,10.8209,10.6787,10.4383,10.0987,0.0,0.0,0.0,0.0,0.0,0.0,0.0,0.0,0.0,0.0,0.0,0.0,0.0,0.0,0.0,0.0,0.0,0.0,0.0,0.0,0.0,0.0,0.0,0.0,8.7165,8.9153,9.0596,9.2478,9.3487,9.3136,9.5284,9.6913,9.7373,9.9148,10.0463,10.0973,10.1909,10.2435,10.2435,10.3898,10.4687,10.4687,10.6134,10.6857,10.6857,10.7827,10.827,10.827,10.827,10.827,10.827,10.827,10.827,10.827,10.827,10.7152,10.546,10.546,10.546,10.5526,10.6529,10.6857,10.6989,10.7958,10.827,10.8336,10.8862,10.901,10.9076,10.9602,11.0408,11.1197,11.1724,11.2513,11.3367,11.3846,11.3977,11.424,11.5191,11.5388,11.5651,11.659,11.7247,11.7642,11.7642,11.5687,11.4789,11.7457,12.1431,12.4231,12.4402,12.8476,13.18,13.2287,13.1943,13.2014,13.3072,13.2228,13.1599,13.1599,12.9588,12.7506,12.5521,12.1286,11.8005,11.5924,11.2808,11.1666,11.2654,11.0184,10.6339,10.1068,0.0,0.0,0.0,0.0,0.0,0.0,0.0,0.0,0.0,0.0,0.0,0.0,0.0,0.0,0.0,0.0,0.0,0.0,0.0,0.0,0.0,0.0,0.0,0.0,0.0,0.0,9.0903,9.2244,0.0,9.109,9.2654,9.3954,9.448,9.6174,9.7686,9.8688,9.9624,10.0347,10.0857,10.237,10.3159,10.3159,10.4622,10.5345,10.5345,10.6315,10.6758,10.6758,10.6758,10.6758,10.6758,10.6758,10.6758,10.6758,10.6758,10.5328,10.3159,10.3159,10.283,10.2567,10.403,10.4572,10.477,10.6249,10.6758,10.6758,10.6758,10.638,10.6035,10.6561,10.7038,10.7449,10.7958,10.9159,11.0491,11.1544,11.1807,11.2118,11.3565,11.3941,11.4157,11.5077,11.488,11.4683,11.5209,11.378,11.3175,11.5139,11.8991,12.2234,12.3483,12.7187,13.073,13.2857,13.2228,13.2027,13.3,13.2228,13.1599,13.1599,13.11,12.9017,12.4878,12.2511,11.936,11.5271,11.3581,11.2665,11.2582,10.9515,10.5662,0.0,0.0,0.0,0.0,0.0,0.0,0.0,0.0,0.0,0.0,0.0,0.0,0.0,0.0,0.0,0.0,0.0,0.0,0.0,0.0,0.0,0.0,0.0,0.0,0.0,0.0,0.0,9.0852,9.2047,0.0,0.0,0.0,0.0,9.2822,9.2953,9.4217,9.6943,9.714,9.7848,9.9264,10.066,10.1465,10.1531,10.3027,10.3832,10.3898,10.3898,10.3882,10.4013,10.4013,10.4013,10.4013,10.4013,10.4013,10.3964,10.375,10.2764,10.1465,10.1399,10.0529,9.9461,10.0923,10.1447,10.1693,10.3323,10.3865,10.3865,10.3783,10.278,10.1794,10.3159,10.2583,0.0,0.0,10.4687,10.648,10.9356,11.008,11.0474,11.2004,11.2399,11.2399,11.2399,11.1395,11.082,11.1978,11.2061,11.1972,11.1826,0.0,11.8061,12.089,12.4472,12.7922,13.11,13.1528,13.1671,13.1742,13.1671,13.1599,13.1599,13.0159,12.7863,12.4664,12.1525,11.8302,11.5057,11.3367,11.1106,10.8048,10.4806,0.0,0.0,0.0,0.0,0.0,0.0,0.0,0.0,0.0,0.0,0.0,0.0,0.0,0.0,0.0,0.0,0.0,0.0,0.0,0.0,0.0,0.0,0.0,0.0,0.0,0.0,8.8798,8.9333,8.9389,8.968,8.9352,0.0,0.0,0.0,0.0,0.0,0.0,9.2537,9.3625,9.4874,9.6321,9.7732,9.8966,10.0069,10.0463,10.1186,10.2254,10.2254,10.2846,10.4013,10.4013,10.4013,10.4013,10.4013,10.4013,10.3767,10.0429,9.885,9.839,9.7322,9.6665,9.6518,9.793,9.8402,9.8679,10.1369,10.2176,10.1984,10.1007,10.0381,9.974,9.803,0.0,0.0,0.0,0.0,10.1909,10.4868,10.5657,10.6249,10.8747,11.0194,11.0934,11.0934,11.146,11.1133,10.8059,10.5778,10.4201,10.3895,10.8465,0.0,11.3255,12.0142,12.6306,12.9445,13.0873,13.2014,13.3214,13.23,13.1599,13.1599,13.0159,12.7435,12.2999,12.087,11.7814,11.3521,11.0749,10.8334,10.6396,0.0,0.0,0.0,0.0,0.0,0.0,0.0,0.0,0.0,0.0,0.0,0.0,0.0,0.0,0.0,0.0,0.0,0.0,0.0,0.0,0.0,0.0,0.0,0.0,0.0,0.0,0.0,8.9366,8.976,8.976,8.922,8.8511,0.0,0.0,0.0,0.0,0.0,0.0,0.0,0.0,0.0,9.3311,9.4758,9.5926,9.6685,9.7965,9.9032,9.9771,10.0397,10.1186,10.2041,10.2041,10.2041,10.2041,10.2041,10.1662,10.0921,9.9064,9.7491,9.6221,0.0,0.0,0.0,0.0,9.7082,9.7355,9.9641,10.0407,10.017,9.8901,0.0,0.0,0.0,0.0,0.0,0.0,0.0,10.0087,10.3058,10.4369,10.5476,10.7761,10.8879,10.947,10.947,10.8964,10.7703,10.5169,10.3342,10.1988,10.1016,10.4462,0.0,0.0,0.0,12.2297,12.7565,12.9575,13.1158,13.2715,13.2086,13.1314,13.0587,12.9147,12.6209,12.1358,11.9586,11.6304,11.0892,10.8323,10.5326,0.0,0.0,0.0,0.0,0.0,0.0,0.0,0.0,0.0,0.0,0.0,0.0,0.0,0.0,0.0,0.0,0.0,0.0,0.0,0.0,0.0,0.0,0.0,0.0,0.0,0.0,0.0,0.0,0.0,9.0695,9.0695,0.0,0.0,0.0,0.0,0.0,0.0,0.0,0.0,0.0,0.0,0.0,0.0,0.0,9.2756,9.3136,9.5415,9.6614,9.6877,9.8096,9.8804,9.8935,9.8935,9.9067,9.9229,9.9008,0.0,9.7154,9.8027,0.0,0.0,0.0,0.0,0.0,0.0,0.0,0.0,0.0,0.0,0.0,0.0,0.0,0.0,0.0,0.0,0.0,0.0,0.0,0.0,0.0,0.0,10.5296,10.6714,10.7374,10.7555,10.7094,10.4702,10.2611,10.2386,10.2344,10.1849,0.0,0.0,0.0,0.0,0.0,0.0,12.4485,12.7649,12.9718,13.0886,13.1158,13.0659,12.9076,12.7351,12.4426,12.0026,11.7731,11.3878,10.8048,10.6111,0.0,0.0,0.0,0.0,0.0,0.0,0.0,0.0,0.0,0.0,0.0,0.0,0.0,0.0,0.0,0.0,0.0,0.0,0.0,0.0,0.0,0.0,0.0,0.0,0.0,0.0,0.0,0.0,0.0,0.0,0.0,0.0,0.0,0.0,0.0,0.0,0.0,0.0,0.0,0.0,0.0,0.0,0.0,0.0,0.0,0.0,0.0,0.0,0.0,0.0,9.4136,9.4859,9.5992,9.5992,9.6665,9.7658,9.6166,9.5432,9.5215,9.4132,0.0,0.0,0.0,0.0,0.0,0.0,0.0,0.0,0.0,0.0,0.0,0.0,0.0,0.0,0.0,0.0,0.0,0.0,0.0,0.0,0.0,0.0,9.9085,10.0272,10.2505,10.3709,10.114,0.0,0.0,0.0,0.0,0.0,0.0,0.0,0.0,0.0,0.0,0.0,11.678,12.4212,12.8862,12.785,12.8933,12.9004,12.7493,12.4627,12.2,11.9883,11.4663,11.0014,0.0,0.0,0.0,0.0,0.0,0.0,0.0,0.0,0.0,0.0,0.0,0.0,0.0,0.0,0.0,0.0,0.0,0.0,0.0,0.0,0.0,0.0,0.0,0.0,0.0,0.0,0.0,0.0,0.0,0.0,0.0,0.0,0.0,0.0,0.0,0.0,0.0,0.0,0.0,0.0,0.0,0.0,0.0,0.0,0.0,0.0,0.0,0.0,0.0,0.0,0.0,0.0,0.0,0.0,0.0,0.0,0.0,0.0,9.3619,9.2981,0.0,0.0,0.0,0.0,0.0,0.0,0.0,0.0,0.0,0.0,0.0,0.0,0.0,0.0,0.0,0.0,0.0,0.0,0.0,0.0,0.0,0.0,0.0,0.0,0.0,0.0,0.0,0.0,0.0,0.0,0.0,0.0,0.0,0.0,0.0,0.0,0.0,0.0,0.0,0.0,11.4629,12.1929,12.6864,12.691,12.7636,12.7422,12.5865,12.3486,12.0359,11.6387,11.2511,0.0,0.0,0.0,0.0,0.0,0.0,0.0,0.0,0.0,0.0,0.0,0.0,0.0,0.0,0.0,0.0,0.0,0.0,0.0,0.0,0.0,0.0,0.0,0.0,0.0,0.0,0.0,0.0,0.0,0.0,0.0,0.0,0.0,0.0,0.0,0.0,0.0,0.0,0.0,0.0,0.0,0.0,0.0,0.0,0.0,0.0,0.0,0.0,0.0,0.0,0.0,0.0,0.0,0.0,0.0,0.0,0.0,0.0,0.0,9.2426,9.1884,0.0,0.0,0.0,0.0,0.0,0.0,0.0,0.0,0.0,0.0,0.0,0.0,0.0,0.0,0.0,0.0,0.0,0.0,0.0,0.0,0.0,0.0,0.0,0.0,0.0,0.0,0.0,0.0,0.0,0.0,0.0,0.0,0.0,0.0,0.0,0.0,0.0,0.0,0.0,0.0,11.3142,12.0014,12.495,12.5769,12.6209,12.5794,12.4165,12.2214,11.8718,11.3093,11.0299,0.0,0.0,0.0,0.0,0.0,0.0,0.0,0.0,0.0,0.0,0.0,0.0,0.0,0.0,0.0,0.0,0.0,0.0,0.0,0.0,0.0,0.0,0.0,0.0,0.0,0.0,0.0,0.0,0.0,0.0,0.0,0.0,0.0,0.0,0.0,0.0,0.0,0.0,0.0,0.0,0.0,0.0,0.0,0.0,0.0,0.0,0.0,0.0,0.0,0.0,0.0,0.0,0.0,0.0,0.0,0.0,0.0,0.0,0.0,0.0,0.0,0.0,0.0,0.0,0.0,0.0,0.0,0.0,0.0,0.0,0.0,0.0,0.0,0.0,0.0,0.0,0.0,0.0,0.0,0.0,0.0,0.0,0.0,0.0,0.0,0.0,0.0,0.0,0.0,0.0,0.0,0.0,0.0,0.0,0.0,0.0,0.0,0.0,0.0,0.0,0.0,10.8691,11.8028,12.4093,12.2701,12.3867,12.4153,12.2416,11.9574,11.6375,11.2961,0.0,0.0,0.0,0.0,0.0,0.0,0.0,0.0,0.0,0.0,0.0,0.0,0.0,0.0,0.0,0.0,0.0,0.0,0.0,0.0,0.0,0.0,0.0,0.0,0.0,0.0,0.0,0.0,0.0,0.0,0.0,0.0,0.0,0.0,0.0,0.0,0.0,0.0,0.0,0.0,0.0,0.0,0.0,0.0,0.0,0.0,0.0,0.0,0.0,0.0,0.0,0.0,0.0,0.0,0.0,0.0,0.0,0.0,0.0,0.0,0.0,0.0,0.0,0.0,0.0,0.0,0.0,0.0,0.0,0.0,0.0,0.0,0.0,0.0,0.0,0.0,0.0,0.0,0.0,0.0,0.0,0.0,0.0,0.0,0.0,0.0,0.0,0.0,0.0,0.0,0.0,0.0,0.0,0.0,0.0,0.0,0.0,0.0,0.0,0.0,0.0,0.0,10.8048,11.6886,12.2856,12.213,12.2701,12.2785,12.213,11.9217,11.5305,11.025,0.0,0.0,0.0,0.0,0.0,0.0,0.0,0.0,0.0,0.0,0.0,0.0,0.0,0.0,0.0,0.0,0.0,0.0,0.0,0.0,0.0,0.0,0.0,0.0,0.0,0.0,0.0,0.0,0.0,0.0,0.0,0.0,0.0,0.0,0.0,0.0,0.0,0.0,0.0,0.0,0.0,0.0,0.0,0.0,0.0,0.0,0.0,0.0,0.0,0.0,0.0,0.0,0.0,0.0,0.0,0.0,0.0,0.0,0.0,0.0,0.0,0.0,0.0,0.0,0.0,0.0,0.0,0.0,0.0,0.0,0.0,0.0,0.0,0.0,0.0,0.0,0.0,0.0,0.0,0.0,0.0,0.0,0.0,0.0,0.0,0.0,0.0,0.0,0.0,0.0,0.0,0.0,0.0,0.0,0.0,0.0,0.0,0.0,0.0,0.0,0.0,0.0,10.8048,11.5876,12.1572,12.1988,12.2059,12.2059,12.2059,11.8789,11.4348,10.8808,0.0,0.0,0.0,0.0,0.0,0.0,0.0,0.0,0.0,0.0,0.0,0.0,0.0,0.0,0.0,0.0,0.0,0.0,0.0,0.0,0.0,0.0,0.0,0.0,0.0,0.0,0.0,0.0,0.0,0.0,0.0,0.0,0.0,0.0,0.0,0.0,0.0,0.0,0.0,0.0,0.0,0.0,0.0,0.0,0.0,0.0,0.0,0.0,0.0,0.0,0.0,0.0,0.0,0.0,0.0,0.0,0.0,0.0,0.0,0.0,0.0,0.0,0.0,0.0,0.0,0.0,0.0,0.0,0.0,0.0,0.0,0.0,0.0,0.0,0.0,0.0,0.0,0.0,0.0,0.0,0.0,0.0,0.0,0.0,0.0,0.0,0.0,0.0,0.0,0.0,0.0,0.0,0.0,0.0,0.0,0.0,0.0,0.0,0.0,0.0,0.0,0.0,10.7906,11.49,12.0371,12.1916,12.2059,12.2059,12.2059,11.7779,11.3409,0.0,0.0,0.0,0.0,0.0,0.0,0.0,0.0,0.0,0.0,0.0,0.0,0.0,0.0,0.0,0.0,0.0,0.0,0.0,0.0,0.0,0.0,0.0,0.0,0.0,0.0,0.0,0.0,0.0,0.0,0.0,0.0,0.0,0.0,0.0,0.0,0.0,0.0,0.0,0.0,0.0,0.0,0.0,0.0,0.0,0.0,0.0,0.0,0.0,0.0,0.0,0.0,0.0,0.0,0.0,0.0,0.0,0.0,0.0,0.0,0.0,0.0,0.0,0.0,0.0,0.0,0.0,0.0,0.0,0.0,0.0,0.0,0.0,0.0,0.0,0.0,0.0,0.0,0.0,0.0,0.0,0.0,0.0,0.0,0.0,0.0,0.0,0.0,0.0,0.0,0.0,0.0,0.0,0.0,0.0,0.0,0.0,0.0,0.0,0.0,0.0,0.0,0.0,10.7763,11.3961,11.9146,12.1774,12.2059,12.1631,12.0585,11.7137,11.2705,10.7181,0.0,0.0,0.0,0.0,0.0,0.0,0.0,0.0,0.0,0.0,0.0,0.0,0.0,0.0,0.0,0.0,0.0,0.0,0.0,0.0,0.0,0.0,0.0,0.0,0.0,0.0,0.0,0.0,0.0,0.0,0.0,0.0,0.0,0.0,0.0,0.0,0.0,0.0,0.0,0.0,0.0,0.0,0.0,0.0,0.0,0.0,0.0,0.0,0.0,0.0,0.0,0.0,0.0,0.0,0.0,0.0,0.0,0.0,0.0,0.0,0.0,0.0,0.0,0.0,0.0,0.0,0.0,0.0,0.0,0.0,0.0,0.0,0.0,0.0,0.0,0.0,0.0,0.0,0.0,0.0,0.0,0.0,0.0,0.0,0.0,0.0,0.0,0.0,0.0,0.0,0.0,0.0,0.0,0.0,0.0,0.0,0.0,0.0,0.0,0.0,0.0,0.0,0.0,11.3164,11.8147,12.0133,12.0858,12.0359,11.8159,11.5151,11.1023,10.5633,0.0,0.0,0.0,0.0,0.0,0.0,0.0,0.0,0.0,0.0,0.0,0.0,0.0,0.0,0.0,0.0,0.0,0.0,0.0,0.0,0.0,0.0,0.0,0.0,0.0,0.0,0.0,0.0,0.0,0.0,0.0,0.0,0.0,0.0,0.0,0.0,0.0,0.0,0.0,0.0,0.0,0.0,0.0,0.0,0.0,0.0,0.0,0.0,0.0,0.0,0.0,0.0,0.0,0.0,0.0,0.0,0.0,0.0,0.0,0.0,0.0,0.0,0.0,0.0,0.0,0.0,0.0,0.0,0.0,0.0,0.0,0.0,0.0,0.0,0.0,0.0,0.0,0.0,0.0,0.0,0.0,0.0,0.0,0.0,0.0,0.0,0.0,0.0,0.0,0.0,0.0,0.0,0.0,0.0,0.0,0.0,0.0,0.0,0.0,0.0,0.0,0.0,0.0,11.2368,11.7006,11.7362,11.873,11.8302,11.5211,11.2143,10.8726,10.4669,10.0924,0.0,0.0,0.0,0.0,0.0,0.0,0.0,0.0,0.0,0.0,0.0,0.0,0.0,0.0,0.0,0.0,0.0,0.0,0.0,0.0,0.0,0.0,0.0,0.0,0.0,0.0,0.0,0.0,0.0,0.0,0.0,0.0,0.0,0.0,0.0,0.0,0.0,0.0,0.0,0.0,0.0,0.0,0.0,0.0,0.0,0.0,0.0,0.0,0.0,0.0,0.0,0.0,0.0,0.0,0.0,0.0,0.0,0.0,0.0,0.0,0.0,0.0,0.0,0.0,0.0,0.0,0.0,0.0,0.0,0.0,0.0,0.0,0.0,0.0,0.0,0.0,0.0,0.0,0.0,0.0,0.0,0.0,0.0,0.0,0.0,0.0,0.0,0.0,0.0,0.0,0.0,0.0,0.0,0.0,0.0,0.0,0.0,0.0,0.0,0.0,0.0,0.0,11.0168,11.3438,11.7006,11.7719,11.6649,11.3592,11.1512,10.8224,10.297,10.0668,0.0,0.0,0.0,0.0,0.0,0.0,0.0,0.0,0.0,0.0,0.0,0.0,0.0,0.0,0.0,0.0,0.0,0.0,0.0,0.0,0.0,0.0,0.0,0.0,0.0,0.0,0.0,0.0,0.0,0.0,0.0,0.0,0.0,0.0,0.0,0.0,0.0,0.0,0.0,0.0,0.0,0.0,0.0,0.0,0.0,0.0,0.0,0.0,0.0,0.0,0.0,0.0,0.0,0.0,0.0,0.0,0.0,0.0,0.0,0.0,0.0,0.0,0.0,0.0,0.0,0.0,0.0,0.0,0.0,0.0,0.0,0.0,0.0,0.0,0.0,0.0,0.0,0.0,0.0,0.0,0.0,0.0,0.0,0.0,0.0,0.0,0.0,0.0,0.0,0.0,0.0,0.0,0.0,0.0,0.0,0.0,0.0,0.0,0.0,0.0,0.0,0.0,10.5611,10.8372,11.4175,11.5754,11.4938,11.1498,11.0052,10.6955,10.1316,10.053,0.0,0.0,0.0,0.0,0.0,0.0,0.0,0.0,0.0,0.0,0.0,0.0,0.0,0.0,0.0,0.0,0.0,0.0,0.0,0.0,0.0,0.0,0.0,0.0,0.0,0.0,0.0,0.0,0.0,0.0,0.0,0.0,0.0,0.0,0.0,0.0,0.0,0.0,0.0,0.0,0.0,0.0,0.0,0.0,0.0,0.0,0.0,0.0,0.0,0.0,0.0,0.0,0.0,0.0,0.0,0.0,0.0,0.0,0.0,0.0,0.0,0.0,0.0,0.0,0.0,0.0,0.0,0.0,0.0,0.0,0.0,0.0,0.0,0.0,0.0,0.0,0.0,0.0,0.0,0.0,0.0,0.0,0.0,0.0,0.0,0.0,0.0,0.0,0.0,0.0,0.0,0.0,0.0,0.0,0.0,0.0,0.0,0.0,0.0,0.0,0.0,0.0,0.0,10.3917,11.0499,11.323,11.3156,10.9712,10.8499,10.5619,10.0221,0.0,0.0,0.0,0.0,0.0,0.0,0.0,0.0,0.0,0.0,0.0,0.0,0.0,0.0,0.0,0.0,0.0,0.0,0.0,0.0,0.0,0.0,0.0,0.0,0.0,0.0,0.0,0.0,0.0,0.0,0.0,0.0,0.0,0.0,0.0,0.0,0.0,0.0,0.0,0.0,0.0,0.0,0.0,0.0,0.0,0.0,0.0,0.0,0.0,0.0,0.0,0.0,0.0,0.0,0.0,0.0,0.0,0.0,0.0,0.0,0.0,0.0,0.0,0.0,0.0,0.0,0.0,0.0,0.0,0.0,0.0,0.0,0.0,0.0,0.0,0.0,0.0,0.0,0.0,0.0,0.0,0.0,0.0,0.0,0.0,0.0,0.0,0.0,0.0,0.0,0.0,0.0,0.0,0.0,0.0,0.0,0.0,0.0,0.0,0.0,0.0,0.0,0.0,0.0,10.445,10.8221,11.0718,11.1362,10.9623,10.7997,10.5266,10.0963,0.0,0.0,0.0,0.0,0.0,0.0,0.0,0.0,0.0,0.0,0.0,0.0,0.0,0.0]}],[{"header":{"parameterUnit":"kt","parameterCategory":2,"dx":1,"dy":1,"la1":29.285339999999998,"la2":30.599998999999997,"lo1":-89.70041500000002,"lo2":-87.6738589999976,"nx":112,"ny":82,"refTime":"2022-10-06T12:00:00:Z","depth":0,"parameterNumber":2,"parameterNumberName":"V-component_of_WINDS"},"data":[11.6277,11.3916,11.0932,10.2375,10.235,10.3131,9.8233,9.7957,9.8689,0.0,0.0,0.0,0.0,0.0,0.0,0.0,0.0,0.0,0.0,9.3936,0.0,0.0,0.0,0.0,0.0,0.0,0.0,0.0,0.0,0.0,0.0,11.5625,11.5625,11.5625,11.5625,11.5625,11.5625,11.5625,11.5625,11.5625,11.5625,11.5625,11.5625,11.5625,11.5625,11.5625,11.5625,11.5625,11.5625,11.5625,11.5625,11.5625,11.5625,11.5625,11.5625,11.5625,11.5625,11.5625,11.5625,11.5625,11.5625,11.5625,11.5625,11.5625,11.5625,11.5625,11.5625,11.5625,11.5625,11.5625,11.5625,11.5625,11.5625,11.5625,11.5625,11.5625,11.5625,11.5625,11.5625,11.5625,11.5625,11.5528,11.5186,11.5137,11.5137,11.5137,11.5137,11.4747,11.3685,11.3575,11.3295,11.2648,11.255,11.255,11.255,11.3185,11.3575,11.3575,11.421,11.4552,11.4552,11.4552,11.4747,11.5088,11.5137,11.5284,11.5625,11.5625,11.5625,11.5625,11.5625,11.5625,11.2002,11.0237,10.8291,9.869,9.8787,10.0039,9.5823,0.0,0.0,0.0,0.0,0.0,0.0,0.0,0.0,0.0,0.0,0.0,0.0,0.0,9.5029,0.0,0.0,0.0,0.0,0.0,10.7914,11.1148,11.0367,0.0,11.543,11.5625,11.5625,11.5625,11.5625,11.5625,11.5625,11.5625,11.5625,11.5625,11.5625,11.5625,11.5625,11.5625,11.5625,11.5625,11.5625,11.5625,11.5625,11.5625,11.5625,11.5625,11.5625,11.5625,11.5625,11.5625,11.5625,11.5625,11.5625,11.5625,11.5625,11.5625,11.5625,11.5625,11.5625,11.5625,11.5625,11.5625,11.5625,11.5625,11.5625,11.5625,11.5625,11.5625,11.5625,11.5625,11.5625,11.5625,11.5625,11.5625,11.5625,11.5625,11.5625,11.5625,11.5625,11.5625,11.5625,11.543,11.471,11.4612,11.4356,11.3673,11.3575,11.3575,11.3575,11.4259,11.4612,11.4612,11.5284,11.5625,11.5625,11.5625,11.5625,11.5625,11.5625,11.5625,11.5625,11.5625,11.5625,11.5625,11.5625,11.5625,10.8302,10.5995,10.5449,9.5685,9.4095,0.0,0.0,0.0,9.5987,0.0,0.0,0.0,0.0,0.0,0.0,0.0,0.0,0.0,0.0,9.7274,9.7469,9.9698,10.2643,10.5766,10.9001,10.645,10.684,11.2258,10.9622,11.0097,11.5381,11.5625,11.5625,11.5625,11.5625,11.5625,11.5625,11.5625,11.5625,11.5625,11.5625,11.5625,11.5625,11.5625,11.5625,11.5625,11.5625,11.5625,11.5625,11.5625,11.5625,11.5625,11.5625,11.5625,11.5625,11.5625,11.5625,11.5625,11.5625,11.5625,11.5625,11.5625,11.5625,11.5625,11.5625,11.5625,11.5625,11.5625,11.5625,11.5625,11.5625,11.5625,11.5625,11.5625,11.5625,11.5625,11.5625,11.5625,11.5625,11.5625,11.5625,11.5625,11.5625,11.5625,11.5625,11.5625,11.5625,11.5625,11.5625,11.5625,11.5625,11.5625,11.5625,11.5625,11.5625,11.5625,11.5625,11.5625,11.5625,11.5625,11.5625,11.5625,11.5625,11.5625,11.5625,11.5625,11.5625,11.5625,11.5625,11.5625,11.5625,11.5625,10.6087,0.0,0.0,0.0,0.0,0.0,0.0,0.0,0.0,0.0,0.0,0.0,0.0,0.0,0.0,0.0,0.0,9.9763,9.9275,10.0934,10.3033,10.5264,10.6289,10.806,11.133,11.0074,11.066,11.4503,11.1782,11.1587,11.543,11.5625,11.5625,11.5625,11.5625,11.5625,11.5625,11.5625,11.5625,11.5625,11.5625,11.5625,11.5625,11.5625,11.5625,11.5625,11.5625,11.5625,11.5625,11.5625,11.5625,11.5625,11.5625,11.5625,11.5625,11.5625,11.5625,11.5625,11.5625,11.5625,11.5625,11.5625,11.5625,11.5625,11.5625,11.5625,11.5625,11.5625,11.5625,11.5625,11.5625,11.5625,11.5625,11.5625,11.5625,11.5625,11.5625,11.5625,11.5625,11.5625,11.5625,11.5625,11.5625,11.5625,11.5625,11.5625,11.5625,11.5625,11.5625,11.5625,11.5625,11.5625,11.5625,11.5625,11.5625,11.5625,11.5625,11.5625,11.5625,11.5625,11.5625,11.5625,11.5625,11.5625,11.5625,11.5625,11.5625,11.5625,11.5625,11.5625,11.5625,11.5625,0.0,0.0,0.0,0.0,0.0,0.0,9.5224,0.0,9.368,0.0,0.0,0.0,0.0,0.0,0.0,0.0,9.8477,10.1227,10.1032,10.3765,10.6401,10.8109,10.9915,11.1428,11.2453,11.1928,11.266,11.543,11.3099,11.2709,11.5479,11.5625,11.5625,11.5625,11.5625,11.5625,11.5625,11.5625,11.5625,11.5625,11.5625,11.5625,11.5625,11.5625,11.5625,11.5625,11.5625,11.5625,11.5625,11.5625,11.5625,11.5625,11.5625,11.5625,11.5625,11.5625,11.5625,11.5625,11.5625,11.5625,11.5625,11.5625,11.5625,11.5625,11.5625,11.5625,11.5625,11.5625,11.5625,11.5625,11.5625,11.5625,11.5625,11.5625,11.5625,11.5625,11.5625,11.5625,11.5625,11.5625,11.5625,11.5381,11.4503,11.5088,11.5479,11.5088,11.5381,11.5625,11.5625,11.5625,11.5625,11.5625,11.5625,11.5625,11.5625,11.5625,11.5625,11.5625,11.5625,11.5625,11.5625,11.5625,11.5625,11.5625,11.5625,11.5625,11.5625,11.5625,11.5625,11.5625,11.5625,11.5625,0.0,0.0,0.0,0.0,9.3905,0.0,0.0,0.0,9.6005,9.4687,0.0,9.5499,9.4589,0.0,0.0,9.5969,9.9649,10.2609,10.3439,10.645,10.8939,10.9866,11.3331,11.4942,11.3087,11.2892,11.3673,11.5528,11.3917,11.3722,11.5528,11.5625,11.5625,11.5625,11.5625,11.5625,11.5625,11.5625,11.5625,11.5625,11.5625,11.5625,11.5625,11.5625,11.5625,11.5625,11.5625,11.5625,11.5625,11.5625,11.5625,11.5625,11.5625,11.5625,11.5625,11.5625,11.5625,11.5625,11.5625,11.5625,11.5625,11.5625,11.5625,11.5625,11.5625,11.5625,11.5625,11.5625,11.5577,11.5479,11.5625,11.5577,11.5528,11.5625,11.5625,11.5625,11.5625,11.5577,11.5479,11.5479,11.5479,11.4844,11.2892,11.4259,11.5284,11.4075,11.4942,11.5625,11.5479,11.5577,11.5625,11.5625,11.5625,11.5625,11.5625,11.5625,11.5625,11.5625,11.5625,11.5625,11.5625,11.5625,11.5625,11.5625,11.5625,11.5625,11.5625,11.5625,11.5625,11.5625,11.5625,11.5625,0.0,0.0,0.0,0.0,0.0,9.2265,0.0,0.0,0.0,10.1422,10.1731,10.1487,10.2072,10.2203,10.2594,10.3784,10.6791,10.8757,10.8074,11.1526,11.421,11.4405,11.5137,11.5479,11.5088,11.504,11.5235,11.5625,11.5284,11.5235,11.5625,11.5625,11.5625,11.5625,11.5625,11.5625,11.5625,11.5625,11.5625,11.5625,11.5625,11.5625,11.5625,11.5625,11.5625,11.5625,11.5625,11.5625,11.5625,11.5625,11.5625,11.5625,11.5625,11.5625,11.5625,11.5625,11.5625,11.5625,11.5625,11.5625,11.5625,11.5625,11.5625,11.5625,11.5625,11.5625,11.5625,11.5625,11.5088,11.4563,11.543,11.504,11.4612,11.543,11.5625,11.5625,11.5625,11.4991,11.4368,11.4368,11.4368,11.3978,11.2746,11.4259,11.4991,11.3136,11.4454,11.5333,11.4514,11.5137,11.5625,11.5625,11.5625,11.5625,11.5625,11.5625,11.5625,11.5625,11.5625,11.5625,11.5625,11.5625,11.5625,11.5625,11.5625,11.5625,11.5625,11.5625,11.5625,11.5625,11.5625,11.5625,0.0,0.0,0.0,9.5785,0.0,0.0,0.0,9.5224,9.6866,10.1162,10.2057,10.2707,10.4873,10.5264,10.5459,10.603,10.8792,11.1197,11.2306,11.4308,11.5625,11.5625,11.5625,11.5625,11.5625,11.5625,11.5625,11.5625,11.5625,11.5625,11.5625,11.5625,11.5625,11.5625,11.5625,11.5625,11.5625,11.5625,11.5625,11.5625,11.5625,11.5625,11.5625,11.5625,11.5625,11.5625,11.5625,11.5625,11.5625,11.5625,11.5625,11.5625,11.5625,11.5625,11.5625,11.5625,11.5625,11.5625,11.5625,11.5625,11.5625,11.5625,11.5625,11.5625,11.5625,11.5625,11.5528,11.504,11.4893,11.4893,11.4893,11.4893,11.504,11.5528,11.5284,11.504,11.5528,11.4454,11.349,11.3978,11.3246,11.2124,11.1086,11.2697,11.3527,11.188,11.3087,11.3917,11.3392,11.3771,11.4308,11.4833,11.4893,11.5088,11.5625,11.5625,11.5625,11.5625,11.5625,11.5625,11.5625,11.5625,11.5625,11.5625,11.5625,11.5625,11.5625,11.5625,11.5625,11.5625,11.5625,11.5625,0.0,0.0,0.0,0.0,0.0,0.0,9.3753,9.5126,9.7501,10.1406,10.3033,10.4644,10.7461,10.8033,10.8033,10.8033,11.011,11.266,11.5284,11.5625,11.5625,11.5625,11.5625,11.5625,11.5625,11.5625,11.5625,11.5625,11.5625,11.5625,11.5625,11.5625,11.5625,11.5625,11.5625,11.5625,11.5625,11.5625,11.5625,11.5625,11.5625,11.5625,11.5625,11.5625,11.5625,11.5625,11.5625,11.5625,11.5625,11.5625,11.5625,11.5625,11.5625,11.5625,11.5625,11.5625,11.5625,11.5625,11.5625,11.5625,11.5625,11.5625,11.5625,11.5625,11.5625,11.5625,11.5479,11.4612,11.4893,11.5186,11.4319,11.46,11.504,11.504,11.4405,11.4026,11.4844,11.3575,11.2453,11.3295,11.199,11.0477,10.944,11.1086,11.2111,11.0673,11.1684,11.2453,11.2258,11.2404,11.2843,11.371,11.3819,11.4124,11.4991,11.5235,11.5333,11.5333,11.5528,11.5625,11.5625,11.5625,11.5625,11.5625,11.5625,11.5625,11.5625,11.5625,11.5625,11.5625,11.5625,11.5625,10.3915,0.0,0.0,9.8146,9.6323,0.0,10.064,10.178,10.3683,10.9866,11.1952,11.3075,11.4356,11.4638,11.4638,11.4638,11.4893,11.5235,11.5577,11.5625,11.5625,11.5625,11.5625,11.5625,11.5625,11.5625,11.5625,11.5625,11.5625,11.5625,11.5625,11.5625,11.5625,11.5625,11.5625,11.5625,11.5625,11.5625,11.5625,11.5625,11.5625,11.5625,11.5625,11.5625,11.5625,11.5625,11.5625,11.5625,11.5625,11.5625,11.5625,11.5625,11.5625,11.5625,11.5625,11.5625,11.5625,11.5625,11.5625,11.5625,11.5625,11.5625,11.5625,11.5625,11.5625,11.5625,11.5625,11.5528,11.4893,11.427,11.4124,11.349,11.2892,11.2892,11.2795,11.2746,11.2843,11.188,11.1014,11.116,11.0965,11.0477,10.944,11.1086,11.1818,10.9733,11.1233,11.216,11.1112,11.188,11.2599,11.2697,11.2746,11.2746,11.2892,11.3734,11.427,11.427,11.5137,11.5625,11.5625,11.5625,11.5625,11.5625,11.5625,11.5625,11.5625,11.5625,11.5625,11.5625,11.5625,11.5625,10.5833,10.426,10.2825,10.1981,0.0,0.0,10.1948,10.2305,10.3585,10.9427,11.0989,11.216,11.5088,11.5625,11.5625,11.5625,11.5625,11.5625,11.5625,11.5625,11.5625,11.5625,11.5625,11.5625,11.5625,11.5625,11.5625,11.5625,11.5625,11.5625,11.5625,11.5625,11.5625,11.5625,11.5625,11.5625,11.5625,11.5625,11.5625,11.5625,11.5625,11.5625,11.5625,11.5625,11.5625,11.5625,11.5625,11.5625,11.5625,11.5625,11.5625,11.5625,11.5625,11.5625,11.5625,11.5625,11.5625,11.5625,11.5625,11.5625,11.5625,11.5625,11.5625,11.5625,11.5625,11.5625,11.5625,11.5625,11.4454,11.3002,11.2368,11.2368,11.255,11.255,11.2026,11.1684,11.2404,11.1148,10.9879,10.9879,10.9879,10.9733,10.9294,11.0012,11.0305,10.9342,11.0026,11.0452,10.9977,11.0318,11.0891,11.1489,11.1538,11.1782,11.2502,11.349,11.4124,11.4124,11.4514,11.4758,11.4758,11.4758,11.4758,11.4758,11.5333,11.5625,11.5625,11.4405,11.3819,11.3868,11.4503,11.5088,10.7284,0.0,0.0,0.0,0.0,0.0,10.4856,10.4006,10.396,10.8708,10.9928,11.1197,11.46,11.5479,11.5625,11.5625,11.5625,11.5625,11.5625,11.5625,11.5625,11.5625,11.5625,11.5625,11.5625,11.5625,11.5625,11.5625,11.5625,11.5625,11.5625,11.5625,11.5625,11.5625,11.5625,11.5625,11.5625,11.5625,11.5625,11.5625,11.5625,11.5625,11.5625,11.5625,11.5625,11.5625,11.5625,11.5625,11.5625,11.5625,11.5625,11.5625,11.5625,11.5625,11.5625,11.5625,11.5625,11.5625,11.5625,11.5625,11.5625,11.5625,11.5625,11.5625,11.5625,11.5625,11.5577,11.5333,11.4161,11.2746,11.1587,11.1684,11.1977,11.1721,11.1001,11.0611,11.1477,11.0403,10.9245,10.9245,10.9245,10.9245,10.9245,10.9245,10.9245,10.9245,10.9245,10.9245,10.9245,10.9245,10.9538,11.0318,11.0367,11.0709,11.1574,11.2563,11.3197,11.3197,11.349,11.3685,11.3685,11.3685,11.3685,11.3685,11.4405,11.4796,11.4796,11.3575,11.2843,11.255,11.3587,11.4698,0.0,0.0,0.0,11.1314,10.9215,10.7694,11.1735,10.9192,10.6875,11.0123,11.1636,11.2795,11.3929,11.4991,11.5625,11.5625,11.5625,11.5625,11.5625,11.5625,11.5625,11.5625,11.5625,11.5625,11.5625,11.5625,11.5625,11.5625,11.5625,11.5625,11.5625,11.5625,11.5625,11.5625,11.5625,11.5625,11.5625,11.5625,11.5625,11.5625,11.5625,11.5625,11.5625,11.5625,11.5625,11.5625,11.5625,11.5625,11.5625,11.5625,11.5625,11.5625,11.5625,11.5625,11.5625,11.5625,11.5625,11.5625,11.5625,11.5625,11.5625,11.5625,11.5625,11.5625,11.5625,11.5625,11.543,11.4417,11.4124,11.3831,11.2746,11.1684,11.0575,10.9586,10.9329,10.9329,10.9378,10.9294,10.9245,10.9245,10.9245,10.9245,10.9245,10.9245,10.9245,10.9245,10.9245,10.9245,10.9245,10.9245,10.9245,10.9294,10.9294,10.9294,10.9342,11.0318,11.0868,11.0868,11.1928,11.2599,11.2599,11.2599,11.2599,11.2599,11.2648,11.2648,11.2648,11.3587,11.3539,11.255,11.3587,11.4698,10.9295,11.0691,11.2469,11.5706,11.4027,11.2172,11.438,11.1405,10.8695,11.0465,11.1112,11.1977,11.3782,11.4368,11.4612,11.4612,11.5235,11.5625,11.5625,11.5625,11.5625,11.5625,11.5625,11.5625,11.5625,11.5625,11.5625,11.5625,11.5625,11.5625,11.5625,11.5625,11.5625,11.5625,11.5625,11.5625,11.5625,11.5625,11.5625,11.5625,11.5625,11.5625,11.5625,11.5625,11.5625,11.5625,11.5625,11.5625,11.5625,11.5625,11.5625,11.5625,11.5625,11.5625,11.5625,11.5625,11.5625,11.5625,11.5625,11.5625,11.5625,11.5625,11.5625,11.5625,11.5625,11.5625,11.543,11.4368,11.3587,11.2807,11.1684,11.0611,10.9684,10.9294,10.9245,10.9245,10.9245,10.9245,10.9245,10.9245,10.9245,10.9245,10.9245,10.9245,10.9245,10.9245,10.9245,10.9245,10.9245,10.9245,10.9245,10.9245,10.9245,10.9245,10.9245,11.0221,11.077,11.077,11.1197,11.1392,11.1392,11.1392,11.1392,11.1392,11.2843,11.1806,10.8291,10.8632,10.8632,10.8291,10.9329,11.0012,11.0284,11.1945,11.4097,11.8924,11.7951,11.6045,11.6994,11.4079,11.092,11.036,11.0562,11.1209,11.266,11.2319,11.2026,11.2807,11.349,11.421,11.4991,11.5088,11.5235,11.5625,11.5625,11.5625,11.5625,11.5625,11.5625,11.5625,11.5625,11.5625,11.5625,11.5625,11.5625,11.5625,11.5625,11.5625,11.5625,11.5625,11.5625,11.5625,11.5625,11.5625,11.5625,11.5625,11.5625,11.5625,11.5625,11.5625,11.5625,11.5625,11.5625,11.5625,11.5625,11.5625,11.5625,11.5625,11.5625,11.5625,11.5625,11.5625,11.5625,11.5625,11.5625,11.5625,11.5625,11.5625,11.5333,11.3929,11.3087,11.2209,11.066,10.9733,10.9245,10.9245,10.9245,10.9245,10.9245,10.9245,10.9245,10.9245,10.9245,10.9245,10.9245,10.9245,10.9245,10.9245,10.9245,10.9245,10.9245,10.8939,10.8695,10.8695,10.8353,10.8109,10.8109,10.8743,10.9098,10.9098,10.9098,10.9098,10.9098,10.9098,10.9098,10.9098,11.0536,10.9596,10.6128,10.6519,10.6519,10.6177,10.7216,10.7705,11.0484,11.2236,11.4853,12.1189,12.0968,11.9304,11.9584,11.6906,11.3403,10.9961,10.9977,11.0624,11.0575,10.8988,10.8353,11.0282,11.0673,11.1489,11.3636,11.3978,11.4417,11.543,11.5625,11.5625,11.5625,11.5625,11.5625,11.5625,11.5625,11.5625,11.5625,11.5625,11.5625,11.5625,11.5625,11.5625,11.5625,11.5625,11.5625,11.5625,11.5625,11.5625,11.5625,11.5625,11.5625,11.5625,11.5577,11.5577,11.5625,11.5577,11.5577,11.5625,11.5625,11.5625,11.5625,11.5625,11.5625,11.5625,11.5625,11.5625,11.5625,11.5625,11.5625,11.5625,11.5577,11.5577,11.5137,11.3039,11.2453,11.1965,10.9817,10.9245,10.9245,10.9245,10.9245,10.9245,10.9245,10.9245,10.9245,10.9245,10.9245,10.9245,10.9245,10.9232,10.9147,10.9147,10.9098,10.905,10.905,10.8207,10.7607,10.7607,10.6728,10.6128,10.6128,10.6128,10.6128,10.6128,10.6128,10.6128,10.6128,10.6128,10.6128,10.6128,10.603,10.5981,10.5981,10.6972,10.6924,10.5981,10.6972,10.7426,11.2669,11.6275,11.9591,12.3081,12.225,12.0192,11.8624,11.5534,11.2318,10.9743,10.8841,10.8255,10.7461,10.7509,10.79,10.8402,10.9098,11.0123,11.1489,11.2368,11.3295,11.4368,11.5186,11.5625,11.5625,11.5625,11.5625,11.5625,11.5625,11.5625,11.5625,11.5625,11.5625,11.5625,11.5625,11.5625,11.5625,11.5625,11.5625,11.5625,11.5625,11.5625,11.5625,11.5625,11.5625,11.5625,11.4844,11.4942,11.5577,11.4844,11.4991,11.5625,11.5625,11.5625,11.5625,11.5625,11.5625,11.5625,11.5625,11.5625,11.5625,11.5625,11.5625,11.5528,11.4735,11.4503,11.4026,11.188,11.1245,11.0953,10.9586,10.9245,10.9245,10.9245,10.9245,10.9245,10.9245,10.9245,10.9245,10.9245,10.9245,10.9245,10.9245,10.8597,10.806,10.806,10.7412,10.6924,10.6924,10.6714,10.6519,10.6519,10.6275,10.6128,10.6128,10.6128,10.6128,10.6128,10.6128,10.6128,10.6128,10.6128,10.6128,10.6128,10.4497,10.3634,10.3634,10.3927,10.3927,10.3683,10.3927,10.4073,11.2378,11.645,12.058,12.3662,12.3444,12.1648,11.7925,11.5958,11.3527,10.8849,10.6986,10.6205,10.6177,10.5849,10.5717,10.6157,10.6742,10.7635,10.9196,11.0367,11.1489,11.2563,11.3587,11.4308,11.4308,11.4698,11.4991,11.4991,11.5381,11.5625,11.5625,11.5625,11.5625,11.5625,11.5625,11.5625,11.5625,11.5625,11.5625,11.5625,11.5625,11.5625,11.5625,11.5625,11.543,11.4942,11.388,11.4308,11.5528,11.4064,11.4308,11.5625,11.5186,11.5284,11.5625,11.5625,11.5625,11.5625,11.5625,11.5625,11.5625,11.5625,11.5333,11.4942,11.4833,11.4454,11.3734,11.2026,11.1928,11.1782,10.9782,10.9586,10.983,10.9342,10.9245,10.9245,10.9245,10.9245,10.9245,10.9245,10.889,10.8548,10.8548,10.7705,10.7021,10.7021,10.6519,10.6128,10.6128,10.5688,10.5361,10.5361,10.4971,10.4644,10.4644,10.4644,10.4644,10.4644,10.4644,10.4644,10.4644,10.4644,10.4644,10.4644,10.3439,10.282,10.282,10.282,10.282,10.282,10.282,10.282,11.1589,11.5054,11.9389,12.3197,12.4186,12.2752,11.7264,11.6683,11.5218,10.785,10.5312,10.4644,10.5508,10.4107,10.3146,10.4058,10.4204,10.4888,10.6938,10.8158,10.9245,11.0429,11.1587,11.2355,11.255,11.3343,11.3831,11.3685,11.4466,11.5088,11.5235,11.5088,11.5137,11.543,11.5284,11.5235,11.5235,11.5235,11.5284,11.543,11.5284,11.5235,11.5235,11.5528,11.5186,11.4222,11.3087,11.3673,11.5284,11.3185,11.3575,11.5381,11.4466,11.471,11.5625,11.5625,11.5625,11.5625,11.5625,11.5625,11.5625,11.5625,11.5088,11.4417,11.504,11.4698,11.3831,11.2648,11.3051,11.3197,11.0221,11.0123,11.0526,10.9489,10.9342,10.944,10.944,10.9342,10.9232,10.9085,10.8304,10.7656,10.7509,10.6582,10.5933,10.5933,10.5786,10.5654,10.5654,10.4824,10.4204,10.4204,10.339,10.282,10.282,10.282,10.282,10.282,10.282,10.282,10.282,10.282,10.282,10.282,10.282,10.282,10.282,10.282,10.282,10.282,10.282,10.282,11.4673,11.6476,11.8105,12.2004,12.2934,12.1461,11.589,11.4765,11.3466,10.8474,10.5766,10.4204,10.3536,10.3097,10.2902,10.3064,10.3097,10.3536,10.479,10.5947,10.7363,10.9294,11.0465,11.1489,11.2453,11.2697,11.2416,11.1453,11.1502,11.2075,11.3039,11.2172,11.2465,11.4319,11.3527,11.3087,11.3087,11.3087,11.3527,11.4368,11.3527,11.3087,11.3136,11.4893,11.5528,11.5284,11.338,11.3234,11.4173,11.2026,11.2416,11.4368,11.4173,11.471,11.5625,11.5625,11.5625,11.5625,11.5625,11.5625,11.5625,11.5625,11.5528,11.5088,11.3575,11.3575,11.3685,11.1684,11.1928,11.2453,11.0953,11.0673,11.0526,10.9489,10.9928,11.0526,11.0526,10.983,10.8988,10.8109,10.7767,10.7412,10.6533,10.5459,10.4726,10.4726,10.396,10.339,10.339,10.3243,10.3097,10.3097,10.2951,10.282,10.282,10.282,10.282,10.282,10.282,10.282,10.282,10.282,10.282,10.282,10.282,10.282,10.282,10.282,10.282,10.282,10.282,10.282,11.1764,11.4763,11.8137,11.9327,12.1131,12.103,11.4864,11.3885,11.255,10.6445,10.4317,10.3439,10.2951,10.282,10.2625,10.2121,10.2463,10.2999,10.3487,10.4497,10.5571,10.6596,10.8171,10.9427,10.9964,11.1001,11.1197,11.0074,11.0477,11.077,11.0842,11.0269,11.0465,11.1538,11.1587,11.1636,11.1636,11.2258,11.3087,11.4124,11.3587,11.3636,11.4112,11.2892,11.2611,11.3051,11.1526,11.177,11.3099,11.0904,11.1294,11.3197,11.2611,11.3051,11.4015,11.4015,11.4015,11.4015,11.4015,11.4015,11.4015,11.4015,11.3624,11.3148,11.3295,11.3295,11.3197,11.266,11.3295,11.3673,11.1355,11.1648,11.2087,11.0465,11.0429,11.0624,11.0123,10.9586,10.8792,10.7168,10.6875,10.6533,10.541,10.4741,10.4204,10.3634,10.3112,10.282,10.282,10.282,10.282,10.282,10.282,10.282,10.282,10.282,10.282,10.282,10.282,10.282,10.282,10.282,10.282,10.282,10.282,10.282,10.282,10.282,10.282,10.282,10.282,10.282,10.8772,11.2727,11.7528,11.7613,11.956,11.9795,11.3789,11.2982,11.1495,10.4284,10.2463,10.2219,10.2463,10.2121,10.1682,10.1325,10.1975,10.2609,10.2771,10.3536,10.4253,10.4692,10.6289,10.7461,10.7705,10.9147,10.9586,10.8269,10.9196,10.944,10.8646,10.8597,10.8695,10.889,10.9489,10.9782,10.9782,11.0696,11.1818,11.3051,11.2807,11.3392,11.4503,11.0855,10.983,11.077,10.9928,11.0562,11.2014,11.0061,11.0452,11.2111,11.116,11.1538,11.255,11.255,11.255,11.255,11.255,11.255,11.255,11.255,11.1965,11.1489,11.2953,11.3148,11.2941,11.3295,11.4319,11.4698,11.1928,11.227,11.2904,11.0916,10.9962,10.919,10.7923,10.6943,10.5999,10.4778,10.4517,10.4469,10.4118,10.4058,10.378,10.2917,10.282,10.282,10.282,10.282,10.282,10.282,10.282,10.282,10.282,10.282,10.282,10.282,10.282,10.282,10.282,10.2414,10.217,10.217,10.217,10.2268,10.2512,10.2512,10.2512,10.2512,10.2756,10.2707,11.0135,11.2003,11.4536,11.9184,11.8862,11.6292,11.2246,11.1249,10.9567,10.3954,10.1325,10.0251,10.1227,9.9779,9.9047,10.0983,10.1374,10.1731,10.2707,10.2917,10.3683,10.5703,10.6177,10.6631,10.7607,10.79,10.7084,10.4985,10.5898,10.6519,10.6421,10.6421,10.6826,10.7802,10.7021,10.6568,10.6568,10.6665,10.7705,10.9684,10.8743,10.9329,11.116,10.983,10.983,11.077,11.0673,11.077,11.0904,10.9733,10.9928,11.0965,11.0819,11.1538,11.255,11.255,11.255,11.255,11.255,11.255,11.255,11.255,11.2453,11.2258,11.1392,11.2429,11.3587,11.1648,11.266,11.3978,11.2697,11.1733,11.0819,10.9635,10.7308,10.4827,10.29,9.9675,9.7507,9.9126,9.9458,10.0188,10.2575,10.2966,10.2951,10.282,10.282,10.282,10.282,10.282,10.282,10.282,10.282,10.282,10.282,10.282,10.282,10.282,10.282,10.282,10.282,10.1032,9.9991,9.9991,9.9991,10.0479,10.1422,10.1422,10.1422,10.1438,10.2414,10.2316,10.2187,10.6179,11.0245,10.8306,11.0561,11.2924,11.1455,10.7959,10.4309,10.1553,10.0788,10.0593,10.0381,10.0153,9.9828,9.934,9.986,10.0446,10.0885,10.1487,10.2252,10.3115,10.4336,10.5264,10.5669,10.6338,10.6386,10.5508,10.5215,10.5117,10.5117,10.4497,10.4317,10.479,10.4985,10.5117,10.5117,10.5786,10.6875,10.8304,10.7865,10.7767,10.7998,10.7558,10.7607,10.7963,10.7963,10.7963,10.7998,10.7558,10.7963,10.8939,10.8939,10.9622,11.0549,11.0549,11.0549,11.0549,11.0549,11.0549,11.0549,11.0549,11.0549,11.0562,11.0721,11.1404,11.2075,11.188,11.2465,11.2904,11.1782,11.1684,11.0957,10.7375,10.2971,9.9371,9.8426,9.658,9.4987,9.4414,9.4306,9.4631,9.5741,9.5904,9.5904,9.5904,9.5904,9.5745,9.5255,9.5209,9.5837,9.7509,9.7696,9.8576,10.077,10.0934,10.0934,10.0934,10.0934,10.0934,10.0934,10.0186,9.9698,9.9698,9.9698,9.9942,10.0332,10.0332,10.0332,10.0332,10.0739,10.0739,9.616,10.038,10.4795,10.0826,10.3679,10.7624,10.8446,10.3306,9.8787,10.0307,10.0179,9.9714,9.9275,9.9275,9.908,9.812,9.8689,9.9356,9.9649,10.0349,10.0934,10.1227,10.2887,10.3878,10.3878,10.4971,10.5459,10.5166,10.4692,10.4253,10.396,10.3536,10.3146,10.282,10.3536,10.3878,10.3878,10.4741,10.5703,10.6694,10.6694,10.6157,10.5166,10.5166,10.5312,10.5605,10.5605,10.5801,10.6128,10.6128,10.6533,10.7216,10.7216,10.7705,10.8353,10.8695,10.8792,10.8792,10.8792,10.8988,10.9196,10.8855,10.8792,10.8952,11.0026,11.0367,11.0465,11.094,11.133,11.133,11.0172,10.8576,10.6329,10.2582,9.7707,9.3829,9.3268,9.1857,9.0482,8.9825,8.9664,9.0023,9.1167,9.1345,9.1345,9.1345,9.1163,9.0842,9.0294,8.9936,9.0539,9.2465,9.2677,9.3698,9.6253,9.7467,9.8104,9.8104,9.9097,9.8449,9.5711,9.5566,9.5566,9.5566,9.5566,9.6278,9.7623,9.7623,9.8191,9.9177,9.8449,9.7912,9.4586,9.5785,9.8252,10.0483,10.0058,9.9749,10.2491,9.7177,9.3715,10.1098,9.9312,9.6786,9.7779,9.6298,9.5596,9.7632,9.7974,9.8396,9.9551,9.9746,10.0105,10.1178,10.2219,10.282,10.282,10.378,10.4009,10.2951,10.378,10.396,10.2902,10.378,10.3878,10.2902,10.282,10.282,10.282,10.282,10.339,10.44,10.44,10.3912,10.2902,10.2902,10.3439,10.44,10.44,10.5068,10.6128,10.6128,10.6128,10.6177,10.6177,10.6177,10.6275,10.7314,10.7705,10.7705,10.7705,10.8353,10.905,10.8011,10.7705,10.79,10.8903,10.9245,10.9085,10.8011,10.8499,10.9036,10.7963,10.1312,9.4775,9.4445,9.1485,8.839,8.7226,8.4065,8.2239,8.522,8.579,8.6955,9.0703,9.1345,9.1345,9.1345,9.0668,9.0207,9.0163,8.9395,8.8843,8.8877,8.8877,8.8877,8.8946,9.2273,9.43,9.43,9.7696,9.5566,8.6242,8.5855,8.5855,8.5855,8.5855,8.8138,9.2784,9.2784,9.4563,9.7927,9.5437,9.379,9.0211,9.184,9.3393,9.1967,9.2722,9.4697,9.8448,9.6435,9.4486,9.6807,9.6832,9.6737,9.7779,9.7388,9.7225,9.7876,9.734,9.703,9.7403,9.8055,9.864,9.895,10.0007,10.069,10.069,10.1016,10.1666,10.2722,10.2463,10.274,10.3863,10.3536,10.3161,10.282,10.282,10.282,10.282,10.282,10.2999,10.3341,10.3341,10.3146,10.282,10.282,10.2999,10.3341,10.3341,10.3536,10.3912,10.3912,10.3912,10.396,10.4644,10.541,10.6177,10.6519,10.6631,10.6631,10.6631,10.6826,10.707,10.6763,10.6631,10.6679,10.7021,10.7119,10.6499,10.3445,10.288,10.2088,9.7659,9.2549,8.8815,8.9885,8.6792,8.3778,8.4595,8.2895,8.1554,8.2465,8.2224,8.2247,8.3437,8.366,8.3421,8.2788,8.2507,8.2145,8.1625,8.0745,8.0183,8.0183,8.1863,8.4009,8.6524,8.7769,8.8405,8.8405,8.9515,8.8847,8.5821,8.8032,8.9311,8.9311,9.1772,9.3738,9.5284,9.5284,9.5824,9.6901,9.6098,9.554,8.6682,8.8087,8.9335,8.8343,8.7982,8.891,9.3202,9.2587,9.1544,9.2765,9.3515,9.4443,9.5876,9.7144,9.7974,9.7974,9.7388,9.703,9.703,9.7535,9.7974,9.7974,9.8982,9.9551,9.908,9.9454,10.0284,10.1536,10.1422,10.1862,10.3131,10.2951,10.282,10.282,10.282,10.282,10.282,10.282,10.2658,10.2268,10.3048,10.3439,10.339,10.2999,10.3048,10.339,10.2999,10.282,10.282,10.282,10.282,10.2868,10.3536,10.4253,10.4922,10.5312,10.5459,10.5459,10.5459,10.5752,10.6079,10.5605,10.5459,10.5556,10.5981,10.4821,10.2794,10.039,9.868,9.6039,8.9281,8.5803,8.4459,8.6132,8.4091,8.2082,8.3488,8.2651,8.1702,8.1702,8.1057,8.0525,8.0525,7.9993,7.9386,7.8817,7.8172,7.7602,7.7108,7.6273,7.5741,7.5741,7.7257,7.9199,8.1462,8.2927,8.3629,8.3629,8.2417,8.1667,8.1667,8.3798,8.4965,8.4965,8.7207,8.9683,9.2365,9.0997,9.1707,9.4296,9.1578,9.0302,8.396,8.4647,8.6,8.8332,8.5661,8.3597,8.7776,8.7047,8.6341,8.9269,8.9874,9.0489,9.2442,9.5437,9.7681,9.7828,9.7925,9.7925,9.7876,9.7974,9.8072,9.8072,9.8982,9.9161,9.8072,9.8884,9.9551,9.9698,10.0593,10.1227,10.1341,10.2219,10.2722,10.2722,10.2625,10.2576,10.2576,10.2722,10.2316,10.1325,10.3228,10.4156,10.4156,10.3341,10.3439,10.4253,10.3341,10.2902,10.282,10.282,10.282,10.282,10.282,10.282,10.2917,10.3878,10.4302,10.4302,10.4302,10.5019,10.5737,10.4595,10.4084,10.4075,10.513,10.2079,9.8199,9.7872,9.5109,9.0446,8.3078,8.1171,8.1588,8.3298,8.3031,8.2688,8.3678,8.3145,8.2536,8.2536,8.1853,8.1322,8.1171,7.988,7.8741,7.859,7.7186,7.6197,7.6121,7.5473,7.5018,7.5018,7.5018,7.5018,7.5018,7.8023,7.9843,7.9721,7.6649,7.4828,7.4828,7.511,7.5251,7.5251,7.5533,7.89,8.5537,8.2182,8.4007,9.0359,8.3755,8.0675,8.3001,8.2816,8.3032,8.3605,8.5384,8.7771,9.0995,9.0223,8.8879,8.8781,8.881,8.8928,8.9445,9.21,9.4802,9.6493,9.7437,9.7681,9.6883,9.825,9.9275,9.9275,9.8787,9.8299,9.8023,9.7518,9.7891,9.96,9.9942,10.0788,10.2365,10.1926,10.1666,10.1666,10.0885,10.0446,10.0446,10.2024,10.2316,10.1276,10.1764,10.2008,10.2057,10.3423,10.3683,10.3243,10.378,10.3585,10.282,10.282,10.282,10.282,10.282,10.282,10.2902,10.3097,10.3195,10.3195,10.3195,10.339,10.3536,10.3292,10.1242,9.8926,9.9195,9.6371,9.2478,8.9608,8.6043,8.2709,8.0828,8.0373,8.0791,8.2385,8.2574,8.284,8.436,8.4018,8.3488,8.3488,8.2765,8.1739,8.0563,8.0031,7.912,7.7108,7.6463,7.5969,7.5397,7.5131,7.5018,7.5018,7.5018,7.5018,7.5018,7.5792,7.5706,7.4392,7.3528,7.3084,7.3084,7.5744,7.7262,7.7262,7.9885,8.2119,8.3782,8.355,8.4259,8.587,8.4897,8.4438,8.2833,8.284,8.249,8.1486,8.3342,8.5912,8.7459,8.7052,8.632,8.6222,8.6222,8.6662,8.8175,8.9806,9.2002,9.5206,9.6182,9.6493,9.6444,9.7452,9.8347,9.8836,9.8364,9.7974,9.7974,9.7469,9.7615,9.8836,9.986,10.0934,10.2072,10.2024,10.1975,10.1975,10.1471,10.1178,10.1178,10.2268,10.2316,10.1325,10.2252,10.2691,10.274,10.3341,10.3341,10.282,10.2935,10.2643,10.2121,10.2121,10.2414,10.282,10.282,10.282,10.282,10.282,10.282,10.282,10.282,10.282,10.282,10.282,10.1447,9.9487,9.7714,9.4463,9.056,8.6773,8.3028,8.0145,8.0525,8.0867,8.1474,8.2765,8.3295,8.3826,8.4777,8.4625,8.417,8.3868,8.3031,8.2043,8.0791,7.9956,7.8855,7.7108,7.6463,7.5893,7.5131,7.5018,7.5018,7.5018,7.5018,7.4866,7.4451,7.4413,7.3843,7.259,7.2514,7.2514,7.2514,7.4414,7.5456,7.5456,7.7313,7.9128,8.0802,7.9527,7.9743,8.1368,8.0216,7.9655,8.2805,8.3467,8.3146,8.1261,8.1509,8.2272,8.2272,8.2272,8.2516,8.3418,8.3613,8.4416,8.7199,8.8126,8.964,9.3283,9.4309,9.4962,9.6036,9.6444,9.6981,9.7876,9.7974,9.7974,9.7974,9.7974,9.8023,9.8218,10.0153,10.1374,10.152,10.2219,10.2609,10.2609,10.2463,10.2512,10.282,10.2707,10.217,10.1325,10.3082,10.3912,10.3912,10.3341,10.2999,10.2771,10.1877,10.1422,10.1276,10.1129,10.1536,10.2365,10.2365,10.2429,10.2609,10.2609,10.2707,10.282,10.282,10.282,10.2753,10.2168,10.1548,10.0384,9.6563,9.2694,8.8986,8.5753,8.2543,8.0221,8.0905,8.1588,8.2271,8.3184,8.398,8.4587,8.4739,8.4777,8.4549,8.3906,8.3031,8.2119,8.1246,7.9918,7.8627,7.7678,7.688,7.6159,7.5511,7.5397,7.5397,7.5397,7.5169,7.4714,7.3922,7.3656,7.3163,7.2362,7.2173,7.2135,7.2135,7.2135,7.2135,7.2135,7.2135,7.3619,7.6723,7.3735,7.3914,7.6858,7.3861,7.2514,8.1904,8.288,8.3515,8.3146,8.3195,8.3369,8.3369,8.3369,8.3418,8.3537,8.3613,8.376,8.4221,8.6564,8.8664,8.9298,9.1661,9.376,9.4913,9.659,9.7779,9.7974,9.7974,9.7974,9.7974,9.7974,9.8364,9.9356,10.0593,10.1633,10.2527,10.1877,10.152,10.152,10.0641,10.1032,10.282,10.1975,10.1422,10.1276,10.1618,10.1764,10.1813,10.3423,10.3634,10.2853,10.2625,10.2072,10.1194,10.03,10.0039,10.0153,10.0153,10.0739,10.152,10.152,10.2072,10.282,10.282,10.282,10.2302,9.9098,9.5835,9.2411,8.8583,8.4837,8.1687,8.1124,8.0522,8.0107,8.0221,8.0335,8.0639,8.1436,8.2272,8.303,8.3792,8.3982,8.3906,8.3792,8.3031,8.1967,8.0525,8.0031,7.9348,7.7792,7.745,7.7298,7.7184,7.7146,7.7146,7.7146,7.5891,7.498,7.4828,7.3501,7.2325,7.1595,7.0806,7.0355,7.0355,7.0355,7.0355,7.0355,7.0355,7.0654,7.1179,7.1412,7.1789,7.2361,7.2445,7.2514,8.1881,8.237,8.2761,8.2761,8.3173,8.3613,8.3613,8.3613,8.3613,8.3613,8.3613,8.376,8.4318,8.5197,8.6759,8.9631,9.1338,9.2851,9.462,9.5694,9.6249,9.6249,9.6786,9.734,9.7925,9.7974,9.8169,9.8738,10.0349,10.152,10.1975,10.2072,10.2121,10.2121,10.1633,10.1877,10.2853,10.2365,10.2121,10.2121,10.2121,10.2121,10.217,10.3097,10.2951,10.1975,10.1975,10.1389,10.043,9.9942,9.9698,9.9698,9.9698,10.0039,10.043,10.043,10.0739,10.1227,10.178,10.1975,10.1807,10.0599,9.7646,9.3796,8.9915,8.469,8.0069,8.0069,7.9727,7.9348,7.9348,7.9727,8.0183,8.0525,8.155,8.2536,8.2916,8.3031,8.2917,8.2499,8.2082,8.1436,8.0297,8.0069,7.9652,7.8362,7.8172,7.8057,7.7602,7.7108,7.6804,7.6804,7.5739,7.4828,7.4337,7.3198,7.2207,7.1405,7.0953,7.0502,7.0013,6.9976,6.9976,6.9976,6.9976,6.9976,6.9976,7.0426,7.0578,7.0616,7.0996,7.1148,8.1881,0.0,8.3125,8.3125,8.3564,8.3928,0.0,8.376,8.3613,8.3613,8.3613,8.383,8.466,8.4318,8.5365,8.9699,9.087,9.1875,9.3839,9.4278,9.462,9.5157,9.5938,9.6834,9.7876,9.7974,9.7974,9.7974,9.9812,10.0885,10.0885,10.1877,10.2463,10.2463,10.0586,9.9924,10.0824,10.0858,10.1225,10.2121,10.2365,10.2463,10.2463,10.2722,10.2414,10.1633,10.1341,10.069,9.9698,9.9454,9.9161,9.8965,9.8965,9.9112,9.9307,9.9307,9.9502,9.9844,10.0641,10.0885,10.1081,10.2121,9.9468,9.4918,9.0173,8.4371,7.95,7.95,7.912,7.8704,7.8514,7.912,7.9727,7.9538,8.0715,8.1853,8.1853,8.2005,8.1967,8.136,8.1095,8.0791,8.0183,8.0069,7.9841,7.9158,7.9045,7.8741,7.7943,7.7222,7.6729,7.6539,7.5625,7.4752,7.4071,7.3274,7.2514,7.1941,7.1713,7.1143,7.0013,6.9976,6.9786,6.9406,6.9368,6.9368,6.9368,6.9596,6.9786,6.9976,6.9976,6.9976,0.0,8.4123,8.6361,8.6361,8.5678,8.5023,8.5023,8.4269,0.0,8.3613,8.3613,8.3613,8.3711,8.4416,8.5462,8.6849,8.8801,9.0509,9.1601,9.2607,9.4004,9.6085,9.6378,9.6834,9.7876,9.7974,9.7974,9.7974,9.9128,9.9844,9.9844,10.0837,10.1422,10.1422,9.3881,9.147,9.4832,9.4866,9.6588,9.9942,10.0934,10.1422,10.1422,10.2414,10.2804,10.2658,10.1682,10.069,9.9649,9.8543,9.7518,9.6639,9.6639,9.7225,9.8072,9.8072,9.8787,9.9746,9.9795,9.9844,9.9991,10.1032,9.6992,9.0424,8.3102,7.9415,7.7716,7.7716,7.8247,7.8552,7.783,7.821,7.8628,7.7905,7.9044,8.0259,8.0259,8.0829,8.1322,8.1284,8.0677,8.0145,8.0069,8.0069,8.0069,7.9993,7.9993,7.9652,7.8741,7.859,7.8248,7.7526,7.6005,7.498,7.4942,7.4074,7.3581,7.3505,7.2818,7.1679,7.0051,6.9976,6.9255,6.7655,6.7617,6.7617,6.7655,6.849,6.9287,6.9976,6.9976,6.9976,8.0702,8.3288,8.5581,8.4925,8.4925,8.5121,8.5121,8.4318,8.3613,8.3613,8.3613,8.3613,8.3613,8.3928,8.5169,8.8264,8.9435,9.088,9.3271,9.3936,9.4522,9.5352,9.6036,9.6542,9.6981,9.703,9.703,9.703,9.8006,9.864,9.864,9.7532,9.7622,9.9178,9.6849,9.5179,9.4266,9.4266,9.3832,9.2947,9.3358,9.3495,9.3541,9.3906,9.5727,9.8446,9.8068,9.8938,0.0,10.0202,9.8982,9.742,9.742,9.7225,9.703,9.703,9.7274,9.7745,9.8396,9.7191,9.5562,9.6569,9.3668,8.8783,8.3616,7.9923,7.7564,7.7564,7.7374,7.7108,7.6766,7.6956,7.7222,7.7488,7.8437,7.9386,7.9955,8.0335,8.0525,8.0525,8.0297,8.0069,8.0069,8.0069,8.0069,8.0069,7.9576,7.912,7.8779,7.7793,7.7032,7.6729,7.5701,7.5018,7.5018,7.4185,7.3467,7.297,7.2245,7.1224,7.0013,6.9976,6.9444,6.83,6.83,6.7996,6.7465,6.7807,6.811,6.8452,6.8984,6.9249,8.1336,8.3434,8.5462,8.473,8.5121,8.556,8.5218,8.4611,8.3976,8.3662,8.3613,8.3613,8.3613,8.3613,8.4758,8.8362,8.8947,9.0001,9.2911,9.3595,9.3808,9.3808,9.5059,9.5938,9.5938,9.62,9.6395,9.6395,9.7078,9.7518,9.7518,9.6205,9.5569,9.5764,9.4328,9.291,9.1566,9.0415,8.9201,8.7866,8.8206,8.8337,8.8337,8.8677,9.0613,9.3612,9.3612,9.5483,9.8582,9.8919,9.8642,9.7974,9.7974,9.7535,9.6883,9.6542,9.6395,9.6493,9.7225,9.5171,9.2348,9.3446,9.0492,8.6148,8.3857,8.0172,7.6765,7.6765,7.6463,7.6159,7.5893,7.6197,7.6691,7.7032,7.7945,7.8893,7.95,7.9879,8.0069,8.0069,8.0069,8.0069,8.0069,8.0069,7.9993,7.9727,7.9158,7.8514,7.7983,7.6918,7.6083,7.5855,7.5359,7.4904,7.4638,7.3998,7.3353,7.2552,7.2017,7.1186,7.0013,6.9976,6.9444,6.8376,6.8376,6.7953,6.7079,6.7313,6.7313,6.7117,6.7958,6.8376,8.3613,8.5121,8.6675,8.6675,8.6675,8.6382,8.5365,8.5121,8.4828,8.3781,8.3613,8.3613,8.3613,8.3613,8.4269,8.6361,8.6675,8.7484,8.9679,9.087,9.1552,9.1552,9.3515,9.4846,9.4846,9.5792,9.6346,9.6395,9.6395,9.6395,9.6395,9.7276,9.5716,9.108,8.4025,8.2077,8.5654,8.2111,8.2077,8.5621,8.6679,8.7148,8.7192,8.82,8.874,8.8774,8.8774,9.0257,9.2778,9.3783,9.5671,9.7878,9.7878,9.791,9.7764,9.6723,9.6364,9.6395,9.6364,9.393,9.1121,9.225,8.7579,8.1735,8.2809,7.9302,7.5018,7.5018,7.5625,7.6007,7.5245,7.6271,7.7298,7.6425,7.7489,7.8741,7.8741,7.9424,8.0069,8.0069,8.0069,8.0069,8.0069,8.0107,7.9765,7.8855,7.8704,7.8096,7.6425,7.6197,7.5893,7.5093,7.5053,7.464,7.377,7.3622,7.3315,7.2552,7.2476,7.1717,7.0051,6.9976,6.9179,6.7503,6.7465,6.7079,6.6313,6.7079,6.7041,6.6281,6.7047,6.7427,8.3146,8.4562,8.5581,8.5581,8.5581,8.5511,8.5218,8.4562,8.3928,8.3635,8.3613,8.3613,8.3613,8.3613,8.4025,8.5365,8.5581,8.639,8.8586,8.9806,9.0753,9.1455,9.2753,9.3613,9.3613,9.3906,9.4443,9.5255,9.5987,9.6395,9.6395,9.1335,8.8022,8.7306,8.521,8.3359,8.194,8.0812,7.9579,7.8202,7.851,7.8629,7.8704,7.9012,8.092,8.4036,8.4036,8.6282,8.9984,9.0295,9.0426,9.0455,9.0455,9.1055,9.1994,9.2434,9.3754,9.506,9.3248,9.0269,8.692,8.4671,8.0808,7.706,7.7329,7.6318,7.5018,7.5018,7.5207,7.5321,7.5093,7.5397,7.6005,7.6918,7.7526,7.8247,7.9424,7.9879,8.0069,8.0069,8.0069,8.0069,8.0069,7.9576,7.9007,7.8779,7.7717,7.6766,7.6273,7.5703,7.5283,7.5056,7.4451,7.396,7.3694,7.2666,7.1941,7.1675,7.1072,7.0507,7.0013,6.9976,6.9515,6.8414,6.8414,6.7725,6.6313,6.6509,6.6205,6.5339,6.5574,6.6022,8.2463,8.3418,8.3976,8.4416,8.4828,8.4925,8.4074,8.4025,8.3976,8.3125,8.3271,8.3613,8.3613,8.3613,8.3928,8.4974,8.5121,8.5755,8.7512,8.8684,8.9611,9.0265,9.1241,9.2021,9.246,9.2509,9.2948,9.4083,9.3574,9.3146,9.3146,8.8545,8.5531,8.4776,8.3322,8.1564,7.9379,7.8206,7.6577,7.4489,7.4866,7.5018,7.5018,7.5018,7.6591,7.9277,7.9277,8.1613,8.5459,8.5911,8.6575,8.725,8.725,8.7793,8.855,8.8454,8.9403,9.0408,8.8491,8.5784,8.275,8.0517,7.7207,7.4106,7.4375,7.4489,7.46,7.4942,7.5018,7.5093,7.5435,7.5245,7.5473,7.7146,7.8094,7.8854,7.9841,8.0069,8.0069,8.0069,8.0069,7.9955,7.9576,7.912,7.8514,7.7831,7.688,7.6083,7.5741,7.5321,7.5018,7.5018,7.4223,7.3429,7.2818,7.1865,7.1181,7.0806,7.0312,6.9976,6.9976,6.9976,6.9748,6.9255,6.9287,6.8604,6.7307,6.7307,6.6661,6.5491,6.5491,6.5567,8.1562,8.193,8.2272,8.3222,8.4221,8.4465,8.2468,8.3515,8.4318,8.2419,8.281,8.3467,8.3564,8.3613,8.3879,8.4828,8.5072,8.5511,8.6529,8.7707,8.8468,8.8566,8.9416,9.0362,9.1309,9.1406,9.1845,9.29,9.0212,8.8355,8.7982,8.7436,8.5625,8.2309,7.9137,7.742,7.742,7.4846,7.3581,7.3581,7.441,7.479,7.479,7.479,7.479,7.479,7.4866,7.6727,7.9739,8.0915,8.3258,8.6134,8.6134,8.6295,8.6307,8.4726,8.4197,8.4089,8.3131,8.1133,7.8937,7.8639,7.5783,7.2628,7.3353,7.3581,7.3732,7.4562,7.479,7.4942,7.5665,7.5324,7.5207,7.6804,7.8512,7.9727,7.9841,7.9841,7.9841,7.9841,7.9841,7.9614,7.8741,7.8552,7.7945,7.6425,7.6121,7.5817,7.5131,7.5018,7.498,7.4904,7.4109,7.2935,7.1481,7.1257,7.0877,7.0013,6.9976,6.9976,6.9976,6.9976,6.9976,6.9976,6.9976,6.9596,6.8794,6.8794,6.7991,6.6357,6.6313,6.5863,8.0334,8.134,8.2103,8.2321,8.3125,8.3613,8.2321,8.237,8.2565,8.2126,8.2223,8.2587,8.3418,8.3613,8.3662,8.3879,8.4611,8.5511,8.6529,8.7707,8.8761,8.9562,8.9855,9.007,9.0314,9.0314,9.0723,9.1796,9.1246,8.9338,8.5852,8.1281,7.7569,7.4877,7.4075,7.3667,7.3667,7.3078,7.278,7.278,7.2932,7.3046,7.3046,7.3046,7.3046,7.3118,7.3691,7.4376,7.518,7.6173,7.6975,7.7639,7.7639,7.8836,8.0616,8.1049,8.1997,8.2883,8.0742,7.9217,7.7705,7.4852,7.3279,7.2552,7.2704,7.278,7.2818,7.297,7.3046,7.3084,7.3236,7.316,7.3274,7.4264,7.5782,7.7222,7.798,7.8132,7.8132,7.8132,7.8132,7.8019,7.783,7.7222,7.6615,7.6273,7.5665,7.5207,7.5056,7.5018,7.4752,7.4036,7.3274,7.2362,7.1409,7.0654,7.0165,7.0013,6.9976,6.9976,6.9976,6.9976,6.9976,6.9976,6.9976,6.9596,6.8794,6.8794,6.8262,6.7161,6.6547,6.6199,7.9261,7.9996,8.0559,8.107,8.205,8.2539,8.1438,8.1975,8.249,8.1438,8.205,8.2783,8.2832,8.3271,8.3613,8.3613,8.4465,8.5511,8.6529,8.7707,8.883,8.9904,8.9972,8.9972,8.9972,8.9972,9.0216,9.0802,9.085,8.9801,8.7515,8.1454,7.599,7.1434,7.1299,7.1299,7.1299,7.1717,7.1941,7.1941,7.2325,7.2514,7.2514,7.2514,7.2514,7.2514,7.2935,7.3087,7.3125,7.3615,7.4068,7.4375,7.4375,7.5419,7.6975,7.7044,7.7651,7.8157,7.612,7.5361,7.4939,7.27,7.2173,7.2438,7.2055,7.2245,7.259,7.2935,7.2818,7.2666,7.3463,7.3084,7.2818,7.4033,7.4982,7.5891,7.6729,7.726,7.7564,7.7564,7.7564,7.7412,7.6994,7.6501,7.6083,7.5665,7.5283,7.5018,7.5018,7.464,7.3403,7.0796,7.1369,7.0884,6.8268,6.9239,6.9976,6.9976,6.9976,6.9976,6.9976,6.9976,6.9976,6.9976,6.9976,6.9786,6.9401,6.9401,6.8946,6.8072,6.7687,6.7041,7.819,7.8604,7.8945,7.9771,8.0874,8.1438,8.048,8.1677,8.2534,8.0946,8.2046,8.3076,8.2419,8.2978,8.3613,8.3613,8.4465,8.5511,8.6529,8.7707,8.883,8.9904,8.9972,8.9972,8.9972,8.9972,8.9972,8.9972,8.9972,8.9972,8.9972,8.4218,7.8105,7.1938,7.1157,7.0603,6.9976,7.0692,7.1105,7.1105,7.1755,7.2059,7.2059,7.2059,7.2059,7.2097,7.2211,7.2321,7.2287,7.2438,7.2894,7.3467,7.3467,7.3919,7.4524,7.3884,7.3581,7.3315,7.2135,7.2093,7.2362,7.1599,7.1675,7.1983,7.1637,7.1903,7.2438,7.3239,7.2932,7.2663,7.4182,7.346,7.2701,7.422,7.4714,7.498,7.5628,7.6463,7.7108,7.7108,7.7108,7.688,7.6121,7.6007,7.5741,7.5131,7.5018,7.5018,7.5018,7.3696,7.1185,6.7244,6.8363,6.808,6.4818,6.7304,6.9275,6.9942,6.9976,6.9976,6.9976,6.9976,6.9976,6.9976,6.9976,6.9976,6.9976,6.9976,6.9634,6.9022,6.887,6.8067,7.7092,7.8043,7.875,7.8896,7.9749,8.048,8.0308,8.0529,8.0946,8.1659,8.2028,8.2468,8.3222,8.3515,8.3613,8.3613,8.4465,8.5511,8.6529,8.7707,8.883,8.9904,8.9972,8.9972,8.9972,8.9972,8.9972,8.9972,8.9972,8.9972,8.9972,8.6376,8.2586,7.886,7.5892,7.2942,7.0009,7.0089,7.0165,7.0165,7.0279,7.0317,7.0317,7.0317,7.0317,7.0355,7.1143,7.1485,7.1523,7.2245,7.2552,7.2666,7.2666,7.2742,7.2894,7.3467,7.3239,7.2742,7.3201,7.3008,7.2362,7.1599,7.0877,7.0545,7.1945,7.1941,7.1637,7.2438,7.2093,7.1713,7.259,7.2169,7.1713,7.259,7.3388,7.3884,7.3998,7.4716,7.5359,7.5359,7.5359,7.5321,7.5207,7.5169,7.5131,7.5053,7.5018,7.5018,7.5018,7.1468,6.8163,6.6122,6.3389,6.2499,6.4378,6.4984,6.6599,6.9777,6.9976,6.9976,6.9976,6.9976,6.9976,6.9976,6.9976,6.9976,6.9976,6.9976,6.9938,6.9824,6.9135,6.8712,7.5969,7.7067,7.7848,7.7848,7.8652,7.9407,7.9407,7.9869,8.0432,8.0946,8.1562,8.2175,8.2614,8.2685,8.2685,8.2685,8.4074,8.5316,8.5776,8.7854,8.9513,8.9923,8.9972,8.9972,8.9972,8.9972,8.9972,8.9972,8.9972,8.9161,8.7259,8.399,8.0703,7.7346,7.3972,7.1479,7.0009,6.9976,6.9976,6.9976,6.9976,6.9976,6.9976,6.9976,6.9976,7.0013,7.0426,7.0578,7.0616,7.0958,7.1375,7.1865,7.1865,7.2097,7.2552,7.2894,7.2818,7.2476,7.24,7.24,7.2362,7.1599,7.1371,7.1451,7.1751,7.1941,7.2169,7.2935,7.259,7.2207,7.2935,7.259,7.2093,7.24,7.3122,7.3694,7.3694,7.4375,7.5018,7.5018,7.5018,7.5018,7.5018,7.5018,7.5018,7.5018,7.5018,7.412,7.1578,6.9083,6.5458,6.0069,5.9484,5.9166,5.8394,6.2136,6.5186,6.6836,6.8844,6.9976,6.9976,6.9976,6.9786,6.9325,6.9325,6.9065,6.8534,6.8534,6.8534,6.8534,6.8718,6.8528,7.4846,7.5921,7.6799,7.6799,7.7555,7.8408,7.8652,7.931,7.9869,7.9869,8.0777,8.1513,8.122,8.1415,8.1611,8.1611,8.3146,8.4465,8.4709,8.7073,8.8976,8.9562,8.9611,8.9708,9.0001,8.9972,8.9874,8.966,8.9826,8.8896,8.6376,8.3106,7.98,7.6435,7.304,7.0861,6.9976,6.9976,6.9976,6.9976,6.9976,6.9976,6.9976,6.9976,6.9976,6.9976,6.9976,6.9976,6.9976,6.9976,7.0388,7.0991,7.0991,7.1337,7.1907,7.2097,7.2245,7.2093,7.1295,7.1409,7.1793,7.1447,7.1561,7.1831,7.1675,7.1903,7.2362,7.3125,7.2818,7.2438,7.3429,7.3087,7.2552,7.278,7.3426,7.396,7.3732,7.4375,7.5018,7.5018,7.5018,7.5018,7.5018,7.5018,7.5018,7.5018,7.5018,7.3291,6.8553,6.5561,6.144,5.5012,5.5361,5.5341,5.3607,5.8533,6.2102,6.3054,6.6532,6.8466,6.8243,6.914,6.9325,6.849,6.8452,6.811,6.7465,6.7465,6.7465,6.7465,6.8148,6.8072,7.3651,7.4798,7.5701,7.5701,7.6458,7.7507,7.8506,7.8773,7.8799,7.8799,7.9651,8.009,7.9092,7.97,8.0357,8.0357,8.1389,8.2516,8.3515,8.4633,8.6194,8.8273,8.8517,8.8879,8.9874,8.9972,8.9611,8.8615,8.9464,8.9914,8.9738,8.6526,8.3198,7.9925,7.6562,7.3235,7.0009,6.9976,6.9976,6.9976,6.9976,6.9976,6.9976,6.9976,6.9976,6.9976,6.9976,6.9976,6.9976,6.9976,7.0013,7.0051,7.0051,7.0089,7.0203,7.1067,7.1371,7.1257,7.0388,7.0089,7.0241,7.1067,7.0768,7.0393,7.1983,7.1979,7.1561,7.2325,7.2017,7.1751,7.3277,7.3087,7.2704,7.3429,7.4299,7.4714,7.3846,7.4375,7.5018,7.5018,7.5018,7.5018,7.5018,7.5018,7.5018,7.5018,7.5018,7.3104,6.7808,6.0171,5.4834,5.3653,5.0444,4.9767,5.3149,5.3818,5.551,5.8986,6.2748,6.4431,6.3557,6.6962,6.8452,6.7541,6.7503,6.7503,6.7465,6.7465,6.7465,6.7465,6.7503,6.7503,7.2601,7.3651,7.4481,7.4481,7.5335,7.6287,7.6653,7.7263,7.7921,7.8604,7.8506,7.8555,7.9554,7.8945,7.8506,7.9163,8.0852,8.2175,8.2516,8.4633,8.6459,8.724,8.7337,8.7484,8.7825,8.7874,8.7728,8.7337,8.8391,8.8058,8.5834,8.3276,8.0298,7.6934,7.3552,7.1223,6.9976,6.9976,6.9976,6.9976,6.9976,6.9976,6.9976,6.9976,6.9976,6.9976,6.9976,6.9976,6.9976,6.9976,6.9976,6.9976,6.9976,6.9976,7.0013,7.035,7.0464,7.0426,7.0089,6.9976,7.0013,7.0388,7.0274,7.0203,7.1409,7.1561,7.1485,7.2321,7.2321,7.2211,7.278,7.2704,7.259,7.2856,7.316,7.3346,7.3008,7.316,7.3539,7.4071,7.4185,7.4337,7.4942,7.5018,7.5018,7.5018,7.2542,6.7845,6.0057,5.648,5.3414,5.0178,4.8615,4.8364,4.9731,5.2055,5.3999,5.5336,5.888,6.1595,6.3088,6.4481,6.5671,6.6674,6.6699,6.6433,6.5839,6.5839,6.5839,6.5839,6.6402,6.6699,7.1696,7.2552,7.3358,7.3358,7.4212,7.5115,7.5506,7.6141,7.6726,7.7042,7.6872,7.6823,7.7481,7.7067,7.6995,7.8043,8.0022,8.1611,8.1979,8.4123,8.5776,8.6118,8.6166,8.6313,8.6626,8.641,8.6166,8.6166,8.6261,8.5396,8.309,7.9785,7.6883,7.4642,7.1586,6.9976,6.9976,6.9976,6.9976,6.9976,6.9976,6.9976,6.9976,6.9976,6.9976,6.9976,6.9976,6.9976,6.9976,6.9976,6.9976,6.9976,6.9976,6.9976,6.9976,6.9976,6.9976,6.9976,6.9976,6.9976,6.9976,6.9976,6.9976,7.0089,7.0692,7.0877,7.0991,7.1527,7.1679,7.1717,7.2021,7.2131,7.2207,7.2438,7.2514,7.2514,7.2514,7.2514,7.2666,7.3198,7.3277,7.3501,7.4106,7.4182,7.4258,7.4527,7.075,6.4639,5.5766,5.3292,5.1177,4.813,4.7817,4.7817,4.7817,5.0123,5.1552,5.1552,5.4816,5.7971,6.0748,6.1898,6.3541,6.577,6.6129,6.5863,6.4928,6.5232,6.5194,6.4966,6.5529,6.5794,7.0938,7.1403,7.221,7.2259,7.304,7.4139,7.531,7.5603,7.5286,7.4139,7.4798,7.492,7.2796,7.4138,7.5896,7.6946,7.8896,8.0653,8.1833,8.288,8.3928,8.4974,8.5121,8.5483,8.648,8.5678,8.5044,8.4961,8.323,8.213,8.2013,7.6703,7.364,7.364,7.1235,6.9938,6.9938,6.9976,6.9976,6.9976,6.9976,6.9976,6.9976,6.9976,6.9976,6.9976,6.9976,6.9976,6.9976,6.9976,6.9976,6.9976,6.9976,6.9976,6.9976,6.9976,6.9976,6.9976,6.9976,6.9976,6.9976,6.9976,6.9976,6.9976,6.9976,6.9976,6.9976,6.9976,6.9976,7.0165,7.1067,7.1329,7.1485,7.2283,7.2438,7.2438,7.2438,7.2438,7.2438,7.2438,7.2476,7.2476,7.2514,7.2514,7.2746,7.3366,6.9561,6.3748,5.5671,5.062,4.7817,4.7817,4.7817,4.7817,4.7817,4.7817,4.7817,4.7817,5.0656,5.3499,5.6131,5.9227,6.2117,6.4683,6.5763,6.5863,6.4928,6.5863,6.5826,6.4928,6.4928,6.4928,6.8233,6.9138,7.0091,7.0964,7.1989,7.304,7.409,7.5017,7.5506,7.5213,7.4749,7.4456,7.4675,7.4505,7.4725,7.5896,7.7799,7.9505,8.0604,8.2414,8.3684,8.3976,8.4025,8.4123,8.4416,8.4172,8.31,8.0797,8.0832,7.9981,7.7693,7.4595,7.2816,7.2816,7.0443,6.9135,6.9135,6.9672,6.9976,6.9976,6.9976,6.9976,6.9976,6.9976,6.9976,6.9976,6.9976,6.9976,6.9976,6.9976,6.9976,6.9976,6.9976,6.9976,6.9976,6.9976,6.9976,6.9976,6.9976,6.9976,6.9976,6.9976,6.9976,6.9976,6.9976,6.9976,6.9976,6.9976,6.9976,7.0051,7.0312,7.035,7.0426,7.0621,7.0659,7.0659,7.0659,7.0659,7.0882,7.1523,7.1671,7.1827,7.24,7.2514,7.1694,6.9277,6.2228,5.6599,5.4838,5.062,4.7817,4.7817,4.7817,4.7817,4.7817,4.7817,4.7817,4.7817,4.8273,4.9794,5.2603,5.5533,5.8385,6.1229,6.4604,6.5863,6.4928,6.5863,6.5826,6.4928,6.4928,6.4928,6.7701,6.8215,6.8508,6.9209,6.9795,7.0674,7.2212,7.3089,7.3699,7.4138,7.4065,7.3944,7.4187,7.4407,7.4944,7.6067,7.7653,7.9092,8.0113,8.1385,8.2387,8.288,8.2512,8.2192,8.2192,8.2685,8.2179,8.0367,7.8777,7.7076,7.5274,7.1811,6.9919,6.9919,6.8815,6.8224,6.8224,6.8718,6.8913,6.8913,6.8913,6.8913,6.8913,6.8913,6.8913,6.8913,6.8913,6.9141,6.9482,6.9824,6.9786,6.9591,7.0274,7.0279,6.9938,6.9596,6.971,6.9976,6.9976,6.9976,6.9976,6.9976,6.9976,6.9976,6.9976,6.9976,6.9976,6.9976,6.9976,6.9976,6.9976,6.9976,6.9976,6.9976,6.9976,6.9976,6.9976,6.9976,7.0127,7.0654,7.0801,7.092,7.1375,7.0196,6.7906,6.4185,5.9115,5.4785,5.2135,4.9446,4.7817,4.7817,4.7817,4.7817,4.7817,4.7817,4.7817,4.7817,4.71,4.8085,5.118,5.2446,5.5227,5.9752,6.2649,6.4205,6.4435,6.5301,6.5111,6.3934,6.3934,6.3934,6.8264,6.7994,6.7164,6.7408,6.7457,6.7994,0.0,7.055,7.0866,7.194,7.2991,7.3456,7.2649,7.4187,7.5896,7.6848,7.7897,7.8945,7.9993,8.021,8.0653,8.1513,8.0728,8.0162,8.0259,8.0952,8.1198,8.0878,7.633,7.3461,7.3083,6.866,6.6129,6.6129,6.6927,6.7313,6.7313,6.7389,6.7465,6.7465,6.7465,6.7465,6.7465,6.7465,6.7465,6.7465,6.7465,6.7921,6.8718,6.9439,6.9255,6.8794,7.0308,7.0388,6.9596,6.8908,6.9097,6.971,6.971,6.9748,6.9862,6.9862,6.99,6.9976,6.9976,6.9976,6.9976,6.9976,6.9976,6.9976,6.9976,6.9976,6.9976,6.9976,6.9976,6.9976,6.9976,6.9976,6.9976,6.9976,6.9976,6.9976,6.9976,6.7304,6.3732,5.9537,5.8193,5.5271,4.8687,4.7817,4.7817,4.7817,4.7817,4.7817,4.7817,4.7817,4.7791,4.7739,4.6798,4.7571,5.055,4.9943,5.2625,5.9187,6.0357,6.1834,6.3744,6.4435,6.4048,6.2588,6.2588,6.255,0.0,0.0,0.0,0.0,0.0,0.0,0.0,6.9337,6.9652,7.0817,7.1892,7.2796,7.3456,7.47,7.5652,7.5896,7.6799,7.7848,7.8896,7.9749,8.0041,7.9459,7.9189,7.9358,8.021,7.8384,7.6104,7.3601,7.1039,6.8493,6.5937,6.5403,6.5225,6.5225,6.6053,6.6541,6.6541,6.7155,6.7465,6.7465,6.7465,6.7465,6.7465,6.7465,6.7465,6.7465,6.7465,6.7541,6.7731,6.7883,6.7845,6.7731,6.8072,6.8072,6.7921,6.7769,6.7807,6.7958,6.7958,6.8414,6.9022,6.9022,6.9477,6.9976,6.9976,6.9976,6.9976,6.9976,6.9976,6.9976,6.9976,6.9976,6.9976,6.9976,6.9976,6.9976,6.9976,6.9976,6.9976,6.9976,6.9976,6.9976,6.9976,6.9413,6.6632,5.9914,5.3794,4.9446,4.8032,4.7817,4.7817,4.7817,4.7817,4.7817,4.7817,4.7817,4.7645,4.7204,4.6625,4.6337,4.6453,4.8452,5.1524,5.5704,5.8632,6.1289,6.3744,6.3896,6.3509,6.2588,6.2588,6.2179,0.0,0.0,0.0,0.0,0.0,0.0,0.0,0.0,0.0,0.0,0.0,7.0992,7.2112,0.0,7.4334,7.5408,7.6043,7.6751,7.7774,7.8408,7.8555,7.8018,7.7946,7.7606,7.6701,7.5764,7.3969,7.0977,6.887,6.7063,6.5467,6.4731,6.4321,6.4321,6.5149,6.5605,6.5605,6.6022,6.6181,6.6181,6.6181,6.6181,6.6181,6.6181,6.6181,6.6181,6.6699,6.6592,6.6219,6.6668,6.6889,6.6813,6.6364,6.6478,6.6889,6.6889,6.7117,6.7465,6.7465,6.7731,6.811,6.811,6.8414,6.8799,6.9287,6.9401,6.9444,6.9862,6.9976,6.9976,6.9976,6.9976,6.9976,6.9976,6.9976,6.9976,6.9976,6.9976,6.9976,6.9976,6.9976,6.9976,6.9976,6.8441,6.5354,5.9743,5.4181,4.9945,4.8068,4.7817,4.7645,4.711,4.7058,4.7058,4.7058,4.7058,4.7162,4.7412,4.6668,4.5975,4.5302,4.6425,4.9293,5.4042,5.578,5.8569,6.2491,6.2491,6.2074,6.1305,6.1305,6.1078,0.0,0.0,0.0,0.0,0.0,0.0,0.0,0.0,0.0,0.0,0.0,0.0,0.0,0.0,0.0,7.4675,7.5164,7.5652,7.6702,7.6677,7.6405,7.6099,7.6023,7.5011,7.2336,7.2334,7.1535,6.921,6.7134,6.5932,6.5932,6.4408,6.3516,6.3516,6.4283,6.4701,6.4701,6.4853,6.4928,6.4928,6.4928,0.0,6.4928,6.4928,6.4928,6.4966,6.5681,6.5605,6.5004,6.575,6.6015,6.5939,6.5194,6.5377,6.6015,6.6015,6.6433,6.6971,6.6971,6.7085,6.7199,6.7199,6.7313,6.7579,6.83,6.8528,0.0,6.952,6.9748,6.9786,6.9938,6.9976,6.9976,6.9976,6.9976,6.9976,6.9976,6.9976,6.9976,6.9976,6.9976,6.9976,6.9976,6.633,6.2374,5.9237,5.5106,5.1241,4.809,4.7739,4.749,4.6651,4.6573,4.6573,4.6573,4.6157,4.6443,4.7584,4.6287,4.5144,4.4505,4.4078,4.6452,5.1957,5.2483,5.5213,6.0369,6.0769,6.0707,6.0024,5.8457,5.8046,0.0,0.0,0.0,0.0,0.0,0.0,0.0,0.0,0.0,0.0,0.0,0.0,0.0,0.0,0.0,0.0,7.3479,7.4481,7.5652,7.4895,7.3654,7.2175,7.2016,7.1244,6.928,6.6906,6.5355,6.5025,6.3048,6.1912,6.1912,6.2423,0.0,0.0,0.0,6.3896,6.3896,6.4587,6.4928,6.4928,6.4928,6.4928,6.4928,6.4928,6.4928,6.4928,6.5042,6.5042,6.4898,6.5042,6.508,6.508,6.4966,6.5004,6.508,6.508,6.5156,6.5232,6.5232,0.0,0.0,6.6427,6.6889,6.7465,6.7579,6.7617,6.7807,6.868,6.8946,6.9097,6.9786,6.9976,6.9976,6.9976,6.9976,6.9976,6.9976,6.9976,6.9976,6.9976,6.9976,6.9976,6.9976,6.4172,5.9207,5.832,5.264,4.8136,4.7249,4.7541,4.7765,4.7671,4.7635,0.0,4.7635,4.5811,4.5404,4.7032,4.4215,4.2186,4.1521,4.1448,4.3197,4.6993,4.9015,5.2359,5.7092,5.9189,6.0138,5.9881,5.2727,5.0881,0.0,0.0,0.0,0.0,0.0,0.0,0.0,0.0,0.0,0.0,0.0,0.0,0.0,0.0,0.0,0.0,7.1745,7.174,7.0673,7.067,7.01,6.85,6.8285,6.7338,6.4902,6.4005,6.2868,6.1178,6.0731,6.0555,6.0555,6.1352,6.1808,6.1808,6.2635,6.3053,6.3053,6.3858,6.4276,6.4245,6.4701,6.4928,6.4928,6.4928,6.4928,6.4928,6.4928,6.4928,6.4928,6.4928,6.4928,6.4853,0.0,0.0,0.0,0.0,6.4511,6.4928,6.4928,6.5156,6.5491,6.5491,6.5718,6.6098,6.6623,6.6775,6.6965,6.7769,6.7996,6.8072,6.8452,6.8496,6.8609,6.9173,6.9325,6.9439,6.99,6.9976,6.9976,6.9976,6.9976,0.0,6.717,6.2408,5.8097,5.5741,5.1101,4.7739,4.7541,4.7661,4.7593,4.698,4.6928,4.6928,4.6928,4.6053,0.0,0.0,0.0,4.363,4.3065,4.2415,0.0,0.0,0.0,4.824,5.1031,5.1049,0.0,0.0,5.0286,4.9998,0.0,0.0,0.0,0.0,0.0,0.0,0.0,0.0,0.0,0.0,0.0,0.0,0.0,0.0,0.0,0.0,6.9889,6.9287,6.6476,6.6911,6.6585,6.4062,6.4193,6.3381,6.0542,6.1001,6.068,5.8823,5.933,5.9796,6.0024,6.0631,6.0906,6.0906,6.1732,6.2217,6.2217,6.3015,6.3433,6.3433,6.401,6.4283,6.4283,6.4283,6.4283,6.4283,6.4283,6.4283,6.4283,6.4283,6.4283,6.4162,6.3015,6.2588,6.2664,6.3243,6.3782,6.4283,6.4283,6.4283,6.4352,6.4511,6.4587,6.4777,6.5674,6.5901,6.6091,6.6927,6.7155,6.7193,6.7389,6.7465,6.7617,6.8262,6.8414,6.8604,6.9141,6.9482,6.9672,6.9672,6.9444,6.8543,6.6103,6.173,5.7733,5.5134,5.0803,4.7765,4.7609,4.7713,4.7541,4.6746,4.6703,4.6703,4.6703,4.6131,4.6079,4.6807,4.5102,4.4064,4.4033,4.2597,4.2697,4.4602,4.4653,4.5051,0.0,0.0,0.0,0.0,0.0,0.0,0.0,0.0,0.0,0.0,0.0,0.0,0.0,0.0,0.0,0.0,0.0,0.0,0.0,0.0,0.0,0.0,0.0,0.0,6.452,6.4714,6.3419,5.8567,5.9457,5.9355,5.6599,5.7186,5.7996,5.8619,5.8733,5.9112,6.0014,6.009,6.0128,6.0128,6.0868,6.1286,6.1286,6.2179,6.2626,6.2626,6.2664,6.2664,6.2664,6.2664,6.2664,6.2664,6.2664,6.2664,6.2664,6.2664,6.2664,6.2664,6.2626,6.2588,6.2588,6.2626,6.2664,6.2664,6.2664,6.2664,6.2816,6.3546,6.3782,6.3934,6.4739,6.4966,6.5156,6.6053,6.6313,6.6471,6.7269,6.7465,6.7465,6.7503,6.7503,6.7503,6.7541,6.8224,6.8832,6.8832,6.811,6.7775,6.855,6.2624,5.7821,5.7956,5.2156,0.0,4.7136,4.7515,4.7791,4.7765,4.7765,4.7765,4.7765,4.5785,4.5047,4.6218,4.3058,4.1656,4.2779,4.0587,3.9422,3.9485,4.257,4.3638,4.2509,0.0,0.0,0.0,0.0,0.0,0.0,0.0,0.0,0.0,0.0,0.0,0.0,0.0,0.0,0.0,0.0,0.0,0.0,0.0,0.0,0.0,0.0,0.0,0.0,5.9244,5.873,5.4738,5.5292,5.5378,5.3874,5.5012,5.5988,5.6254,5.7279,5.8039,5.837,5.8875,5.9178,5.9178,5.9986,6.0441,6.0441,6.1277,6.1694,6.1694,6.2293,6.2588,6.2588,6.2588,6.2588,6.2588,6.2588,6.2588,6.2588,6.2588,6.1942,6.0926,6.0926,6.0926,6.0964,6.1504,6.1694,6.177,6.2369,6.2588,6.2626,6.293,6.2977,6.3015,6.3319,6.3744,6.42,6.4504,6.4959,6.5453,6.5687,6.5763,6.5915,6.6547,6.6661,6.6813,6.7313,6.7693,6.7921,6.7921,6.675,6.4491,6.0494,5.8653,5.5881,5.0459,4.8595,4.7931,4.8148,4.7983,4.8009,4.8434,4.8086,4.7817,4.7817,4.7126,4.6408,4.5647,4.4182,4.2987,4.2265,4.1059,4.0643,4.1037,4.1367,4.0587,3.8638,0.0,0.0,0.0,0.0,0.0,0.0,0.0,0.0,0.0,0.0,0.0,0.0,0.0,0.0,0.0,0.0,0.0,0.0,0.0,0.0,0.0,0.0,0.0,0.0,0.0,0.0,5.288,5.3291,0.0,5.2558,5.3494,5.4279,5.4582,5.5596,5.647,5.7013,5.7518,5.7936,5.8267,5.914,5.9596,5.9596,6.0403,6.0821,6.0821,6.1419,6.1714,6.1714,6.1714,6.1714,6.1714,6.1714,6.1714,6.1714,6.1714,6.085,5.9596,5.9596,5.9406,5.9254,6.0062,6.0337,6.0451,6.1381,6.1714,6.1714,6.1714,6.1457,6.1296,6.16,6.1837,6.2036,6.2369,6.3023,6.3752,6.4359,6.4511,6.4731,6.5567,6.5826,6.5908,6.644,6.6326,6.6212,6.6516,6.565,6.3178,5.7681,5.6716,5.4582,4.8253,4.7277,4.7541,4.8356,4.8086,4.7973,4.8408,4.8086,4.7817,4.7817,4.7635,4.6919,4.5413,4.4591,4.348,4.2062,4.1375,4.1007,4.1011,3.9894,3.849,0.0,0.0,0.0,0.0,0.0,0.0,0.0,0.0,0.0,0.0,0.0,0.0,0.0,0.0,0.0,0.0,0.0,0.0,0.0,0.0,0.0,0.0,0.0,0.0,0.0,0.0,0.0,5.2817,5.3177,0.0,0.0,0.0,0.0,5.3658,5.3734,5.443,5.5935,5.6049,5.6493,5.7382,5.8153,5.8581,5.8619,5.952,5.9948,5.9986,5.9986,6.0014,6.009,6.009,6.009,6.009,6.009,6.009,6.0024,5.9938,5.9368,5.8581,5.8543,5.8077,5.7496,5.8305,5.846,5.8491,5.9616,5.9891,5.974,5.9881,5.934,5.8771,5.9596,5.9226,0.0,0.0,6.0441,6.1437,6.3137,6.3554,6.3782,6.4625,6.4853,6.4853,6.4853,6.4314,6.3942,6.4366,6.4373,6.3149,5.9303,0.0,5.3493,5.081,4.8014,4.6599,4.7635,4.7791,4.7843,4.7869,4.7843,4.7817,4.7817,4.7334,4.6538,4.5336,4.4194,4.3058,4.1984,4.1297,4.0405,3.926,3.8179,0.0,0.0,0.0,0.0,0.0,0.0,0.0,0.0,0.0,0.0,0.0,0.0,0.0,0.0,0.0,0.0,0.0,0.0,0.0,0.0,0.0,0.0,0.0,0.0,0.0,0.0,5.2567,5.2556,5.1706,5.181,5.162,0.0,0.0,0.0,0.0,0.0,0.0,5.3392,5.4089,5.481,5.5646,5.639,5.7138,5.7811,5.8039,5.8457,5.9037,5.9037,5.9378,6.009,6.009,6.009,6.009,6.009,6.009,5.991,5.7946,5.7035,5.677,5.6189,5.5809,5.576,5.6504,5.5214,5.3613,5.7681,5.7331,5.5481,5.7548,5.8028,5.7621,5.6633,0.0,0.0,0.0,0.0,5.8875,6.0584,6.104,6.1381,6.2825,6.366,6.4048,6.4048,6.4352,6.3397,5.9092,5.7246,5.4388,4.8137,4.7796,0.0,4.3545,4.4435,4.5932,4.7074,4.7593,4.8009,4.8486,4.8112,4.7817,4.7817,4.7334,4.6382,4.4806,4.3993,4.2844,4.1318,4.0275,3.9363,3.8692,0.0,0.0,0.0,0.0,0.0,0.0,0.0,0.0,0.0,0.0,0.0,0.0,0.0,0.0,0.0,0.0,0.0,0.0,0.0,0.0,0.0,0.0,0.0,0.0,0.0,0.0,0.0,5.1595,5.1823,5.1823,5.1544,5.1102,0.0,0.0,0.0,0.0,0.0,0.0,0.0,0.0,0.0,5.3873,5.4708,5.5418,5.5927,5.6595,5.7176,5.7567,5.8001,5.8457,5.895,5.895,5.895,5.895,5.895,5.8695,5.8157,5.5585,5.404,5.3199,0.0,0.0,0.0,0.0,5.047,4.9271,5.2458,5.2304,5.1108,5.3839,0.0,0.0,0.0,0.0,0.0,0.0,0.0,5.5622,5.731,5.9162,6.0897,6.2255,6.2901,6.3243,6.3243,6.0594,5.7191,5.3839,5.2407,4.9846,4.3792,4.4039,0.0,0.0,0.0,4.4513,4.6469,4.7162,4.7697,4.8304,4.8034,4.7713,4.749,4.7006,4.5975,4.4208,4.3526,4.2331,4.0327,3.9393,3.8303,0.0,0.0,0.0,0.0,0.0,0.0,0.0,0.0,0.0,0.0,0.0,0.0,0.0,0.0,0.0,0.0,0.0,0.0,0.0,0.0,0.0,0.0,0.0,0.0,0.0,0.0,0.0,0.0,0.0,5.233,5.233,0.0,0.0,0.0,0.0,0.0,0.0,0.0,0.0,0.0,0.0,0.0,0.0,0.0,5.362,5.3874,5.5088,5.5745,5.5897,5.6671,5.7116,5.7192,5.7192,5.7268,5.729,5.6302,0.0,5.5107,5.2259,0.0,0.0,0.0,0.0,0.0,0.0,0.0,0.0,0.0,0.0,0.0,0.0,0.0,0.0,0.0,0.0,0.0,0.0,0.0,0.0,0.0,0.0,5.9991,6.0414,6.1098,6.1395,6.0668,5.4577,4.908,4.8493,4.8405,4.6953,0.0,0.0,0.0,0.0,0.0,0.0,4.5386,4.646,4.7213,4.7558,4.7697,4.7515,4.698,4.6391,4.5326,4.3649,4.2851,4.1448,3.926,3.8588,0.0,0.0,0.0,0.0,0.0,0.0,0.0,0.0,0.0,0.0,0.0,0.0,0.0,0.0,0.0,0.0,0.0,0.0,0.0,0.0,0.0,0.0,0.0,0.0,0.0,0.0,0.0,0.0,0.0,0.0,0.0,0.0,0.0,0.0,0.0,0.0,0.0,0.0,0.0,0.0,0.0,0.0,0.0,0.0,0.0,0.0,0.0,0.0,0.0,0.0,5.4418,5.4836,5.5456,5.5456,5.5809,5.6063,4.9595,4.8363,5.0594,4.6549,0.0,0.0,0.0,0.0,0.0,0.0,0.0,0.0,0.0,0.0,0.0,0.0,0.0,0.0,0.0,0.0,0.0,0.0,0.0,0.0,0.0,0.0,5.2373,5.0233,5.3042,5.4998,5.0703,0.0,0.0,0.0,0.0,0.0,0.0,0.0,0.0,0.0,0.0,0.0,4.2577,4.5248,4.6902,4.6573,4.6928,4.6954,4.6443,4.5438,4.4442,4.3597,4.1734,4.0076,0.0,0.0,0.0,0.0,0.0,0.0,0.0,0.0,0.0,0.0,0.0,0.0,0.0,0.0,0.0,0.0,0.0,0.0,0.0,0.0,0.0,0.0,0.0,0.0,0.0,0.0,0.0,0.0,0.0,0.0,0.0,0.0,0.0,0.0,0.0,0.0,0.0,0.0,0.0,0.0,0.0,0.0,0.0,0.0,0.0,0.0,0.0,0.0,0.0,0.0,0.0,0.0,0.0,0.0,0.0,0.0,0.0,0.0,4.8735,4.6137,0.0,0.0,0.0,0.0,0.0,0.0,0.0,0.0,0.0,0.0,0.0,0.0,0.0,0.0,0.0,0.0,0.0,0.0,0.0,0.0,0.0,0.0,0.0,0.0,0.0,0.0,0.0,0.0,0.0,0.0,0.0,0.0,0.0,0.0,0.0,0.0,0.0,0.0,0.0,0.0,4.1828,4.4416,4.6175,4.627,4.6495,4.6417,4.5811,4.5021,4.3844,4.2325,4.0985,0.0,0.0,0.0,0.0,0.0,0.0,0.0,0.0,0.0,0.0,0.0,0.0,0.0,0.0,0.0,0.0,0.0,0.0,0.0,0.0,0.0,0.0,0.0,0.0,0.0,0.0,0.0,0.0,0.0,0.0,0.0,0.0,0.0,0.0,0.0,0.0,0.0,0.0,0.0,0.0,0.0,0.0,0.0,0.0,0.0,0.0,0.0,0.0,0.0,0.0,0.0,0.0,0.0,0.0,0.0,0.0,0.0,0.0,0.0,4.6903,4.3703,0.0,0.0,0.0,0.0,0.0,0.0,0.0,0.0,0.0,0.0,0.0,0.0,0.0,0.0,0.0,0.0,0.0,0.0,0.0,0.0,0.0,0.0,0.0,0.0,0.0,0.0,0.0,0.0,0.0,0.0,0.0,0.0,0.0,0.0,0.0,0.0,0.0,0.0,0.0,0.0,4.125,4.3682,4.5439,4.5854,4.5975,4.5785,4.5154,4.452,4.3246,4.1162,4.018,0.0,0.0,0.0,0.0,0.0,0.0,0.0,0.0,0.0,0.0,0.0,0.0,0.0,0.0,0.0,0.0,0.0,0.0,0.0,0.0,0.0,0.0,0.0,0.0,0.0,0.0,0.0,0.0,0.0,0.0,0.0,0.0,0.0,0.0,0.0,0.0,0.0,0.0,0.0,0.0,0.0,0.0,0.0,0.0,0.0,0.0,0.0,0.0,0.0,0.0,0.0,0.0,0.0,0.0,0.0,0.0,0.0,0.0,0.0,0.0,0.0,0.0,0.0,0.0,0.0,0.0,0.0,0.0,0.0,0.0,0.0,0.0,0.0,0.0,0.0,0.0,0.0,0.0,0.0,0.0,0.0,0.0,0.0,0.0,0.0,0.0,0.0,0.0,0.0,0.0,0.0,0.0,0.0,0.0,0.0,0.0,0.0,0.0,0.0,0.0,0.0,3.9493,4.2922,4.5128,4.4735,4.5084,4.5188,4.4631,4.3558,4.2357,4.108,0.0,0.0,0.0,0.0,0.0,0.0,0.0,0.0,0.0,0.0,0.0,0.0,0.0,0.0,0.0,0.0,0.0,0.0,0.0,0.0,0.0,0.0,0.0,0.0,0.0,0.0,0.0,0.0,0.0,0.0,0.0,0.0,0.0,0.0,0.0,0.0,0.0,0.0,0.0,0.0,0.0,0.0,0.0,0.0,0.0,0.0,0.0,0.0,0.0,0.0,0.0,0.0,0.0,0.0,0.0,0.0,0.0,0.0,0.0,0.0,0.0,0.0,0.0,0.0,0.0,0.0,0.0,0.0,0.0,0.0,0.0,0.0,0.0,0.0,0.0,0.0,0.0,0.0,0.0,0.0,0.0,0.0,0.0,0.0,0.0,0.0,0.0,0.0,0.0,0.0,0.0,0.0,0.0,0.0,0.0,0.0,0.0,0.0,0.0,0.0,0.0,0.0,3.926,4.2507,4.4754,4.4527,4.4735,4.4728,4.4527,4.3428,4.1968,4.0094,0.0,0.0,0.0,0.0,0.0,0.0,0.0,0.0,0.0,0.0,0.0,0.0,0.0,0.0,0.0,0.0,0.0,0.0,0.0,0.0,0.0,0.0,0.0,0.0,0.0,0.0,0.0,0.0,0.0,0.0,0.0,0.0,0.0,0.0,0.0,0.0,0.0,0.0,0.0,0.0,0.0,0.0,0.0,0.0,0.0,0.0,0.0,0.0,0.0,0.0,0.0,0.0,0.0,0.0,0.0,0.0,0.0,0.0,0.0,0.0,0.0,0.0,0.0,0.0,0.0,0.0,0.0,0.0,0.0,0.0,0.0,0.0,0.0,0.0,0.0,0.0,0.0,0.0,0.0,0.0,0.0,0.0,0.0,0.0,0.0,0.0,0.0,0.0,0.0,0.0,0.0,0.0,0.0,0.0,0.0,0.0,0.0,0.0,0.0,0.0,0.0,0.0,3.926,4.2175,4.4286,4.4475,4.4501,4.4501,4.4501,4.3272,4.1266,3.8264,0.0,0.0,0.0,0.0,0.0,0.0,0.0,0.0,0.0,0.0,0.0,0.0,0.0,0.0,0.0,0.0,0.0,0.0,0.0,0.0,0.0,0.0,0.0,0.0,0.0,0.0,0.0,0.0,0.0,0.0,0.0,0.0,0.0,0.0,0.0,0.0,0.0,0.0,0.0,0.0,0.0,0.0,0.0,0.0,0.0,0.0,0.0,0.0,0.0,0.0,0.0,0.0,0.0,0.0,0.0,0.0,0.0,0.0,0.0,0.0,0.0,0.0,0.0,0.0,0.0,0.0,0.0,0.0,0.0,0.0,0.0,0.0,0.0,0.0,0.0,0.0,0.0,0.0,0.0,0.0,0.0,0.0,0.0,0.0,0.0,0.0,0.0,0.0,0.0,0.0,0.0,0.0,0.0,0.0,0.0,0.0,0.0,0.0,0.0,0.0,0.0,0.0,3.9208,4.1749,4.3811,4.4449,4.4501,4.4501,4.4501,4.2941,4.0056,0.0,0.0,0.0,0.0,0.0,0.0,0.0,0.0,0.0,0.0,0.0,0.0,0.0,0.0,0.0,0.0,0.0,0.0,0.0,0.0,0.0,0.0,0.0,0.0,0.0,0.0,0.0,0.0,0.0,0.0,0.0,0.0,0.0,0.0,0.0,0.0,0.0,0.0,0.0,0.0,0.0,0.0,0.0,0.0,0.0,0.0,0.0,0.0,0.0,0.0,0.0,0.0,0.0,0.0,0.0,0.0,0.0,0.0,0.0,0.0,0.0,0.0,0.0,0.0,0.0,0.0,0.0,0.0,0.0,0.0,0.0,0.0,0.0,0.0,0.0,0.0,0.0,0.0,0.0,0.0,0.0,0.0,0.0,0.0,0.0,0.0,0.0,0.0,0.0,0.0,0.0,0.0,0.0,0.0,0.0,0.0,0.0,0.0,0.0,0.0,0.0,0.0,0.0,3.9156,4.1443,4.3402,4.4397,4.4501,4.4345,4.3889,4.2707,4.0673,3.7626,0.0,0.0,0.0,0.0,0.0,0.0,0.0,0.0,0.0,0.0,0.0,0.0,0.0,0.0,0.0,0.0,0.0,0.0,0.0,0.0,0.0,0.0,0.0,0.0,0.0,0.0,0.0,0.0,0.0,0.0,0.0,0.0,0.0,0.0,0.0,0.0,0.0,0.0,0.0,0.0,0.0,0.0,0.0,0.0,0.0,0.0,0.0,0.0,0.0,0.0,0.0,0.0,0.0,0.0,0.0,0.0,0.0,0.0,0.0,0.0,0.0,0.0,0.0,0.0,0.0,0.0,0.0,0.0,0.0,0.0,0.0,0.0,0.0,0.0,0.0,0.0,0.0,0.0,0.0,0.0,0.0,0.0,0.0,0.0,0.0,0.0,0.0,0.0,0.0,0.0,0.0,0.0,0.0,0.0,0.0,0.0,0.0,0.0,0.0,0.0,0.0,0.0,0.0,4.1188,4.3039,4.3799,4.4026,4.3844,4.3006,4.1947,3.9964,3.676,0.0,0.0,0.0,0.0,0.0,0.0,0.0,0.0,0.0,0.0,0.0,0.0,0.0,0.0,0.0,0.0,0.0,0.0,0.0,0.0,0.0,0.0,0.0,0.0,0.0,0.0,0.0,0.0,0.0,0.0,0.0,0.0,0.0,0.0,0.0,0.0,0.0,0.0,0.0,0.0,0.0,0.0,0.0,0.0,0.0,0.0,0.0,0.0,0.0,0.0,0.0,0.0,0.0,0.0,0.0,0.0,0.0,0.0,0.0,0.0,0.0,0.0,0.0,0.0,0.0,0.0,0.0,0.0,0.0,0.0,0.0,0.0,0.0,0.0,0.0,0.0,0.0,0.0,0.0,0.0,0.0,0.0,0.0,0.0,0.0,0.0,0.0,0.0,0.0,0.0,0.0,0.0,0.0,0.0,0.0,0.0,0.0,0.0,0.0,0.0,0.0,0.0,0.0,4.0933,4.2623,4.2753,4.3214,4.3058,4.2004,4.0886,3.8268,3.3662,3.4812,0.0,0.0,0.0,0.0,0.0,0.0,0.0,0.0,0.0,0.0,0.0,0.0,0.0,0.0,0.0,0.0,0.0,0.0,0.0,0.0,0.0,0.0,0.0,0.0,0.0,0.0,0.0,0.0,0.0,0.0,0.0,0.0,0.0,0.0,0.0,0.0,0.0,0.0,0.0,0.0,0.0,0.0,0.0,0.0,0.0,0.0,0.0,0.0,0.0,0.0,0.0,0.0,0.0,0.0,0.0,0.0,0.0,0.0,0.0,0.0,0.0,0.0,0.0,0.0,0.0,0.0,0.0,0.0,0.0,0.0,0.0,0.0,0.0,0.0,0.0,0.0,0.0,0.0,0.0,0.0,0.0,0.0,0.0,0.0,0.0,0.0,0.0,0.0,0.0,0.0,0.0,0.0,0.0,0.0,0.0,0.0,0.0,0.0,0.0,0.0,0.0,0.0,4.0098,4.1323,4.2623,4.2883,4.2493,4.1344,4.0622,3.8092,3.2992,3.2709,0.0,0.0,0.0,0.0,0.0,0.0,0.0,0.0,0.0,0.0,0.0,0.0,0.0,0.0,0.0,0.0,0.0,0.0,0.0,0.0,0.0,0.0,0.0,0.0,0.0,0.0,0.0,0.0,0.0,0.0,0.0,0.0,0.0,0.0,0.0,0.0,0.0,0.0,0.0,0.0,0.0,0.0,0.0,0.0,0.0,0.0,0.0,0.0,0.0,0.0,0.0,0.0,0.0,0.0,0.0,0.0,0.0,0.0,0.0,0.0,0.0,0.0,0.0,0.0,0.0,0.0,0.0,0.0,0.0,0.0,0.0,0.0,0.0,0.0,0.0,0.0,0.0,0.0,0.0,0.0,0.0,0.0,0.0,0.0,0.0,0.0,0.0,0.0,0.0,0.0,0.0,0.0,0.0,0.0,0.0,0.0,0.0,0.0,0.0,0.0,0.0,0.0,3.8407,3.881,3.9244,4.1168,4.1196,3.8154,3.9073,3.758,3.2431,3.0615,0.0,0.0,0.0,0.0,0.0,0.0,0.0,0.0,0.0,0.0,0.0,0.0,0.0,0.0,0.0,0.0,0.0,0.0,0.0,0.0,0.0,0.0,0.0,0.0,0.0,0.0,0.0,0.0,0.0,0.0,0.0,0.0,0.0,0.0,0.0,0.0,0.0,0.0,0.0,0.0,0.0,0.0,0.0,0.0,0.0,0.0,0.0,0.0,0.0,0.0,0.0,0.0,0.0,0.0,0.0,0.0,0.0,0.0,0.0,0.0,0.0,0.0,0.0,0.0,0.0,0.0,0.0,0.0,0.0,0.0,0.0,0.0,0.0,0.0,0.0,0.0,0.0,0.0,0.0,0.0,0.0,0.0,0.0,0.0,0.0,0.0,0.0,0.0,0.0,0.0,0.0,0.0,0.0,0.0,0.0,0.0,0.0,0.0,0.0,0.0,0.0,0.0,0.0,3.6608,3.587,3.8954,3.917,3.4592,3.6831,3.6335,3.1359,0.0,0.0,0.0,0.0,0.0,0.0,0.0,0.0,0.0,0.0,0.0,0.0,0.0,0.0,0.0,0.0,0.0,0.0,0.0,0.0,0.0,0.0,0.0,0.0,0.0,0.0,0.0,0.0,0.0,0.0,0.0,0.0,0.0,0.0,0.0,0.0,0.0,0.0,0.0,0.0,0.0,0.0,0.0,0.0,0.0,0.0,0.0,0.0,0.0,0.0,0.0,0.0,0.0,0.0,0.0,0.0,0.0,0.0,0.0,0.0,0.0,0.0,0.0,0.0,0.0,0.0,0.0,0.0,0.0,0.0,0.0,0.0,0.0,0.0,0.0,0.0,0.0,0.0,0.0,0.0,0.0,0.0,0.0,0.0,0.0,0.0,0.0,0.0,0.0,0.0,0.0,0.0,0.0,0.0,0.0,0.0,0.0,0.0,0.0,0.0,0.0,0.0,0.0,0.0,3.7823,3.8556,3.7382,3.5915,3.4367,3.4473,3.278,2.8326,0.0,0.0,0.0,0.0,0.0,0.0,0.0,0.0,0.0,0.0,0.0,0.0,0.0,0.0]}]]]